[[{"header":{"parameterUnit":"m.s-1","parameterCategory":1,"la1":31.0,"la2":29.5877,"lo1":-88.7671,"lo2":-86.6584,"dy":0.0162,"dx":0.0185,"nx":115,"ny":88,"refTime":"2024-04-19T06:00:00:Z","depth":0,"parameterNumber":2,"parameterNumberName":"U-component_of_WINDS"},"data":[0.0,0.0,0.0,0.0,0.0,0.0,0.0,0.0,0.0,0.0,0.0,0.0,0.0,0.0,0.0,0.0,0.0,0.0,0.0,0.0,0.0,0.0,0.0,0.0,0.0,0.0,0.0,0.0,0.0,0.0,0.0,0.0,0.0,0.0,0.0,0.0,0.0,0.0,0.0,0.0,0.0,0.0,0.0,0.0,0.0,0.0,0.0,0.0,0.0,0.0,0.0,0.0,0.0,0.0,0.0,0.0,0.0,0.0,0.0,0.0,0.0,0.0,0.0,0.0,0.0,0.0,0.0,0.0,0.0,0.0,0.0,0.0,0.0,0.0,0.0,0.0,0.0,0.0,0.0,0.0,0.0,0.0,0.0,0.0,0.0,0.0,0.0,0.0,0.0,0.0,0.0,0.0,0.0,0.0,0.0,0.0,0.0,0.0,0.0,0.0,0.0,0.0,0.0,0.0,0.0,0.0,0.0,0.0,0.0,0.0,0.0,0.0,0.0,0.0,0.0,0.0,0.0,0.0,0.0,0.0,0.0,0.0,0.0,0.0,0.0,0.0,0.0,0.0,0.0,0.0,0.0,0.0,0.0,0.0,0.0,0.0,0.0,0.0,0.0,0.0,0.0,0.0,0.0,0.0,0.0,0.0,0.0,0.0,0.0,0.0,0.0,0.0,0.0,0.0,0.0,0.0,0.0,0.0,0.0,0.0,0.0,0.0,0.0,0.0,0.0,0.0,0.0,0.0,0.0,0.0,0.0,0.0,0.0,0.0,0.0,0.0,0.0,0.0,0.0,0.0,0.0,0.0,0.0,0.0,0.0,0.0,0.0,0.0,0.0,0.0,0.0,0.0,0.0,0.0,0.0,0.0,0.0,0.0,0.0,0.0,0.0,0.0,0.0,0.0,0.0,0.0,0.0,0.0,0.0,0.0,0.0,0.0,0.0,0.0,0.0,0.0,0.0,0.0,0.0,0.0,0.0,0.0,0.0,0.0,0.0,0.0,0.0,0.0,0.0,0.0,0.0,0.0,0.0,0.0,0.0,0.0,0.0,0.0,0.0,0.0,0.0,0.0,0.0,0.0,0.0,0.0,0.0,0.0,0.0,0.0,0.0,0.0,0.0,0.0,0.0,0.0,0.0,0.0,0.0,0.0,0.0,0.0,0.0,0.0,0.0,0.0,0.0,0.0,0.0,0.0,0.0,0.0,0.0,0.0,0.0,0.0,0.0,0.0,0.0,0.0,0.0,0.0,0.0,0.0,0.0,0.0,0.0,0.0,0.0,0.0,0.0,0.0,0.0,0.0,0.0,0.0,0.0,0.0,0.0,0.0,0.0,0.0,0.0,0.0,0.0,0.0,0.0,0.0,0.0,0.0,0.0,0.0,0.0,0.0,0.0,0.0,0.0,0.0,0.0,0.0,0.0,0.0,0.0,0.0,0.0,0.0,0.0,0.0,0.0,0.0,0.0,0.0,0.0,0.0,0.0,0.0,0.0,0.0,0.0,0.0,0.0,0.0,0.0,0.0,0.0,0.0,0.0,0.0,0.0,0.0,0.0,0.0,0.0,0.0,0.0,0.0,0.0,0.0,0.0,0.0,0.0,0.0,0.0,0.0,0.0,0.0,0.0,0.0,0.0,0.0,0.0,0.0,0.0,0.0,0.0,0.0,0.0,0.0,0.0,0.0,0.0,0.0,0.0,0.0,0.0,0.0,0.0,0.0,0.0,0.0,0.0,0.0,0.0,0.0,0.0,0.0,0.0,0.0,0.0,0.0,0.0,0.0,0.0,0.0,0.0,0.0,0.0,0.0,0.0,0.0,0.0,0.0,0.0,0.0,0.0,0.0,0.0,0.0,0.0,0.0,0.0,0.0,0.0,0.0,0.0,0.0,0.0,0.0,0.0,0.0,0.0,0.0,0.0,0.0,0.0,0.0,0.0,0.0,0.0,0.0,0.0,0.0,0.0,0.0,0.0,0.0,0.0,0.0,0.0,0.0,0.0,0.0,0.0,0.0,0.0,0.0,0.0,0.0,0.0,0.0,0.0,0.0,0.0,0.0,0.0,0.0,0.0,0.0,0.0,0.0,0.0,0.0,0.0,0.0,0.0,0.0,0.0,0.0,0.0,0.0,0.0,0.0,0.0,0.0,0.0,0.0,0.0,0.0,0.0,0.0,0.0,0.0,0.0,0.0,0.0,0.0,0.0,0.0,0.0,0.0,0.0,0.0,0.0,0.0,0.0,0.0,0.0,0.0,0.0,0.0,0.0,0.0,0.0,0.0,0.0,0.0,0.0,0.0,0.0,0.0,0.0,0.0,0.0,0.0,0.0,0.0,0.0,0.0,0.0,0.0,0.0,0.0,0.0,0.0,0.0,0.0,0.0,0.0,0.0,0.0,0.0,0.0,0.0,0.0,0.0,0.0,0.0,0.0,0.0,0.0,0.0,0.0,0.0,0.0,0.0,0.0,0.0,0.0,0.0,0.0,0.0,0.0,0.0,0.0,0.0,0.0,0.0,0.0,0.0,0.0,0.0,0.0,0.0,0.0,0.0,0.0,0.0,0.0,0.0,0.0,0.0,0.0,0.0,0.0,0.0,0.0,0.0,0.0,0.0,0.0,0.0,0.0,0.0,0.0,0.0,0.0,0.0,0.0,0.0,0.0,0.0,0.0,0.0,0.0,0.0,0.0,0.0,0.0,0.0,0.0,0.0,0.0,0.0,0.0,0.0,0.0,0.0,0.0,0.0,0.0,0.0,0.0,0.0,0.0,0.0,0.0,0.0,0.0,0.0,0.0,0.0,0.0,0.0,0.0,0.0,0.0,0.0,0.0,0.0,0.0,0.0,0.0,0.0,0.0,0.0,0.0,0.0,0.0,0.0,0.0,0.0,0.0,0.0,0.0,0.0,0.0,0.0,0.0,0.0,0.0,0.0,0.0,0.0,0.0,0.0,0.0,0.0,0.0,0.0,0.0,0.0,0.0,0.0,0.0,0.0,0.0,0.0,0.0,0.0,0.0,0.0,0.0,0.0,0.0,0.0,0.0,0.0,0.0,0.0,0.0,0.0,0.0,0.0,0.0,0.0,0.0,0.0,0.0,0.0,0.0,0.0,0.0,0.0,0.0,0.0,0.0,0.0,0.0,0.0,0.0,0.0,0.0,0.0,0.0,0.0,0.0,0.0,0.0,0.0,0.0,0.0,0.0,0.0,0.0,0.0,0.0,0.0,0.0,0.0,0.0,0.0,0.0,0.0,0.0,0.0,0.0,0.0,0.0,0.0,0.0,0.0,0.0,0.0,0.0,0.0,0.0,0.0,0.0,0.0,0.0,0.0,0.0,0.0,0.0,0.0,0.0,0.0,0.0,0.0,0.0,0.0,0.0,0.0,0.0,0.0,0.0,0.0,0.0,0.0,0.0,0.0,0.0,0.0,0.0,0.0,0.0,0.0,0.0,0.0,0.0,0.0,0.0,0.0,0.0,0.0,0.0,0.0,0.0,0.0,0.0,0.0,0.0,0.0,0.0,0.0,0.0,0.0,0.0,0.0,0.0,0.0,0.0,0.0,0.0,0.0,0.0,0.0,0.0,0.0,0.0,0.0,0.0,0.0,0.0,0.0,0.0,0.0,0.0,0.0,0.0,0.0,0.0,0.0,0.0,0.0,0.0,0.0,0.0,0.0,0.0,0.0,0.0,0.0,0.0,0.0,0.0,0.0,0.0,0.0,0.0,0.0,0.0,0.0,0.0,0.0,0.0,0.0,0.0,0.0,0.0,0.0,0.0,0.0,0.0,0.0,0.0,0.0,0.0,0.0,0.0,0.0,0.0,0.0,0.0,0.0,0.0,0.0,0.0,0.0,0.0,0.0,0.0,0.0,0.0,0.0,0.0,0.0,0.0,0.0,0.0,0.0,0.0,0.0,0.0,0.0,0.0,0.0,0.0,0.0,0.0,0.0,0.0,0.0,0.0,0.0,0.0,0.0,0.0,0.0,0.0,0.0,0.0,0.0,0.0,0.0,0.0,0.0,0.0,0.0,0.0,0.0,0.0,0.0,0.0,0.0,0.0,0.0,0.0,0.0,0.0,0.0,0.0,0.0,0.0,0.0,0.0,0.0,0.0,0.0,0.0,0.0,0.0,0.0,0.0,0.0,0.0,0.0,0.0,0.0,0.0,0.0,0.0,0.0,0.0,0.0,0.0,0.0,0.0,0.0,0.0,0.0,0.0,0.0,0.0,0.0,0.0,0.0,0.0,0.0,0.0,0.0,0.0,0.0,0.0,0.0,0.0,-1.8343,0.0,0.0,0.0,0.0,0.0,0.0,0.0,0.0,0.0,0.0,0.0,0.0,0.0,0.0,0.0,0.0,0.0,0.0,0.0,0.0,0.0,0.0,0.0,0.0,0.0,0.0,0.0,0.0,0.0,0.0,0.0,0.0,0.0,0.0,0.0,0.0,0.0,0.0,0.0,0.0,0.0,0.0,0.0,0.0,0.0,0.0,0.0,0.0,0.0,0.0,0.0,0.0,0.0,0.0,0.0,0.0,0.0,0.0,0.0,0.0,0.0,0.0,0.0,0.0,0.0,0.0,0.0,0.0,0.0,0.0,0.0,0.0,0.0,0.0,0.0,0.0,0.0,0.0,0.0,0.0,0.0,0.0,0.0,0.0,0.0,0.0,0.0,0.0,0.0,0.0,0.0,0.0,0.0,0.0,0.0,0.0,0.0,0.0,0.0,0.0,0.0,0.0,0.0,0.0,0.0,0.0,0.0,0.0,0.0,0.0,-2.0361,-2.0494,-2.0525,-2.0122,-1.9223,0.0,0.0,0.0,0.0,0.0,0.0,0.0,0.0,0.0,0.0,0.0,0.0,0.0,0.0,0.0,0.0,0.0,0.0,0.0,0.0,0.0,0.0,0.0,0.0,0.0,0.0,0.0,0.0,0.0,0.0,0.0,0.0,0.0,0.0,0.0,0.0,0.0,0.0,0.0,0.0,0.0,0.0,0.0,0.0,0.0,0.0,0.0,0.0,0.0,0.0,0.0,0.0,0.0,0.0,0.0,0.0,0.0,0.0,0.0,0.0,0.0,0.0,0.0,0.0,0.0,0.0,0.0,0.0,0.0,0.0,0.0,0.0,0.0,0.0,0.0,0.0,0.0,0.0,0.0,0.0,0.0,0.0,0.0,0.0,0.0,0.0,0.0,0.0,0.0,0.0,0.0,0.0,0.0,0.0,0.0,0.0,0.0,0.0,0.0,0.0,0.0,0.0,0.0,0.0,0.0,0.0,0.0,0.0,0.0,0.0,0.0,0.0,-2.1292,-2.0778,-1.963,0.0,0.0,0.0,0.0,0.0,0.0,0.0,0.0,0.0,0.0,0.0,0.0,0.0,0.0,0.0,0.0,0.0,0.0,0.0,0.0,0.0,0.0,0.0,0.0,0.0,0.0,0.0,0.0,0.0,0.0,0.0,0.0,0.0,0.0,0.0,0.0,0.0,0.0,0.0,0.0,0.0,0.0,0.0,0.0,0.0,0.0,0.0,0.0,0.0,0.0,0.0,0.0,0.0,0.0,0.0,0.0,0.0,0.0,0.0,0.0,0.0,0.0,0.0,0.0,0.0,0.0,0.0,0.0,0.0,0.0,0.0,0.0,0.0,0.0,0.0,0.0,0.0,0.0,0.0,0.0,0.0,0.0,0.0,0.0,0.0,0.0,0.0,0.0,0.0,0.0,0.0,0.0,0.0,0.0,0.0,0.0,0.0,0.0,0.0,0.0,0.0,0.0,0.0,0.0,0.0,0.0,0.0,0.0,0.0,0.0,-2.1832,-2.1912,-2.197,0.0,-1.9309,0.0,0.0,0.0,0.0,0.0,0.0,0.0,0.0,0.0,0.0,0.0,0.0,0.0,0.0,0.0,0.0,0.0,0.0,0.0,0.0,0.0,0.0,0.0,0.0,0.0,0.0,0.0,0.0,0.0,0.0,0.0,0.0,0.0,0.0,0.0,0.0,0.0,0.0,0.0,0.0,0.0,0.0,0.0,0.0,0.0,0.0,0.0,0.0,0.0,0.0,0.0,0.0,0.0,0.0,0.0,0.0,0.0,0.0,0.0,0.0,0.0,0.0,0.0,0.0,0.0,0.0,0.0,0.0,0.0,0.0,0.0,0.0,0.0,0.0,0.0,0.0,0.0,0.0,0.0,0.0,0.0,0.0,0.0,0.0,0.0,0.0,0.0,0.0,0.0,0.0,0.0,0.0,0.0,0.0,0.0,0.0,0.0,0.0,0.0,0.0,0.0,0.0,0.0,0.0,0.0,0.0,0.0,0.0,0.0,0.0,-2.2201,-2.2694,-2.1762,-2.0813,0.0,0.0,0.0,0.0,0.0,0.0,0.0,0.0,0.0,0.0,0.0,0.0,0.0,0.0,0.0,0.0,0.0,0.0,0.0,0.0,0.0,0.0,0.0,0.0,0.0,0.0,0.0,0.0,0.0,0.0,0.0,0.0,0.0,0.0,0.0,0.0,0.0,0.0,0.0,0.0,0.0,0.0,0.0,0.0,0.0,0.0,0.0,0.0,0.0,0.0,0.0,0.0,0.0,0.0,0.0,0.0,0.0,0.0,0.0,0.0,0.0,0.0,0.0,0.0,0.0,0.0,0.0,0.0,0.0,0.0,0.0,0.0,0.0,0.0,0.0,0.0,0.0,0.0,0.0,0.0,0.0,0.0,0.0,0.0,0.0,0.0,0.0,0.0,0.0,0.0,0.0,0.0,0.0,0.0,0.0,0.0,0.0,0.0,0.0,0.0,0.0,0.0,0.0,0.0,0.0,0.0,0.0,0.0,0.0,0.0,-2.1167,-2.2019,-2.2698,-2.1365,-2.0344,-1.9845,0.0,0.0,0.0,0.0,0.0,0.0,0.0,0.0,0.0,0.0,0.0,0.0,0.0,0.0,0.0,0.0,0.0,0.0,0.0,0.0,0.0,0.0,0.0,0.0,0.0,0.0,0.0,0.0,0.0,0.0,0.0,0.0,0.0,0.0,0.0,0.0,0.0,0.0,0.0,0.0,0.0,0.0,0.0,0.0,0.0,0.0,0.0,0.0,0.0,0.0,0.0,0.0,0.0,0.0,0.0,0.0,0.0,0.0,0.0,0.0,0.0,0.0,0.0,0.0,0.0,0.0,0.0,0.0,0.0,0.0,0.0,0.0,0.0,0.0,0.0,0.0,0.0,0.0,0.0,0.0,0.0,0.0,0.0,0.0,0.0,0.0,0.0,0.0,0.0,0.0,0.0,0.0,0.0,0.0,0.0,0.0,0.0,0.0,0.0,0.0,0.0,0.0,0.0,0.0,0.0,0.0,0.0,0.0,-1.9473,-2.0308,-2.1121,-2.1817,-2.0849,-1.9884,0.0,0.0,0.0,0.0,0.0,0.0,0.0,0.0,0.0,0.0,0.0,0.0,0.0,0.0,0.0,0.0,0.0,0.0,0.0,0.0,0.0,0.0,0.0,0.0,0.0,0.0,0.0,0.0,0.0,0.0,0.0,0.0,0.0,0.0,0.0,0.0,0.0,0.0,0.0,0.0,0.0,0.0,0.0,0.0,0.0,0.0,0.0,0.0,0.0,0.0,0.0,0.0,0.0,0.0,0.0,0.0,0.0,0.0,0.0,0.0,0.0,0.0,0.0,0.0,0.0,0.0,0.0,0.0,0.0,0.0,0.0,0.0,0.0,0.0,0.0,0.0,0.0,0.0,0.0,0.0,0.0,0.0,0.0,0.0,0.0,0.0,0.0,0.0,0.0,0.0,0.0,0.0,0.0,0.0,0.0,0.0,0.0,0.0,0.0,0.0,0.0,0.0,0.0,0.0,0.0,0.0,0.0,0.0,0.0,-1.9392,-2.0171,-2.0639,-2.0803,-1.9889,-1.8973,0.0,0.0,0.0,0.0,0.0,0.0,0.0,0.0,0.0,0.0,0.0,0.0,0.0,0.0,0.0,0.0,0.0,0.0,0.0,0.0,0.0,0.0,0.0,0.0,0.0,0.0,0.0,0.0,0.0,0.0,0.0,0.0,0.0,0.0,0.0,0.0,0.0,0.0,0.0,0.0,0.0,0.0,0.0,0.0,0.0,0.0,0.0,0.0,0.0,0.0,0.0,0.0,0.0,0.0,0.0,0.0,0.0,0.0,0.0,0.0,0.0,0.0,0.0,0.0,0.0,0.0,0.0,0.0,0.0,0.0,0.0,0.0,0.0,0.0,0.0,0.0,0.0,0.0,0.0,0.0,0.0,0.0,0.0,0.0,0.0,0.0,0.0,0.0,0.0,0.0,0.0,0.0,0.0,0.0,0.0,0.0,0.0,0.0,0.0,0.0,0.0,0.0,0.0,0.0,0.0,0.0,0.0,0.0,0.0,-1.8985,0.0,-1.9967,-1.9802,-1.9162,-1.8294,0.0,0.0,0.0,0.0,0.0,0.0,0.0,0.0,0.0,0.0,0.0,0.0,0.0,0.0,0.0,0.0,0.0,0.0,0.0,0.0,0.0,0.0,0.0,0.0,0.0,0.0,0.0,0.0,0.0,0.0,0.0,0.0,0.0,0.0,0.0,0.0,0.0,0.0,0.0,0.0,0.0,0.0,0.0,0.0,0.0,0.0,0.0,0.0,0.0,0.0,0.0,0.0,0.0,0.0,0.0,0.0,0.0,0.0,0.0,0.0,0.0,0.0,0.0,0.0,0.0,0.0,0.0,0.0,0.0,0.0,0.0,0.0,0.0,0.0,0.0,0.0,0.0,0.0,0.0,0.0,0.0,0.0,0.0,0.0,0.0,0.0,0.0,0.0,0.0,0.0,0.0,0.0,0.0,0.0,0.0,0.0,0.0,0.0,0.0,0.0,0.0,0.0,0.0,0.0,0.0,0.0,0.0,0.0,-1.8,-1.8143,-1.8728,-1.8963,-1.8802,-1.8689,-1.786,0.0,0.0,0.0,0.0,0.0,0.0,0.0,0.0,0.0,0.0,0.0,0.0,0.0,0.0,0.0,0.0,0.0,0.0,0.0,0.0,0.0,0.0,0.0,0.0,0.0,0.0,0.0,0.0,0.0,0.0,0.0,0.0,0.0,0.0,0.0,0.0,0.0,0.0,0.0,0.0,0.0,0.0,0.0,0.0,0.0,0.0,0.0,0.0,0.0,0.0,0.0,0.0,0.0,0.0,0.0,0.0,0.0,0.0,0.0,0.0,0.0,0.0,0.0,0.0,0.0,0.0,0.0,0.0,0.0,0.0,0.0,0.0,0.0,0.0,0.0,0.0,0.0,0.0,0.0,0.0,0.0,0.0,0.0,0.0,0.0,0.0,0.0,0.0,0.0,0.0,0.0,0.0,0.0,0.0,0.0,0.0,0.0,0.0,0.0,0.0,0.0,0.0,0.0,0.0,0.0,0.0,0.0,0.0,0.0,-1.8502,-1.8595,-1.8602,-1.8518,-1.8394,-1.7608,0.0,0.0,0.0,0.0,0.0,0.0,0.0,0.0,0.0,0.0,0.0,0.0,0.0,0.0,0.0,0.0,0.0,0.0,0.0,0.0,0.0,0.0,0.0,0.0,0.0,0.0,0.0,0.0,0.0,0.0,0.0,0.0,0.0,0.0,0.0,0.0,0.0,0.0,0.0,0.0,0.0,0.0,0.0,0.0,0.0,0.0,0.0,0.0,0.0,0.0,0.0,0.0,0.0,0.0,0.0,0.0,0.0,0.0,0.0,0.0,0.0,0.0,0.0,0.0,0.0,0.0,0.0,0.0,0.0,0.0,0.0,0.0,0.0,0.0,0.0,0.0,0.0,0.0,0.0,0.0,0.0,0.0,0.0,0.0,0.0,0.0,0.0,0.0,0.0,0.0,0.0,0.0,0.0,0.0,0.0,0.0,0.0,0.0,0.0,0.0,0.0,0.0,0.0,0.0,0.0,0.0,0.0,0.0,0.0,-1.9287,-1.8999,-1.8802,-1.8739,-1.8355,-1.7581,-1.6362,0.0,0.0,0.0,0.0,0.0,0.0,0.0,0.0,0.0,0.0,0.0,0.0,0.0,0.0,0.0,0.0,0.0,0.0,0.0,0.0,0.0,0.0,0.0,0.0,0.0,0.0,0.0,0.0,0.0,0.0,0.0,0.0,0.0,0.0,0.0,0.0,0.0,0.0,0.0,0.0,0.0,0.0,0.0,0.0,0.0,0.0,0.0,0.0,0.0,0.0,0.0,0.0,0.0,0.0,0.0,0.0,0.0,0.0,0.0,0.0,0.0,0.0,0.0,0.0,0.0,0.0,0.0,0.0,0.0,0.0,0.0,0.0,0.0,0.0,0.0,0.0,0.0,0.0,0.0,0.0,0.0,0.0,0.0,0.0,0.0,0.0,0.0,0.0,0.0,0.0,0.0,0.0,0.0,0.0,0.0,0.0,0.0,0.0,0.0,0.0,0.0,0.0,0.0,0.0,0.0,0.0,0.0,0.0,-2.044,-1.9862,-1.9535,-1.9402,-1.8727,-1.7856,0.0,0.0,0.0,0.0,0.0,0.0,0.0,0.0,0.0,0.0,0.0,0.0,0.0,0.0,0.0,0.0,0.0,0.0,0.0,0.0,0.0,0.0,0.0,0.0,0.0,0.0,0.0,0.0,0.0,0.0,0.0,0.0,0.0,0.0,0.0,0.0,0.0,0.0,0.0,0.0,0.0,0.0,0.0,0.0,0.0,0.0,0.0,0.0,0.0,0.0,0.0,0.0,0.0,0.0,0.0,0.0,0.0,0.0,0.0,0.0,0.0,0.0,0.0,0.0,0.0,0.0,0.0,0.0,0.0,0.0,0.0,0.0,0.0,0.0,0.0,0.0,0.0,0.0,0.0,0.0,0.0,0.0,0.0,0.0,0.0,0.0,0.0,0.0,0.0,0.0,0.0,0.0,0.0,0.0,0.0,0.0,0.0,0.0,0.0,0.0,0.0,0.0,0.0,0.0,0.0,0.0,0.0,0.0,0.0,-2.1016,-2.1421,-2.134,-2.0806,-2.058,-1.9583,0.0,0.0,0.0,0.0,0.0,0.0,0.0,0.0,0.0,0.0,0.0,0.0,0.0,0.0,0.0,0.0,0.0,0.0,0.0,0.0,0.0,0.0,0.0,0.0,0.0,0.0,0.0,0.0,0.0,0.0,0.0,0.0,0.0,0.0,0.0,0.0,0.0,0.0,0.0,0.0,0.0,0.0,0.0,0.0,0.0,0.0,0.0,0.0,0.0,0.0,0.0,0.0,0.0,0.0,0.0,0.0,0.0,0.0,0.0,0.0,0.0,0.0,0.0,0.0,0.0,0.0,0.0,0.0,0.0,0.0,0.0,0.0,0.0,0.0,0.0,0.0,0.0,0.0,0.0,0.0,0.0,0.0,0.0,0.0,0.0,0.0,0.0,0.0,0.0,0.0,0.0,0.0,0.0,0.0,0.0,0.0,0.0,0.0,0.0,0.0,0.0,0.0,0.0,0.0,0.0,0.0,0.0,0.0,-2.0028,-2.173,-2.2475,-2.2782,-2.2636,-2.1762,-2.052,0.0,0.0,0.0,0.0,0.0,0.0,0.0,0.0,0.0,0.0,0.0,0.0,0.0,0.0,0.0,0.0,0.0,0.0,0.0,0.0,0.0,0.0,0.0,0.0,0.0,0.0,0.0,0.0,0.0,0.0,0.0,0.0,0.0,0.0,0.0,0.0,0.0,0.0,0.0,0.0,0.0,0.0,0.0,0.0,0.0,0.0,0.0,0.0,0.0,0.0,0.0,0.0,0.0,0.0,0.0,0.0,0.0,0.0,0.0,0.0,0.0,0.0,0.0,0.0,0.0,0.0,0.0,0.0,0.0,0.0,0.0,0.0,0.0,0.0,0.0,0.0,0.0,0.0,0.0,0.0,0.0,0.0,0.0,0.0,0.0,0.0,0.0,0.0,0.0,0.0,0.0,0.0,0.0,0.0,0.0,0.0,0.0,0.0,0.0,0.0,0.0,0.0,0.0,0.0,0.0,0.0,0.0,0.0,-2.0271,-2.2442,-2.3156,-2.382,-2.4401,-2.2555,-2.1069,0.0,0.0,0.0,0.0,0.0,0.0,0.0,0.0,0.0,0.0,0.0,0.0,0.0,0.0,0.0,0.0,0.0,0.0,0.0,0.0,0.0,0.0,0.0,0.0,0.0,0.0,0.0,0.0,0.0,0.0,0.0,0.0,0.0,0.0,0.0,0.0,0.0,0.0,0.0,0.0,0.0,0.0,0.0,0.0,0.0,0.0,0.0,0.0,0.0,0.0,0.0,0.0,0.0,0.0,0.0,0.0,0.0,0.0,0.0,0.0,0.0,0.0,0.0,0.0,0.0,0.0,0.0,0.0,0.0,0.0,0.0,0.0,0.0,0.0,0.0,0.0,0.0,0.0,0.0,0.0,0.0,0.0,0.0,0.0,0.0,0.0,0.0,0.0,0.0,0.0,0.0,0.0,0.0,0.0,0.0,0.0,0.0,0.0,0.0,0.0,0.0,0.0,0.0,0.0,0.0,0.0,0.0,0.0,-2.0514,-2.3188,-2.3415,-2.382,-2.45,-2.3561,-2.2118,0.0,0.0,0.0,0.0,0.0,0.0,0.0,0.0,0.0,0.0,0.0,0.0,0.0,0.0,0.0,0.0,0.0,0.0,0.0,0.0,0.0,0.0,0.0,0.0,0.0,0.0,0.0,0.0,0.0,0.0,0.0,0.0,0.0,0.0,0.0,0.0,0.0,0.0,0.0,0.0,0.0,0.0,0.0,0.0,0.0,0.0,0.0,0.0,-1.2924,0.0,0.0,0.0,0.0,0.0,0.0,0.0,0.0,0.0,0.0,0.0,0.0,0.0,0.0,0.0,0.0,0.0,0.0,0.0,0.0,0.0,0.0,0.0,0.0,0.0,0.0,0.0,0.0,0.0,0.0,0.0,0.0,0.0,0.0,0.0,0.0,0.0,0.0,0.0,0.0,0.0,0.0,0.0,0.0,0.0,0.0,0.0,0.0,0.0,0.0,0.0,0.0,0.0,0.0,0.0,0.0,0.0,0.0,0.0,-2.0595,-2.3383,-2.3156,-2.348,-2.4403,-2.3528,-2.2086,0.0,0.0,0.0,0.0,0.0,0.0,0.0,0.0,0.0,0.0,0.0,0.0,0.0,0.0,0.0,0.0,0.0,0.0,0.0,0.0,0.0,0.0,0.0,0.0,0.0,0.0,0.0,0.0,0.0,0.0,0.0,0.0,0.0,0.0,0.0,0.0,0.0,0.0,0.0,0.0,0.0,0.0,0.0,0.0,0.0,0.0,0.0,0.0,0.0,0.0,0.0,0.0,0.0,0.0,0.0,0.0,0.0,0.0,0.0,0.0,0.0,0.0,0.0,0.0,0.0,0.0,0.0,0.0,0.0,0.0,0.0,0.0,0.0,0.0,0.0,0.0,0.0,0.0,0.0,0.0,0.0,0.0,0.0,0.0,0.0,0.0,0.0,0.0,0.0,0.0,0.0,0.0,0.0,0.0,0.0,0.0,0.0,0.0,0.0,0.0,0.0,0.0,0.0,0.0,0.0,0.0,0.0,-1.9186,-2.0546,-2.3172,-2.2718,-2.2977,-2.4128,-2.2912,-2.1472,-1.9965,0.0,0.0,0.0,0.0,0.0,0.0,0.0,0.0,0.0,0.0,0.0,0.0,0.0,0.0,0.0,0.0,0.0,0.0,0.0,0.0,0.0,0.0,0.0,0.0,0.0,0.0,0.0,0.0,0.0,0.0,0.0,0.0,0.0,0.0,0.0,0.0,0.0,0.0,-0.9607,-1.1064,0.0,0.0,0.0,0.0,0.0,0.0,0.0,0.0,-1.3769,0.0,0.0,0.0,0.0,0.0,0.0,0.0,0.0,0.0,0.0,0.0,0.0,0.0,0.0,0.0,0.0,0.0,0.0,0.0,0.0,0.0,0.0,0.0,0.0,0.0,0.0,0.0,0.0,0.0,0.0,0.0,0.0,0.0,0.0,0.0,0.0,0.0,0.0,0.0,0.0,0.0,0.0,0.0,0.0,0.0,0.0,0.0,0.0,0.0,0.0,0.0,0.0,0.0,0.0,0.0,0.0,-1.9169,-1.9186,-2.0287,-2.2507,-2.2458,-2.2507,-2.2718,-2.1876,-2.0684,-1.9155,0.0,0.0,0.0,0.0,0.0,0.0,0.0,0.0,0.0,0.0,0.0,0.0,0.0,0.0,0.0,0.0,0.0,0.0,0.0,0.0,0.0,0.0,0.0,0.0,0.0,0.0,0.0,0.0,0.0,0.0,0.0,0.0,0.0,0.0,0.0,0.0,0.0,0.0,0.0,-1.2212,-1.3006,0.0,0.0,0.0,0.0,0.0,0.0,0.0,0.0,-1.5095,0.0,0.0,0.0,0.0,0.0,0.0,0.0,0.0,0.0,0.0,0.0,0.0,0.0,0.0,0.0,0.0,0.0,0.0,0.0,0.0,0.0,0.0,0.0,0.0,0.0,0.0,0.0,0.0,0.0,0.0,0.0,0.0,0.0,0.0,0.0,0.0,0.0,0.0,0.0,0.0,0.0,0.0,0.0,0.0,0.0,0.0,0.0,0.0,0.0,0.0,0.0,0.0,0.0,0.0,0.0,-1.9121,-1.9186,-2.0239,-2.2297,-2.2037,-2.1843,-2.1827,-2.1084,-1.9946,0.0,0.0,0.0,0.0,0.0,0.0,0.0,0.0,0.0,0.0,0.0,0.0,0.0,0.0,0.0,0.0,0.0,0.0,0.0,0.0,0.0,0.0,0.0,0.0,0.0,0.0,0.0,0.0,0.0,0.0,0.0,0.0,0.0,0.0,0.0,0.0,0.0,0.0,0.0,0.0,-1.2654,-1.3274,-1.4238,0.0,0.0,0.0,0.0,0.0,0.0,-1.5387,-1.5298,0.0,0.0,0.0,0.0,0.0,0.0,0.0,0.0,0.0,0.0,0.0,0.0,0.0,0.0,0.0,0.0,0.0,0.0,0.0,0.0,0.0,0.0,0.0,0.0,0.0,0.0,0.0,0.0,0.0,0.0,0.0,0.0,0.0,0.0,0.0,0.0,0.0,0.0,0.0,0.0,0.0,0.0,0.0,0.0,0.0,0.0,0.0,0.0,0.0,0.0,0.0,0.0,0.0,0.0,0.0,-1.9137,-1.9186,-2.0158,-2.2054,-2.1584,-2.1245,-2.1083,-2.0343,-1.9259,0.0,0.0,0.0,0.0,0.0,0.0,0.0,0.0,0.0,0.0,0.0,0.0,0.0,0.0,0.0,0.0,0.0,0.0,0.0,0.0,0.0,0.0,0.0,0.0,0.0,0.0,0.0,0.0,0.0,0.0,0.0,0.0,0.0,0.0,0.0,0.0,0.0,0.0,0.0,0.0,0.0,-1.3667,-1.4827,-1.5221,0.0,0.0,0.0,0.0,-1.566,-1.5562,0.0,0.0,0.0,0.0,0.0,0.0,0.0,0.0,0.0,0.0,0.0,0.0,0.0,0.0,0.0,0.0,0.0,0.0,0.0,0.0,0.0,0.0,0.0,0.0,0.0,0.0,0.0,0.0,0.0,0.0,0.0,0.0,0.0,0.0,0.0,0.0,0.0,0.0,0.0,0.0,0.0,0.0,0.0,0.0,0.0,0.0,0.0,0.0,0.0,0.0,0.0,0.0,0.0,0.0,0.0,0.0,-1.9137,-1.9186,-1.9931,-2.1341,-2.1342,-2.0986,-2.0343,-1.9558,-1.8676,0.0,0.0,0.0,0.0,0.0,0.0,0.0,0.0,0.0,0.0,0.0,0.0,0.0,0.0,0.0,0.0,0.0,0.0,0.0,0.0,0.0,0.0,0.0,0.0,0.0,0.0,0.0,0.0,0.0,0.0,0.0,0.0,0.0,0.0,0.0,0.0,0.0,0.0,0.0,0.0,0.0,-1.4646,-1.5561,-1.6061,-1.6394,0.0,0.0,-1.6816,-1.6796,-1.6641,0.0,0.0,0.0,0.0,0.0,0.0,0.0,0.0,0.0,0.0,0.0,0.0,0.0,0.0,0.0,0.0,0.0,0.0,0.0,0.0,0.0,0.0,0.0,0.0,0.0,0.0,0.0,0.0,0.0,0.0,0.0,0.0,0.0,0.0,0.0,0.0,0.0,0.0,0.0,0.0,0.0,0.0,0.0,0.0,0.0,0.0,0.0,0.0,0.0,0.0,0.0,0.0,0.0,0.0,0.0,-1.7792,-1.9151,-1.9186,-1.9882,-2.1212,-2.0921,-2.0372,-1.9586,-1.879,-1.7946,0.0,0.0,0.0,0.0,0.0,0.0,0.0,0.0,0.0,0.0,0.0,0.0,0.0,0.0,0.0,0.0,0.0,0.0,0.0,0.0,0.0,0.0,0.0,0.0,0.0,0.0,0.0,0.0,0.0,0.0,0.0,0.0,0.0,0.0,0.0,0.0,0.0,0.0,0.0,0.0,0.0,0.0,-1.6044,-1.6394,0.0,0.0,0.0,-1.6973,-1.6846,0.0,0.0,0.0,0.0,0.0,0.0,0.0,0.0,0.0,0.0,0.0,0.0,0.0,0.0,0.0,0.0,0.0,0.0,0.0,0.0,0.0,0.0,0.0,0.0,0.0,0.0,0.0,0.0,0.0,0.0,0.0,0.0,0.0,0.0,0.0,0.0,0.0,0.0,0.0,0.0,0.0,0.0,0.0,0.0,0.0,0.0,0.0,0.0,0.0,0.0,0.0,0.0,0.0,0.0,0.0,0.0,0.0,-1.8908,-1.9119,-1.9818,-2.097,-2.0564,-1.9935,-1.912,-1.8327,0.0,0.0,0.0,0.0,0.0,0.0,0.0,0.0,0.0,0.0,0.0,0.0,0.0,0.0,0.0,0.0,0.0,0.0,0.0,0.0,0.0,0.0,0.0,0.0,0.0,0.0,0.0,-0.9547,0.0,0.0,0.0,0.0,0.0,0.0,0.0,0.0,0.0,0.0,0.0,0.0,0.0,0.0,-1.5359,-1.6566,-1.6718,-1.6803,0.0,0.0,-1.6876,-1.6718,-1.6599,-1.65,0.0,0.0,0.0,0.0,0.0,0.0,0.0,0.0,0.0,0.0,0.0,0.0,0.0,0.0,0.0,0.0,0.0,0.0,0.0,0.0,0.0,0.0,0.0,0.0,0.0,0.0,0.0,0.0,0.0,0.0,0.0,0.0,0.0,0.0,0.0,0.0,0.0,0.0,0.0,0.0,0.0,0.0,0.0,0.0,0.0,0.0,0.0,0.0,0.0,0.0,0.0,0.0,0.0,0.0,0.0,-1.8151,-1.8859,-1.9574,-2.0337,-2.0337,-1.9905,-1.912,-1.8327,-1.7497,0.0,0.0,0.0,0.0,0.0,0.0,0.0,0.0,0.0,0.0,0.0,0.0,0.0,0.0,0.0,0.0,0.0,0.0,0.0,0.0,0.0,0.0,0.0,0.0,0.0,0.0,0.0,0.0,0.0,0.0,0.0,0.0,0.0,0.0,0.0,0.0,0.0,0.0,0.0,0.0,0.0,-1.6407,-1.7205,-1.7139,-1.7034,0.0,0.0,-1.6697,-1.6697,-1.6599,-1.6479,-1.6414,0.0,0.0,0.0,0.0,0.0,0.0,0.0,0.0,0.0,0.0,0.0,0.0,0.0,0.0,0.0,0.0,0.0,0.0,0.0,0.0,0.0,0.0,0.0,0.0,0.0,0.0,0.0,0.0,0.0,0.0,0.0,0.0,0.0,0.0,0.0,0.0,0.0,0.0,0.0,0.0,0.0,0.0,0.0,0.0,0.0,0.0,0.0,0.0,0.0,0.0,0.0,0.0,0.0,-1.7436,-1.8103,-1.8843,-1.9558,-2.024,-1.9852,-1.945,-1.9104,-1.7966,-1.7135,0.0,0.0,0.0,0.0,0.0,0.0,0.0,0.0,0.0,0.0,0.0,0.0,0.0,0.0,0.0,0.0,0.0,0.0,0.0,0.0,0.0,0.0,0.0,0.0,0.0,0.0,0.0,0.0,-1.0896,-1.1202,-1.133,0.0,0.0,0.0,0.0,0.0,0.0,0.0,0.0,0.0,0.0,-1.643,-1.7071,-1.7385,0.0,0.0,-1.7581,-1.7596,-1.72,-1.7084,-1.6914,-1.6476,-1.6219,0.0,0.0,0.0,0.0,0.0,0.0,0.0,0.0,0.0,0.0,0.0,0.0,0.0,0.0,0.0,0.0,0.0,0.0,0.0,0.0,0.0,0.0,0.0,0.0,0.0,0.0,0.0,0.0,0.0,0.0,0.0,0.0,0.0,0.0,0.0,0.0,0.0,0.0,0.0,0.0,0.0,0.0,0.0,0.0,0.0,0.0,0.0,0.0,0.0,0.0,0.0,0.0,-1.7338,-1.7808,-1.8716,-1.9331,-1.9655,-1.9348,-1.9074,-1.8778,-1.7622,-1.6847,0.0,0.0,0.0,0.0,0.0,0.0,0.0,0.0,0.0,0.0,0.0,0.0,0.0,0.0,0.0,0.0,0.0,0.0,0.0,0.0,0.0,0.0,0.0,0.0,0.0,0.0,0.0,0.0,-1.1705,-1.2006,-1.2321,0.0,0.0,0.0,0.0,0.0,0.0,0.0,0.0,0.0,0.0,-1.6632,-1.6972,-1.748,-1.7753,-1.7527,-1.7976,-1.8183,-1.7712,-1.7591,-1.742,-1.6908,0.0,0.0,0.0,0.0,0.0,0.0,0.0,0.0,0.0,0.0,0.0,0.0,0.0,0.0,0.0,0.0,0.0,0.0,0.0,0.0,0.0,0.0,0.0,0.0,0.0,0.0,0.0,0.0,0.0,0.0,-1.8834,0.0,0.0,0.0,0.0,0.0,0.0,0.0,0.0,0.0,0.0,0.0,0.0,0.0,0.0,0.0,0.0,0.0,0.0,0.0,0.0,0.0,0.0,-1.7111,-1.7144,-1.8502,-1.8861,-1.8216,-1.8829,-1.8845,-1.8151,-1.7378,-1.666,-1.5963,0.0,0.0,0.0,0.0,0.0,0.0,0.0,0.0,0.0,0.0,0.0,0.0,0.0,0.0,0.0,0.0,0.0,0.0,0.0,0.0,0.0,0.0,0.0,0.0,0.0,0.0,-1.2844,-1.2636,-1.267,0.0,0.0,0.0,0.0,0.0,0.0,0.0,0.0,0.0,0.0,-1.6772,-1.711,-1.7023,-1.7406,-1.7702,-1.7552,-1.7909,-1.8216,-1.8191,-1.8084,-1.794,0.0,0.0,0.0,0.0,0.0,0.0,0.0,0.0,0.0,0.0,0.0,0.0,0.0,0.0,0.0,0.0,0.0,0.0,0.0,0.0,0.0,0.0,0.0,0.0,0.0,0.0,0.0,-2.035,-2.036,0.0,0.0,0.0,0.0,0.0,0.0,0.0,0.0,0.0,0.0,0.0,-2.044,-2.1143,0.0,0.0,0.0,0.0,0.0,0.0,0.0,0.0,0.0,0.0,0.0,0.0,-1.7095,-1.716,-1.8502,-1.8829,-1.8135,-1.8813,-1.8845,-1.8119,-1.7429,-1.6693,-1.5915,0.0,0.0,0.0,0.0,0.0,0.0,0.0,0.0,0.0,0.0,0.0,0.0,0.0,0.0,0.0,0.0,0.0,0.0,0.0,0.0,0.0,0.0,0.0,0.0,0.0,-1.3543,0.0,0.0,0.0,0.0,0.0,0.0,0.0,0.0,0.0,0.0,0.0,-1.6553,-1.6959,-1.7115,-1.7136,-1.696,-1.7638,-1.8111,0.0,0.0,0.0,0.0,0.0,0.0,0.0,0.0,0.0,0.0,0.0,0.0,0.0,0.0,-1.5979,-1.5693,-1.5531,-1.5323,-1.4971,0.0,0.0,0.0,0.0,0.0,0.0,0.0,0.0,0.0,0.0,0.0,0.0,0.0,0.0,-2.109,0.0,-2.109,0.0,0.0,0.0,0.0,0.0,0.0,0.0,0.0,-2.1828,-2.1872,-2.1319,-2.2025,-2.1977,0.0,-2.0818,-2.0247,0.0,0.0,0.0,0.0,0.0,0.0,0.0,0.0,-1.7209,-1.7468,-1.8343,-1.8586,-1.8135,-1.857,-1.8473,-1.7763,-1.7079,-1.6585,-1.6322,-1.6068,-1.5767,0.0,0.0,0.0,0.0,0.0,0.0,0.0,0.0,0.0,0.0,0.0,0.0,0.0,0.0,0.0,0.0,0.0,0.0,0.0,0.0,0.0,0.0,0.0,-1.3851,0.0,0.0,0.0,0.0,0.0,0.0,0.0,0.0,0.0,-1.6586,-1.6738,-1.6983,-1.7352,-1.7246,-1.7073,-1.6931,0.0,0.0,0.0,0.0,0.0,0.0,0.0,-1.8858,-1.8425,-1.7977,-1.7564,-1.7213,-1.7002,-1.6876,-1.6887,0.0,0.0,-1.6279,-1.602,-1.5833,-1.5493,-1.5353,-1.5381,-1.5621,-1.5359,-1.5095,0.0,0.0,0.0,0.0,0.0,0.0,0.0,0.0,-2.1197,-2.1222,0.0,-2.1233,0.0,0.0,0.0,0.0,0.0,-2.1125,0.0,0.0,-2.1912,-2.2238,-2.228,-2.2811,-2.3028,-2.2854,-2.1915,-2.1326,-2.1063,-1.9537,0.0,0.0,0.0,0.0,0.0,0.0,-1.7484,-1.8103,-1.8168,-1.8135,-1.8103,-1.8103,-1.7792,-1.714,-1.6415,-1.6338,-1.6982,-1.6354,-1.6286,-1.6901,-1.6182,0.0,0.0,0.0,0.0,0.0,0.0,0.0,0.0,0.0,0.0,0.0,0.0,0.0,0.0,0.0,0.0,0.0,0.0,0.0,0.0,-1.3807,0.0,0.0,0.0,0.0,0.0,0.0,0.0,0.0,0.0,0.0,-1.6783,-1.7183,-1.7488,-1.7391,0.0,0.0,0.0,0.0,-1.8382,-1.8228,-1.9095,-1.9761,-1.9761,-1.9529,-1.9334,-1.9308,0.0,0.0,-1.7589,-1.7456,-1.7456,-1.743,-1.7798,-1.7802,-1.6864,-1.6558,-1.6412,-1.6366,-1.6305,-1.6311,-1.6308,-1.6126,-1.5952,-2.3618,0.0,0.0,0.0,0.0,-2.256,-2.281,-2.281,-2.281,-2.281,-2.281,-2.281,0.0,0.0,0.0,0.0,0.0,0.0,-2.2749,-2.2794,-2.3014,-2.3116,-2.3052,-2.32,-2.318,-2.301,-2.2604,-2.2293,-2.2061,-2.0958,-1.999,-1.9147,0.0,0.0,0.0,0.0,-1.8713,-1.8861,-1.8894,-1.8648,-1.8185,-1.8172,-1.786,-1.7178,-1.6454,-1.6166,-1.6305,-1.6111,-1.6059,-1.6193,-1.6477,0.0,0.0,0.0,0.0,0.0,0.0,0.0,0.0,0.0,0.0,0.0,0.0,0.0,0.0,0.0,0.0,0.0,0.0,0.0,-1.4301,-1.3909,-1.387,0.0,0.0,0.0,0.0,0.0,0.0,0.0,0.0,0.0,-1.7424,-1.7551,-1.7618,0.0,0.0,-1.7566,-1.6982,-1.8081,-1.8788,-1.829,-1.877,0.0,-1.9221,-1.8772,-1.8351,-1.8265,-1.8219,-1.8194,-1.8248,-1.8268,-1.8257,-1.8245,-1.8374,-1.8347,-1.809,-1.7523,-1.7022,-1.664,-1.6523,-1.6598,-1.6839,-1.6593,-1.6348,-2.5252,-2.3867,-2.3764,-2.3759,-2.3812,-2.423,-2.4254,-2.3969,-2.3969,-2.3791,-2.3505,-2.3505,-2.3482,-2.343,-2.3448,0.0,0.0,0.0,-2.3922,-2.3963,-2.3975,-2.3945,-2.3857,-2.3496,-2.3241,-2.3144,-2.2889,-2.2699,-2.2501,-2.1881,-2.1217,-2.0467,0.0,0.0,-1.9358,-1.93,-1.943,-1.9691,-1.9416,-1.9072,-1.8675,-1.8121,-1.766,-1.7248,-1.6807,-1.6555,-1.6487,-1.6471,-1.6447,-1.6382,-1.6744,-1.6661,0.0,0.0,0.0,0.0,0.0,0.0,0.0,0.0,0.0,0.0,0.0,-1.475,-1.4861,0.0,0.0,0.0,-1.4661,-1.4238,-1.3749,-1.383,0.0,0.0,0.0,0.0,0.0,0.0,0.0,-1.7396,-1.7678,-1.7868,-1.7767,-1.7672,-1.7615,-1.7752,-1.7917,-1.7848,-1.7368,0.0,-1.8648,-1.801,-1.8366,-1.8682,-1.8682,-1.8309,-1.7941,-1.775,-1.7738,-1.7812,-1.7993,-1.8001,-1.7949,-1.7998,-1.8139,-1.821,-1.8022,-1.7713,-1.7563,-1.7424,-1.7401,-1.7491,-1.7713,-1.7412,-1.713,-2.6451,-2.6387,-2.6255,-2.6121,-2.5989,-2.5856,-2.5438,-2.4801,-2.4801,-2.4361,-2.3684,-2.3612,-2.3594,-2.3594,-2.3666,0.0,-2.3719,-2.445,-2.4747,-2.4704,-2.4765,-2.4699,-2.4562,-2.3779,-2.3318,-2.3187,-2.2944,-2.2712,-2.2528,-2.2363,-2.2206,-2.1962,-2.0464,-1.9668,-1.9586,-1.9602,-1.993,-2.057,-1.9881,-1.9487,-1.9405,-1.8171,-1.7478,-1.7416,-1.74,-1.7334,-1.7211,-1.7199,-1.7174,-1.7095,-1.6985,-1.6827,-1.6594,0.0,0.0,0.0,0.0,0.0,0.0,0.0,0.0,0.0,0.0,0.0,0.0,0.0,0.0,0.0,-1.4372,0.0,-1.2862,-1.3831,0.0,0.0,0.0,-1.6724,-1.7066,-1.727,-1.7523,-1.7933,0.0,0.0,-1.7842,-1.7556,-1.756,-1.8113,-1.8039,-1.7895,-1.7821,-1.8157,-1.82,-1.7631,-1.7882,-1.814,-1.8176,-1.7958,-1.7743,-1.758,-1.746,-1.7363,-1.7325,-1.7227,-1.7093,-1.7153,-1.7495,-1.7684,-1.7164,-1.7507,-1.7944,-1.8372,-1.8413,-1.8398,-1.8325,-1.8077,-1.7829,-2.8197,-2.8173,-2.81,-2.7302,-2.6075,-2.6002,-2.5839,-2.5696,-2.5593,-2.5413,-2.5217,-2.4664,-2.4415,-2.4444,-2.4998,-2.5253,-2.5253,-2.5405,-2.5456,-2.5425,-2.54,-2.5116,-2.458,-2.4274,-2.3836,-2.3288,-2.3003,-2.2786,-2.2646,-2.2474,-2.2293,-2.2135,-2.1649,-2.138,-2.1311,-2.1253,-2.1323,-2.1488,-2.0761,-2.0174,-1.9724,-1.9414,-1.8997,-1.8381,-1.8315,-1.7972,-1.7306,-1.7236,-1.7174,-1.7095,-1.7023,-1.685,-1.6623,-1.6373,0.0,0.0,0.0,0.0,0.0,0.0,0.0,0.0,0.0,-1.5257,-1.5314,0.0,-1.5347,0.0,-1.5733,-1.562,-1.5277,-1.5508,0.0,0.0,-1.6628,-1.7158,-1.7239,-1.7686,-1.7918,-1.7774,-1.7632,-1.7509,-1.7399,-1.7212,-1.7315,-1.7883,-1.803,-1.7844,-1.7355,-1.7997,-1.8341,-1.7782,-1.7654,-1.7698,-1.7765,-1.7254,-1.7007,-1.7316,-1.7206,-1.7214,-1.7593,-1.7654,-1.7618,-1.7605,-1.7703,-1.7739,-1.7581,-1.7727,-1.7824,-1.7946,-1.766,-1.7384,-1.7371,-1.7332,-1.7245,-2.8935,-2.89,-2.8846,-2.8245,-2.7326,-2.7192,-2.6914,-2.656,-2.6462,-2.6228,-2.5918,-2.5506,-2.5321,-2.5344,-2.572,-2.5874,-2.5909,-2.6116,-2.6211,-2.6185,-2.6145,-2.5901,-2.5508,-2.4736,-2.4176,-2.3777,-2.319,-2.2855,-2.2721,-2.2582,-2.2415,-2.2321,-2.226,-2.2172,-2.2101,-2.1972,-2.1882,-2.1882,-2.1199,-2.0677,-2.0361,-2.0053,-1.9671,-1.9261,-1.9189,-1.8776,-1.7918,-1.779,-1.7575,-1.714,-1.6953,-1.6782,-1.657,-1.6718,-1.6554,0.0,0.0,0.0,0.0,0.0,0.0,0.0,0.0,0.0,0.0,0.0,-1.5976,-1.6109,-1.6288,-1.6322,-1.6127,-1.6359,-1.661,-1.6752,-1.7351,-1.7697,-1.762,-1.7962,-1.8063,-1.7754,-1.7584,-1.7447,-1.7295,-1.7191,-1.7211,-1.7557,-1.7652,-1.7639,-1.7562,-1.798,-1.8071,-1.7505,-1.7315,-1.7259,-1.735,-1.6995,-1.6794,-1.7042,-1.692,-1.6876,-1.7161,-1.7154,-1.7074,-1.7087,-1.7294,-1.7355,-1.7146,-1.7306,-1.7392,-1.7113,-1.6866,-1.6824,-1.7182,-1.7228,-1.7118,-2.9085,-2.9028,-2.9028,-2.8975,-2.8905,-2.8687,-2.8146,-2.7476,-2.7396,-2.6939,-2.6237,-2.6345,-2.6327,-2.6255,-2.629,-2.6294,-2.633,-2.6832,-2.7027,-2.6959,-2.6941,-2.6865,-2.6641,-2.5315,-2.464,-2.4499,-2.3527,-2.302,-2.2942,-2.271,-2.2552,-2.2501,-2.2501,-2.2474,-2.2405,-2.2175,-2.2041,-2.2027,-2.1471,-2.1155,-2.1169,-2.0532,-2.0159,-2.0075,-2.0062,-1.9629,-1.8793,-1.8675,-1.8253,-1.7416,-1.7116,-1.69,-1.677,-1.7138,-1.7287,0.0,-1.759,0.0,0.0,0.0,0.0,0.0,0.0,0.0,0.0,-1.6633,-1.6793,-1.6554,-1.6605,-1.6578,-1.6391,-1.6907,-1.7293,-1.7358,-1.7935,-1.8246,-1.8082,-1.8149,-1.8083,-1.776,-1.757,-1.7447,-1.737,-1.7253,-1.7157,-1.7196,-1.723,-1.7395,-1.7861,-1.7878,-1.7622,-1.7109,-1.7002,-1.7088,-1.7075,-1.7036,-1.7036,-1.6931,-1.6786,-1.6552,-1.6615,-1.6476,-1.6321,-1.6371,-1.6752,-1.6831,-1.6339,-1.6673,-1.6774,-1.6426,-1.633,-1.65,-1.7107,-1.7195,-1.7195,-2.9167,-2.9175,-2.9175,-2.9123,-2.9044,-2.894,-2.8713,-2.8357,-2.8288,-2.7787,-2.7047,-2.7669,-2.7597,-2.7052,-2.7656,-2.7909,-2.787,-2.7937,-2.7881,-2.777,-2.777,-2.7419,-2.679,-2.6431,-2.5954,-2.5349,-2.4353,-2.3828,-2.3748,-2.2982,-2.2552,-2.2501,-2.2501,-2.2501,-2.2457,0.0,0.0,0.0,-2.2102,-2.2065,-2.2035,-2.193,-2.1559,-2.0981,-2.0827,0.0,-1.9616,-1.9359,-1.9091,-1.881,-1.8543,0.0,0.0,0.0,0.0,0.0,0.0,0.0,0.0,0.0,0.0,0.0,-1.7697,-1.7525,-1.683,-1.7167,-1.7389,-1.7228,-1.7673,-1.7932,-1.7893,-1.7977,-1.8132,-1.8238,-1.8389,-1.8392,-1.826,-1.8228,-1.8123,-1.7882,-1.7597,-1.737,-1.7274,-1.7073,-1.7002,-1.7065,-1.7136,-1.728,-1.7508,-1.745,-1.7342,-1.73,-1.7337,-1.7385,-1.7393,-1.7357,-1.7287,-1.717,-1.7023,-1.6884,-1.6833,-1.6791,-1.6748,-1.6761,-1.6837,-1.6858,-1.6624,-1.669,-1.6697,-1.6482,-1.6436,-1.6445,-1.6458,-1.6374,-1.6215,-2.9919,0.0,-2.9424,-2.9222,0.0,-2.9085,-2.8929,-2.8749,-2.8632,-2.8364,-2.7977,-2.8381,-2.8339,-2.7984,-2.8343,-2.8489,-2.8445,-2.8277,-2.8154,-2.8099,-2.8025,-2.7787,-2.738,-2.6949,-2.6551,-2.6113,-2.5177,-2.4702,-2.4617,-2.4116,-2.3874,-2.3812,-2.3457,-2.3227,-2.3186,-2.2658,-2.238,-2.2313,-2.2313,-2.2313,-2.2313,-2.2313,-2.211,-2.1769,-2.1642,0.0,0.0,0.0,0.0,0.0,0.0,0.0,0.0,0.0,0.0,-1.8651,-1.8891,-1.9039,-1.899,-1.8838,-1.8685,-1.8597,-1.8682,-1.8491,-1.7888,-1.8048,-1.8153,-1.8059,-1.8307,-1.8503,-1.8489,-1.8489,-1.8548,-1.8625,-1.8644,-1.8567,-1.8431,-1.8366,-1.8222,-1.7942,-1.7774,-1.7577,-1.7352,-1.7261,-1.722,-1.7227,-1.7289,-1.7385,-1.744,-1.7385,-1.7385,-1.7515,-1.7638,-1.7672,-1.7625,-1.7625,-1.7577,-1.7399,-1.722,-1.7094,-1.7065,-1.696,-1.691,-1.691,-1.691,-1.6867,-1.674,-1.6697,-1.6654,-1.6543,-1.6513,-1.6479,-1.6349,-1.6262,-1.6132,-3.0913,-3.0785,-3.0068,-2.9715,-2.9625,-2.9576,-2.9382,-2.9088,0.0,0.0,0.0,-2.8706,-2.8761,-2.8785,-2.8687,-2.8625,-2.8587,-2.8367,-2.825,-2.8196,-2.8081,-2.8039,-2.7975,-2.7341,-2.7012,-2.6922,-2.6036,-2.5585,-2.5512,-2.5324,-2.5209,-2.5143,-2.4514,-2.4112,-2.3857,-2.2932,-2.2408,-2.2338,-2.231,-2.2313,-2.2313,-2.2313,-2.2313,-2.2313,-2.2194,-2.1838,-2.1195,-2.092,-2.0391,-1.9607,-1.9251,-1.9042,-1.8905,-1.918,-1.9375,-1.9456,-1.9844,-2.0096,-2.0133,-1.9907,-1.9744,-1.969,-1.9468,-1.9209,-1.8912,-1.886,-1.8836,-1.8788,-1.8769,-1.8788,-1.8807,-1.8807,-1.8831,-1.8879,-1.886,-1.8798,-1.8615,-1.8517,-1.838,-1.8083,-1.7963,-1.7828,-1.7611,-1.755,-1.7529,-1.7537,-1.755,-1.7591,-1.7611,-1.7598,-1.7632,-1.7767,-1.7868,-1.7902,-1.7821,-1.7862,-1.7828,-1.7611,-1.7427,-1.7282,-1.724,-1.7128,-1.7023,-1.7044,-1.7002,-1.6952,-1.6825,-1.6769,-1.6697,-1.6556,-1.6522,-1.6513,-1.6513,-1.647,-1.6328,-3.1819,-3.1798,-3.1613,-3.147,-3.1346,-3.1277,-3.0753,-2.9887,-2.9114,-2.8785,-2.8785,-2.8785,-2.8785,-2.8816,-2.8773,-2.8712,-2.86,-2.8562,-2.8419,-2.8196,-2.8232,-2.8191,-2.8099,-2.796,-2.7925,-2.7826,-2.6901,-2.6416,-2.6332,-2.5614,-2.5209,-2.5227,-2.5091,-2.4656,-2.3874,-2.3027,-2.2542,-2.2474,-2.2366,-2.2313,-2.2313,-2.2313,-2.2313,-2.2296,-2.2132,-2.1979,-2.1848,-2.1587,-2.1315,-2.1017,-2.0735,-2.0526,-2.0395,-2.0308,-2.0304,-2.0321,-2.0396,-2.0392,-2.027,-2.0133,-1.9922,-1.9647,-1.9468,-1.9339,-1.9246,-1.912,-1.9064,-1.9059,-1.9026,-1.9082,-1.9209,-1.9209,-1.9191,-1.9209,-1.9134,-1.9021,-1.8936,-1.8673,-1.8478,-1.84,-1.8155,-1.7955,-1.7848,-1.7747,-1.7686,-1.7699,-1.7781,-1.7889,-1.8009,-1.7949,-1.7942,-1.8083,-1.8143,-1.8129,-1.8089,-1.8036,-1.7975,-1.7848,-1.772,-1.7563,-1.7468,-1.7406,-1.7365,-1.7393,-1.7316,-1.7246,-1.7128,-1.6968,-1.6833,-1.6697,-1.6577,-1.65,-1.6513,-1.6479,-1.6414,-3.2785,-3.2639,-3.2163,-3.1879,-3.1755,-3.1644,-3.1328,-3.0852,-3.0484,-2.9752,-2.8894,-2.8858,-2.887,-2.8912,-2.887,-2.8822,-2.8743,-2.865,-2.8536,-2.8406,-2.8384,-2.8286,-2.8205,-2.8205,-2.8182,-2.8063,-2.766,-2.7377,-2.7317,-2.6926,-2.6697,-2.6637,-2.6166,-2.5428,-2.4496,-2.3712,-2.3237,-2.3098,-2.2609,-2.2366,-2.2349,-2.2307,-2.2313,-2.2313,-2.218,-2.2075,-2.1998,-2.1783,-2.1573,-2.1356,-2.1071,-2.0877,-2.0811,-2.0694,-2.0627,-2.0662,-2.0644,-2.0544,-2.0424,-2.0168,-1.9955,-1.9723,-1.9614,-1.9545,-1.9523,-1.9343,-1.925,-1.925,-1.9265,-1.9284,-1.9339,-1.9358,-1.9339,-1.9358,-1.9302,-1.9209,-1.9093,-1.8927,-1.8736,-1.8542,-1.8366,-1.8228,-1.8083,-1.8003,-1.7983,-1.7983,-1.8043,-1.8109,-1.8248,-1.8175,-1.8169,-1.822,-1.8254,-1.824,-1.824,-1.8201,-1.8121,-1.7975,-1.7868,-1.776,-1.7645,-1.755,-1.7496,-1.7496,-1.744,-1.735,-1.7233,-1.7044,-1.6867,-1.674,-1.6599,-1.6534,-1.65,-1.6479,-1.6405,-3.3684,-3.3513,-3.2831,-3.2441,-3.2298,-3.1989,-3.1844,-3.1777,-3.1634,-3.0819,-2.9592,-2.9312,-2.9239,-2.9262,-2.9032,-2.8917,-2.8881,-2.8749,-2.8637,-2.8587,-2.8484,-2.8393,-2.8327,-2.8313,-2.8277,-2.8154,-2.8126,-2.8102,-2.8042,-2.8014,-2.7971,-2.7818,-2.6999,-2.6123,-2.5328,-2.4569,-2.405,-2.3704,-2.3072,-2.2658,-2.2419,-2.2366,-2.2324,-2.2324,-2.224,-2.2168,-2.2044,-2.1842,-2.1632,-2.1449,-2.1166,-2.0974,-2.0942,-2.0843,-2.0809,-2.0827,-2.0778,-2.0661,-2.0477,-2.02,-1.9955,-1.9797,-1.9744,-1.9726,-1.969,-1.9545,-1.9468,-1.9468,-1.9468,-1.9453,-1.9472,-1.9468,-1.9468,-1.9468,-1.945,-1.9376,-1.9232,-1.9172,-1.8988,-1.8678,-1.8562,-1.8459,-1.8321,-1.8242,-1.8208,-1.8208,-1.8248,-1.8288,-1.8333,-1.8338,-1.8338,-1.8338,-1.8338,-1.8358,-1.8338,-1.8305,-1.8226,-1.8088,-1.8016,-1.7929,-1.7828,-1.7713,-1.7639,-1.7618,-1.7488,-1.7399,-1.7282,-1.7086,-1.6918,-1.6791,-1.6705,-1.662,-1.6577,-1.6457,-1.6362,-3.451,-3.4394,-3.4177,-3.4057,-3.3741,-3.3019,-3.2687,-3.2594,-3.1935,-3.1535,-3.129,-3.0512,-3.0159,-2.9989,-2.9342,-2.9025,-2.8942,-2.8881,-2.8822,-2.8648,-2.8587,-2.8528,-2.8483,-2.8434,-2.8371,-2.8327,-2.8294,-2.831,-2.8241,-2.8096,-2.7989,-2.78,-2.7038,-2.6535,-2.6292,-2.552,-2.4764,-2.4072,-2.3917,-2.3419,-2.2552,-2.2419,-2.2394,-2.2394,-2.2285,-2.2183,-2.2183,-2.1932,-2.1723,-2.1573,-2.1371,-2.1215,-2.1103,-2.1086,-2.1006,-2.0909,-2.0893,-2.0745,-2.044,-2.0202,-2.001,-1.9833,-1.9797,-1.9777,-1.9726,-1.969,-1.9672,-1.9672,-1.9687,-1.9654,-1.9672,-1.9687,-1.9669,-1.9636,-1.9614,-1.9574,-1.952,-1.9284,-1.9097,-1.9078,-1.8812,-1.8615,-1.8484,-1.8372,-1.8299,-1.8299,-1.8386,-1.8439,-1.8459,-1.8459,-1.8459,-1.8478,-1.8478,-1.8478,-1.8459,-1.8372,-1.8305,-1.8279,-1.8214,-1.8129,-1.8069,-1.8016,-1.7962,-1.7841,-1.77,-1.7516,-1.7413,-1.724,-1.7002,-1.6947,-1.6897,-1.6825,-1.6697,-1.6534,-1.6383,-3.4655,-3.4495,-3.442,-3.4305,-3.4117,-3.3802,-3.3684,-3.3646,-3.3361,-3.317,-3.3012,-3.2163,-3.1489,-3.095,-3.0582,-3.0143,-2.9715,-3.0106,-3.0021,-2.9551,-2.9926,-3.0054,-2.9958,-2.9931,-2.9891,-2.9795,-2.9753,-2.9697,-2.9558,-2.9052,-2.8749,-2.8617,-2.7869,-2.7377,-2.7203,-2.649,-2.589,-2.5506,-2.4605,-2.3898,-2.3438,-2.2832,-2.2501,-2.2477,-2.2422,-2.2338,-2.2237,-2.2075,-2.1913,-2.1739,-2.1573,-2.1419,-2.1294,-2.123,-2.1167,-2.1071,-2.0925,-2.0728,-2.0475,-2.0289,-2.015,-1.9977,-1.994,-1.9902,-1.9884,-1.9866,-1.9884,-1.9866,-1.9777,-1.9723,-1.9723,-1.9723,-1.9723,-1.9708,-1.9672,-1.9632,-1.9593,-1.9483,-1.9354,-1.9139,-1.9003,-1.8855,-1.8702,-1.8586,-1.8509,-1.8464,-1.8478,-1.8498,-1.8498,-1.8498,-1.8498,-1.8498,-1.8498,-1.8498,-1.8498,-1.8464,-1.8392,-1.8305,-1.8279,-1.8254,-1.8208,-1.8169,-1.8095,-1.8022,-1.7835,-1.7693,-1.7611,-1.7365,-1.7115,-1.7094,-1.6981,-1.6888,-1.6833,-1.6697,-1.6534,-3.4883,-3.4525,-3.4439,-3.434,-3.4257,-3.4305,-3.4328,-3.4316,-3.4305,-3.4269,-3.4147,-3.3432,-3.2791,-3.2183,-3.1654,-3.1066,-3.065,-3.1078,-3.1016,-3.0527,-3.0989,-3.1149,-3.1066,-3.1039,-3.0957,-3.0878,-3.08,-3.0758,-3.0654,-3.0087,-2.9708,-2.9558,-2.8806,-2.833,-2.8137,-2.7452,-2.6887,-2.6525,-2.5437,-2.4695,-2.4147,-2.3449,-2.2909,-2.2586,-2.2528,-2.2446,-2.2366,-2.2245,-2.2101,-2.1899,-2.1753,-2.1617,-2.1479,-2.1387,-2.1294,-2.1199,-2.0942,-2.0745,-2.0595,-2.0443,-2.0321,-2.0202,-2.0113,-2.0076,-2.0056,-2.019,-2.0263,-2.0291,-2.0307,-2.0294,-1.981,-1.9927,-1.9954,-1.9771,-1.9726,-1.9672,-1.9632,-1.9596,-1.9501,-1.9269,-1.9157,-1.9026,-1.8841,-1.8741,-1.8678,-1.8595,-1.8556,-1.8517,-1.8498,-1.8498,-1.8498,-1.8498,-1.8498,-1.8498,-1.8498,-1.8478,-1.8445,-1.8411,-1.8372,-1.8333,-1.8268,-1.8248,-1.8208,-1.8115,-1.8003,-1.7842,-1.7686,-1.7447,-1.7282,-1.724,-1.7149,-1.7002,-1.7002,-1.6867,-1.6718,-3.5402,-3.4544,-3.442,-3.4404,-3.4393,-3.4404,-3.4404,-3.4416,-3.4347,-3.4305,-3.4269,-3.4012,-3.3906,-3.369,-3.2218,-3.1415,-3.1347,-3.1476,-3.1438,-3.1278,-3.1338,-3.13,-3.1193,-3.1146,-3.112,-3.1202,-3.1169,-3.1044,-3.0934,-3.0761,-3.0715,-3.0575,-2.9765,-2.9301,-2.9073,-2.8358,-2.7561,-2.6896,-2.6613,-2.5906,-2.4532,-2.4278,-2.3667,-2.2863,-2.2582,-2.2497,-2.2487,-2.2419,-2.2304,-2.2096,-2.1955,-2.1825,-2.1678,-2.1494,-2.134,-2.1199,-2.0957,-2.0794,-2.0761,-2.0611,-2.0475,-2.0405,-2.0339,-2.025,-2.0273,-2.066,-2.0944,-2.098,-2.1512,-2.139,-2.04,-2.0582,-2.0538,-1.9945,-1.9789,-1.9735,-1.969,-1.9632,-1.9593,-1.9505,-1.9288,-1.9064,-1.886,-1.8784,-1.876,-1.8697,-1.8692,-1.8653,-1.8537,-1.8517,-1.8498,-1.8498,-1.8498,-1.8498,-1.8498,-1.8498,-1.8498,-1.8478,-1.8445,-1.8464,-1.8445,-1.8372,-1.8288,-1.8189,-1.8069,-1.7909,-1.7747,-1.7625,-1.7529,-1.7447,-1.7303,-1.7212,-1.717,-1.7002,-1.6876,-3.5402,-3.4495,-3.4439,-3.445,-3.4517,-3.4484,-3.4506,-3.458,-3.442,-3.4363,-3.4316,-3.4111,-3.3998,-3.3948,-3.3267,-3.2651,-3.2228,-3.2706,-3.2656,-3.2245,-3.2648,-3.2878,-3.2811,-3.2766,-3.273,-3.2661,-3.2613,-3.2513,-3.2342,-3.1848,-3.1567,-3.1394,-3.07,-3.003,-2.9479,-2.9115,-2.8524,-2.7662,-2.7147,-2.6539,-2.5831,-2.4909,-2.4146,-2.3793,-2.3098,-2.2738,-2.2703,-2.2636,-2.2511,-2.2374,-2.2217,-2.2063,-2.184,-2.1632,-2.145,-2.1278,-2.1167,-2.1055,-2.0877,-2.0811,-2.0712,-2.0594,-2.056,-2.0727,-2.0998,-2.1272,-2.1549,-2.2006,-2.2586,-2.249,-2.1845,-2.1561,-2.122,-2.0628,-2.0389,-2.0139,-1.9809,-1.9672,-1.965,-1.9593,-1.9413,-1.9228,-1.9049,-1.8993,-1.8917,-1.8798,-1.8774,-1.8736,-1.8673,-1.8634,-1.8595,-1.8517,-1.8498,-1.8498,-1.8498,-1.8498,-1.8498,-1.8498,-1.8478,-1.8478,-1.8464,-1.8445,-1.838,-1.8274,-1.8155,-1.8109,-1.7969,-1.7828,-1.7733,-1.7611,-1.7502,-1.7344,-1.7337,-1.7149,-1.7023,-3.5227,-3.4631,-3.4539,-3.4572,-3.4674,-3.4604,-3.4615,-3.4695,-3.4506,-3.4427,-3.4351,-3.4124,-3.3998,-3.3985,-3.3855,-3.3532,-3.306,-3.3568,-3.35,-3.3073,-3.355,-3.3908,-3.4037,-3.384,-3.3817,-3.3939,-3.3672,-3.3481,-3.3357,-3.2806,-3.2524,-3.2455,-3.1668,-3.0804,-3.0036,-2.9653,-2.905,-2.819,-2.7571,-2.7188,-2.6765,-2.5791,-2.4933,-2.4423,-2.3751,-2.3222,-2.2898,-2.2829,-2.2725,-2.2582,-2.2432,-2.2237,-2.1928,-2.1766,-2.1619,-2.1465,-2.1419,-2.1309,-2.1103,-2.1023,-2.0974,-2.0891,-2.1047,-2.1328,-2.1701,-2.2088,-2.252,-2.3002,-2.3499,-2.3627,-2.3219,-2.279,-2.2097,-2.1182,-2.0798,-2.0438,-1.9813,-1.9723,-1.9654,-1.9611,-1.952,-1.9376,-1.9232,-1.9195,-1.9101,-1.8931,-1.8898,-1.8855,-1.8755,-1.8716,-1.8711,-1.8581,-1.8576,-1.8556,-1.8517,-1.8498,-1.8498,-1.8498,-1.8498,-1.8498,-1.8498,-1.8498,-1.8445,-1.8352,-1.8299,-1.8274,-1.8175,-1.8049,-1.7929,-1.7808,-1.7611,-1.7434,-1.7365,-1.7295,-1.7149,-3.4893,-3.4929,-3.4826,-3.4967,-3.5015,-3.4929,-3.4814,-3.4781,-3.4569,-3.4473,-3.4381,-3.4124,-3.4023,-3.3985,-3.3868,-3.3784,-3.3728,-3.3784,-3.3825,-3.3825,-3.3862,-3.4321,-3.4935,-3.4325,-3.4261,-3.4723,-3.4031,-3.3623,-3.3559,-3.3472,-3.3425,-3.3295,-3.2589,-3.1729,-3.0826,-3.0022,-2.915,-2.8441,-2.8146,-2.774,-2.7006,-2.6779,-2.6042,-2.4842,-2.4499,-2.3975,-2.3107,-2.3025,-2.2906,-2.2729,-2.2582,-2.2318,-2.2001,-2.1913,-2.1825,-2.1708,-2.1634,-2.1542,-2.1386,-2.1278,-2.1215,-2.1231,-2.1662,-2.1979,-2.2213,-2.3056,-2.3702,-2.3868,-2.4241,-2.4496,-2.4343,-2.4061,-2.3143,-2.1402,-2.0941,-2.0543,-1.9917,-1.9708,-1.9672,-1.9614,-1.9593,-1.9538,-1.9446,-1.9376,-1.9302,-1.9157,-1.9087,-1.9026,-1.8874,-1.8836,-1.8779,-1.8711,-1.8653,-1.8615,-1.8556,-1.8498,-1.8498,-1.8498,-1.8498,-1.8498,-1.8498,-1.8498,-1.8464,-1.8392,-1.8372,-1.8333,-1.8307,-1.8169,-1.8055,-1.7922,-1.772,-1.7516,-1.7434,-1.7344,-1.7199,-3.6558,-3.6526,-3.6526,-3.6547,-3.6493,-3.5914,-3.5618,-3.5503,-3.4897,-3.4487,-3.4374,-3.4221,-3.4111,-3.4049,-3.3921,-3.3873,-3.3855,-3.3852,-3.41,-3.4546,-3.4619,-3.5059,-3.5701,-3.5628,-3.5274,-3.492,-3.4654,-3.4173,-3.371,-3.3623,-3.3563,-3.3437,-3.3226,-3.2567,-3.1596,-3.0797,-2.9954,-2.908,-2.8481,-2.8053,-2.774,-2.7237,-2.6702,-2.6177,-2.5221,-2.4443,-2.4102,-2.3437,-2.3008,-2.2842,-2.2712,-2.2497,-2.2217,-2.2135,-2.2015,-2.1871,-2.1766,-2.1724,-2.1619,-2.1527,-2.1434,-2.1486,-2.1973,-2.2488,-2.2901,-2.3697,-2.4337,-2.4604,-2.4816,-2.4806,-2.4584,-2.438,-2.3509,-2.1846,-2.1517,-2.0887,-1.9917,-1.9723,-1.969,-1.9672,-1.9687,-1.9632,-1.9556,-1.9538,-1.945,-1.9354,-1.9302,-1.9228,-1.9064,-1.9007,-1.8908,-1.875,-1.8711,-1.8673,-1.8576,-1.8517,-1.8498,-1.8498,-1.8498,-1.8498,-1.8498,-1.8498,-1.8464,-1.8431,-1.8411,-1.8406,-1.8361,-1.8268,-1.8155,-1.8016,-1.7814,-1.7652,-1.7529,-1.7385,-1.722,-3.7377,-3.7345,-3.7345,-3.7375,-3.7349,-3.6759,-3.6512,-3.6367,-3.5488,-3.5041,-3.4903,-3.4435,-3.4216,-3.4124,-3.4042,-3.3959,-3.397,-3.4189,-3.4788,-3.5368,-3.511,-3.561,-3.6578,-3.6743,-3.6288,-3.5549,-3.542,-3.4956,-3.4146,-3.4095,-3.3939,-3.3632,-3.3549,-3.3049,-3.2119,-3.1535,-3.0729,-2.9565,-2.8947,-2.854,-2.8174,-2.771,-2.7299,-2.6907,-2.605,-2.5258,-2.4651,-2.3954,-2.3413,-2.304,-2.2803,-2.2609,-2.2408,-2.2335,-2.2234,-2.2092,-2.2003,-2.1961,-2.1827,-2.1753,-2.1811,-2.1998,-2.2589,-2.3242,-2.3839,-2.4499,-2.4997,-2.5205,-2.5123,-2.493,-2.4706,-2.4482,-2.3774,-2.2594,-2.1998,-2.1154,-2.0037,-1.9723,-1.9723,-1.9705,-1.9723,-1.9687,-1.965,-1.9632,-1.9578,-1.9501,-1.9483,-1.9413,-1.9265,-1.9195,-1.904,-1.8889,-1.8793,-1.8716,-1.8615,-1.8537,-1.8498,-1.8498,-1.8498,-1.8498,-1.8498,-1.8498,-1.8478,-1.8478,-1.8464,-1.8445,-1.842,-1.8282,-1.8149,-1.8009,-1.7889,-1.7645,-1.7447,-1.7357,-1.7233,-3.7542,-3.7533,-3.7542,-3.7656,-3.7656,-3.7504,-3.7473,-3.7289,-3.6419,-3.5975,-3.5754,-3.51,-3.4516,-3.4339,-3.4371,-3.4309,-3.4227,-3.4842,-3.5678,-3.6118,-3.5887,-3.6185,-3.7401,-3.7566,-3.711,-3.645,-3.6358,-3.583,-3.4866,-3.4848,-3.4559,-3.3758,-3.3597,-3.3221,-3.2466,-3.2181,-3.1304,-3.0094,-2.9603,-2.9029,-2.837,-2.8178,-2.7839,-2.7157,-2.6902,-2.6221,-2.5173,-2.4589,-2.3982,-2.3187,-2.2855,-2.2672,-2.2555,-2.2515,-2.2446,-2.2307,-2.231,-2.2178,-2.2044,-2.2078,-2.2285,-2.2758,-2.3472,-2.4115,-2.4686,-2.5181,-2.5524,-2.5527,-2.5317,-2.5064,-2.4862,-2.4661,-2.409,-2.3202,-2.2191,-2.1095,-1.9969,-1.9726,-1.9741,-1.9726,-1.9708,-1.9723,-1.969,-1.969,-1.9654,-1.9629,-1.9578,-1.9538,-1.9446,-1.9339,-1.925,-1.9101,-1.8931,-1.8798,-1.8697,-1.8639,-1.8657,-1.8987,-1.8897,-1.8793,-1.8646,-1.8584,-1.8562,-1.8542,-1.8537,-1.8517,-1.8459,-1.8327,-1.8208,-1.8075,-1.7855,-1.7584,-1.744,-1.7378,-1.7316,-3.9237,-3.9237,-3.9237,-3.9237,-3.9161,-3.8622,-3.8317,-3.818,-3.7373,-3.6906,-3.6708,-3.652,-3.5883,-3.534,-3.5231,-3.5194,-3.525,-3.536,-3.6179,-3.7257,-3.7179,-3.7489,-3.8227,-3.8358,-3.7936,-3.7272,-3.7162,-3.6413,-3.5096,-3.5078,-3.461,-3.3716,-3.3684,-3.3528,-3.315,-3.252,-3.1982,-3.1286,-3.0058,-2.946,-2.9114,-2.8509,-2.8106,-2.7892,-2.7317,-2.6835,-2.6239,-2.5141,-2.4053,-2.3145,-2.2932,-2.2816,-2.2725,-2.2672,-2.2609,-2.2528,-2.2377,-2.2296,-2.2341,-2.2627,-2.2938,-2.3191,-2.4245,-2.4963,-2.5026,-2.5649,-2.583,-2.5691,-2.5486,-2.5333,-2.5025,-2.4886,-2.421,-2.2883,-2.1923,-2.0973,-2.0143,-1.983,-1.9777,-1.9762,-1.9726,-1.9708,-1.9723,-1.9708,-1.9693,-1.9672,-1.9687,-1.965,-1.9574,-1.952,-1.9431,-1.9195,-1.9026,-1.8931,-1.8836,-1.876,-1.8926,-1.943,-1.9438,-1.9276,-1.9029,-1.8782,-1.8764,-1.8726,-1.8692,-1.8687,-1.8556,-1.8406,-1.8274,-1.8135,-1.7889,-1.7645,-1.7604,-1.7543,-1.7468,-3.99,-3.99,-3.99,-3.99,-3.9843,-3.9399,-3.9199,-3.8977,-3.8275,-3.7843,-3.7668,-3.7333,-3.6881,-3.6358,-3.625,-3.6191,-3.6204,-3.6422,-3.7073,-3.7772,-3.816,-3.8449,-3.8688,-3.8704,-3.8465,-3.8107,-3.8021,-3.7323,-3.6254,-3.5776,-3.5105,-3.438,-3.3927,-3.3758,-3.3592,-3.3144,-3.2573,-3.2093,-3.1077,-3.0358,-2.9593,-2.9052,-2.8554,-2.829,-2.7705,-2.7393,-2.685,-2.5661,-2.4363,-2.3338,-2.2952,-2.2902,-2.2838,-2.2803,-2.2738,-2.2646,-2.2542,-2.2535,-2.281,-2.3146,-2.3592,-2.4119,-2.506,-2.5447,-2.5679,-2.6058,-2.6059,-2.5895,-2.5728,-2.5467,-2.5256,-2.5064,-2.4248,-2.2976,-2.2136,-2.1285,-2.02,-1.9937,-1.9881,-1.9812,-1.9744,-1.9723,-1.9723,-1.9726,-1.9744,-1.9762,-1.9797,-1.9759,-1.972,-1.9665,-1.9593,-1.9395,-1.9297,-1.9275,-1.9383,-1.9392,-1.9634,-2.0079,-2.0439,-2.0168,-1.9649,-1.9285,-1.9056,-1.9013,-1.8917,-1.8803,-1.8673,-1.8523,-1.8361,-1.8169,-1.7929,-1.7801,-1.774,-1.7841,-1.7718,-3.99,-3.99,-3.99,-3.99,-3.99,-3.9881,-3.9805,-3.9719,-3.9072,-3.8729,-3.8564,-3.7907,-3.7626,-3.7337,-3.7257,-3.7211,-3.7202,-3.7654,-3.8028,-3.8432,-3.8723,-3.8966,-3.8859,-3.8762,-3.8725,-3.8663,-3.8732,-3.8195,-3.7319,-3.667,-3.592,-3.5036,-3.4276,-3.3918,-3.3802,-3.3693,-3.3237,-3.2638,-3.2178,-3.1242,-3.0148,-2.9588,-2.9039,-2.8344,-2.8183,-2.7647,-2.6952,-2.6091,-2.5041,-2.339,-2.3277,-2.3379,-2.3263,-2.321,-2.318,-2.3162,-2.3198,-2.3295,-2.3599,-2.3816,-2.4233,-2.5157,-2.5478,-2.5849,-2.6267,-2.6329,-2.6256,-2.6148,-2.5858,-2.5656,-2.5435,-2.5204,-2.4439,-2.3303,-2.2887,-2.2041,-2.0709,-2.0113,-1.999,-1.9833,-1.9795,-1.9741,-1.9741,-1.9822,-1.9936,-1.9893,-1.9992,-2.0095,-1.9951,-1.9795,-1.9723,-1.9614,-1.9612,-1.9698,-1.9895,-2.0088,-2.0443,-2.087,-2.1378,-2.1297,-2.057,-2.011,-1.9623,-1.9373,-1.9238,-1.9051,-1.8812,-1.8659,-1.8492,-1.8321,-1.8149,-1.7983,-1.7869,-1.8085,-1.8112,-3.99,-3.99,-3.99,-3.99,-3.99,-3.99,-3.99,-3.9862,-3.9681,-3.9526,-3.9474,-3.9301,-3.8833,-3.823,-3.8218,-3.8177,-3.8154,-3.8378,-3.8588,-3.912,-3.912,-3.917,-3.9078,-3.895,-3.8881,-3.8862,-3.8866,-3.8442,-3.77,-3.6906,-3.6076,-3.5309,-3.4517,-3.4005,-3.3972,-3.3928,-3.3831,-3.3405,-3.2776,-3.1883,-3.0849,-3.0035,-2.9278,-2.8421,-2.8219,-2.7772,-2.7095,-2.673,-2.6127,-2.5362,-2.498,-2.4866,-2.473,-2.4676,-2.4605,-2.4534,-2.4483,-2.4494,-2.4655,-2.4914,-2.5266,-2.5592,-2.6083,-2.6455,-2.6522,-2.6554,-2.6398,-2.6257,-2.6114,-2.5915,-2.568,-2.5532,-2.4777,-2.3758,-2.3239,-2.2572,-2.1141,-2.0462,-2.0222,-2.0063,-1.9887,-1.978,-1.9825,-2.0376,-2.0367,-2.0149,-2.0261,-2.0443,-2.0334,-2.0149,-2.0153,-2.0245,-2.0329,-2.051,-2.0779,-2.1063,-2.1459,-2.1718,-2.216,-2.2371,-2.1656,-2.0962,-2.0508,-2.0026,-1.9572,-1.9371,-1.9277,-1.897,-1.8858,-1.8613,-1.8447,-1.8393,-1.8397,-1.8508,-1.8699,-3.99,-3.99,-3.99,-3.99,-3.99,-3.99,-3.99,-3.99,-3.99,-3.9889,-3.9848,-3.9837,-3.9599,-3.915,-3.9127,-3.9116,-3.9094,-3.9048,-3.9161,-3.9396,-3.9363,-3.933,-3.9288,-3.9193,-3.9096,-3.9021,-3.8968,-3.8658,-3.8136,-3.7207,-3.6401,-3.5877,-3.4816,-3.4265,-3.4148,-3.413,-3.4074,-3.3873,-3.3437,-3.2695,-3.1772,-3.083,-2.9606,-2.8573,-2.8246,-2.7973,-2.7584,-2.7486,-2.7245,-2.6907,-2.6653,-2.6214,-2.5619,-2.5459,-2.5405,-2.5337,-2.5213,-2.5268,-2.5463,-2.5656,-2.5873,-2.6182,-2.6538,-2.6607,-2.6657,-2.664,-2.6554,-2.6398,-2.6274,-2.6097,-2.5883,-2.5828,-2.517,-2.4401,-2.3796,-2.301,-2.1857,-2.095,-2.0376,-2.0202,-2.0025,-2.0149,-2.0403,-2.0882,-2.1193,-2.1115,-2.1415,-2.1569,-2.1454,-2.1298,-2.1181,-2.1197,-2.1243,-2.1418,-2.1724,-2.2081,-2.2526,-2.2728,-2.2927,-2.3023,-2.272,-2.2046,-2.1406,-2.0907,-2.0415,-2.0084,-1.9934,-1.958,-1.9248,-1.8964,-1.8862,-1.8872,-1.9033,-1.9315,-1.9481,-3.99,-3.99,-3.99,-3.99,-3.99,-3.99,-3.99,-3.99,-3.99,-3.99,-3.99,-3.99,-3.9832,-3.9821,-3.9769,-3.9796,-3.9755,-3.969,-3.9616,-3.9556,-3.9539,-3.9496,-3.9458,-3.9419,-3.9354,-3.9151,-3.9106,-3.9041,-3.8651,-3.77,-3.6922,-3.6502,-3.5366,-3.4624,-3.4403,-3.4347,-3.4281,-3.4142,-3.3969,-3.3443,-3.2524,-3.1537,-3.0168,-2.872,-2.8327,-2.8286,-2.8129,-2.8088,-2.8051,-2.814,-2.8071,-2.7315,-2.6455,-2.5963,-2.5852,-2.5836,-2.5866,-2.6002,-2.6223,-2.6261,-2.6392,-2.6892,-2.6809,-2.6708,-2.6674,-2.664,-2.6606,-2.6537,-2.6415,-2.6239,-2.6099,-2.6099,-2.5752,-2.5107,-2.443,-2.3687,-2.2719,-2.1578,-2.1083,-2.0421,-2.045,-2.0635,-2.1017,-2.1449,-2.1807,-2.2156,-2.2458,-2.2592,-2.2447,-2.2294,-2.2091,-2.2068,-2.2122,-2.2428,-2.2748,-2.2823,-2.3278,-2.3321,-2.3508,-2.3435,-2.3405,-2.2965,-2.228,-2.1808,-2.1376,-2.1001,-2.0686,-2.046,-2.0045,-1.9532,-1.9536,-1.983,-2.003,-2.0189,-2.0302,-3.99,-3.99,-3.99,-3.99,-3.99,-3.99,-3.99,-3.99,-3.99,-3.99,-3.99,-3.99,-3.99,-3.9889,-3.9889,-3.9889,-3.9848,-3.9804,-3.977,-3.9705,-3.967,-3.963,-3.9625,-3.9601,-3.9545,-3.9458,-3.9362,-3.9315,-3.9101,-3.8363,-3.7505,-3.6839,-3.5963,-3.5218,-3.4731,-3.4506,-3.4473,-3.4358,-3.4215,-3.371,-3.2896,-3.1782,-3.0427,-2.876,-2.8445,-2.8398,-2.8371,-2.83,-2.8259,-2.8277,-2.8209,-2.8008,-2.766,-2.7475,-2.7391,-2.7271,-2.7104,-2.7043,-2.7055,-2.6988,-2.6933,-2.6924,-2.6859,-2.6792,-2.6725,-2.6674,-2.6657,-2.6589,-2.652,-2.645,-2.6433,-2.6381,-2.6065,-2.5497,-2.5029,-2.453,-2.3769,-2.2993,-2.2137,-2.1232,-2.1167,-2.1299,-2.1812,-2.226,-2.265,-2.2979,-2.3227,-2.3188,-2.2971,-2.2847,-2.2695,-2.2785,-2.2948,-2.3359,-2.3794,-2.3768,-2.3861,-2.3676,-2.3696,-2.3595,-2.358,-2.3543,-2.3148,-2.2569,-2.2107,-2.1694,-2.1441,-2.1272,-2.1005,-2.0592,-2.0717,-2.0898,-2.0944,-2.1012,-2.1174,-4.1169,-4.115,-4.0753,-4.0582,-4.0487,-4.0071,-3.99,-3.99,-3.99,-3.99,-3.99,-3.99,-3.99,-3.99,-3.99,-3.99,-3.9889,-3.9878,-3.9826,-3.9804,-3.977,-3.9724,-3.9701,-3.9701,-3.9665,-3.9618,-3.9564,-3.9483,-3.9305,-3.8533,-3.7991,-3.7447,-3.6498,-3.563,-3.5257,-3.4883,-3.4671,-3.4517,-3.4401,-3.4106,-3.337,-3.217,-3.0509,-2.9191,-2.8574,-2.8502,-2.8445,-2.838,-2.8327,-2.83,-2.8259,-2.8237,-2.8196,-2.814,-2.8088,-2.7986,-2.7821,-2.7672,-2.7539,-2.7353,-2.7151,-2.7054,-2.6975,-2.6876,-2.6809,-2.6742,-2.6674,-2.6623,-2.6589,-2.6554,-2.6537,-2.6554,-2.6353,-2.6051,-2.5615,-2.508,-2.458,-2.4015,-2.319,-2.2305,-2.2302,-2.2503,-2.282,-2.3224,-2.358,-2.383,-2.4022,-2.3846,-2.358,-2.3537,-2.35,-2.3596,-2.3776,-2.3942,-2.4271,-2.422,-2.4162,-2.3994,-2.3861,-2.376,-2.3659,-2.3601,-2.352,-2.3214,-2.2781,-2.2377,-2.2202,-2.2031,-2.1826,-2.1652,-2.1657,-2.1658,-2.1763,-2.1845,-2.1921,-4.2393,-4.2344,-4.1711,-4.1446,-4.1302,-4.0734,-4.0431,-4.0412,-4.0449,-4.0487,-4.0393,-4.0431,-4.0374,-4.0146,-3.9995,-3.99,-3.99,-3.99,-3.9878,-3.9826,-3.9826,-3.9781,-3.9747,-3.9735,-3.9754,-3.9712,-3.9701,-3.9637,-3.9427,-3.8921,-3.8532,-3.7941,-3.6814,-3.6048,-3.5855,-3.5157,-3.486,-3.4687,-3.4594,-3.4386,-3.3447,-3.2244,-3.0613,-2.9059,-2.8737,-2.865,-2.8612,-2.8497,-2.8432,-2.838,-2.8322,-2.8286,-2.8237,-2.8241,-2.8182,-2.8099,-2.7893,-2.7774,-2.7642,-2.7507,-2.7307,-2.7165,-2.7055,-2.6975,-2.6859,-2.6758,-2.6657,-2.664,-2.6623,-2.6606,-2.6606,-2.6606,-2.659,-2.6471,-2.6051,-2.5614,-2.5346,-2.4977,-2.4626,-2.4006,-2.3676,-2.3594,-2.3806,-2.4094,-2.4423,-2.446,-2.4653,-2.465,-2.4425,-2.4551,-2.4535,-2.4567,-2.4618,-2.4578,-2.4614,-2.4436,-2.4328,-2.4141,-2.3988,-2.3839,-2.3717,-2.3616,-2.3556,-2.3475,-2.3445,-2.3065,-2.2945,-2.279,-2.2629,-2.25,-2.2448,-2.243,-2.2461,-2.2396,-2.2353,-4.2393,-4.2412,-4.2318,-4.2249,-4.2249,-4.206,-4.2041,-4.2003,-4.1946,-4.2098,-4.187,-4.1977,-4.1586,-4.0961,-4.0222,-3.9957,-3.99,-3.99,-3.9889,-3.9878,-3.9859,-3.9859,-3.9867,-3.9859,-3.9834,-3.9811,-3.9792,-3.9747,-3.9635,-3.9472,-3.9119,-3.8445,-3.7686,-3.6814,-3.623,-3.5492,-3.4896,-3.4838,-3.4706,-3.3847,-3.2508,-3.1892,-3.0722,-2.9582,-2.894,-2.8839,-2.8815,-2.8687,-2.8574,-2.8549,-2.8445,-2.8353,-2.83,-2.8286,-2.8232,-2.8164,-2.8067,-2.7954,-2.776,-2.7609,-2.7474,-2.7289,-2.7165,-2.707,-2.6925,-2.6809,-2.6708,-2.6708,-2.6691,-2.6674,-2.6674,-2.6691,-2.6691,-2.6641,-2.6472,-2.6337,-2.6218,-2.578,-2.5459,-2.5405,-2.4976,-2.4634,-2.4569,-2.4912,-2.5221,-2.5227,-2.5236,-2.5182,-2.5162,-2.5139,-2.5139,-2.5045,-2.495,-2.491,-2.4791,-2.465,-2.4467,-2.4287,-2.4094,-2.3903,-2.376,-2.3653,-2.3595,-2.3565,-2.3595,-2.3595,-2.3349,-2.3259,-2.3349,-2.324,-2.2992,-2.3046,-2.3179,-2.3016,-2.2655,-4.3874,-4.3796,-4.331,-4.3133,-4.3057,-4.264,-4.2393,-4.2393,-4.2393,-4.2393,-4.2393,-4.2393,-4.1946,-4.1245,-4.0753,-4.0355,-3.9995,-3.99,-3.99,-3.99,-3.99,-3.99,-3.9889,-3.99,-3.9878,-3.9867,-3.9867,-3.9856,-3.9792,-3.9698,-3.9448,-3.9165,-3.842,-3.764,-3.6744,-3.6015,-3.5409,-3.5028,-3.4641,-3.395,-3.2887,-3.2068,-3.1236,-3.0057,-2.9422,-2.9144,-2.9021,-2.8881,-2.8761,-2.87,-2.8587,-2.8466,-2.8401,-2.838,-2.8345,-2.8318,-2.8291,-2.8164,-2.7968,-2.7789,-2.7627,-2.7459,-2.7307,-2.7103,-2.6942,-2.6842,-2.6758,-2.6708,-2.6708,-2.6708,-2.6725,-2.6708,-2.6708,-2.6691,-2.6674,-2.664,-2.6606,-2.6537,-2.6266,-2.6295,-2.6206,-2.5696,-2.5266,-2.5311,-2.5476,-2.5416,-2.5352,-2.5275,-2.5256,-2.5256,-2.5256,-2.5256,-2.5127,-2.5033,-2.493,-2.4791,-2.4569,-2.4364,-2.4114,-2.3961,-2.3818,-2.3696,-2.3616,-2.3595,-2.3595,-2.3595,-2.3595,-2.3565,-2.349,-2.347,-2.3465,-2.3392,-2.3275,-2.2918,-2.2578,-4.5061,-4.491,-4.4287,-4.4028,-4.3971,-4.3315,-4.3064,-4.3057,-4.3095,-4.3057,-4.2962,-4.2848,-4.2299,-4.1567,-4.1226,-4.0677,-3.9919,-3.99,-3.99,-3.99,-3.99,-3.99,-3.99,-3.99,-3.99,-3.99,-3.9889,-3.9889,-3.9867,-3.9815,-3.9781,-3.9758,-3.888,-3.8126,-3.7361,-3.6519,-3.5741,-3.4944,-3.4768,-3.4196,-3.3371,-3.2676,-3.1742,-3.0791,-3.0018,-2.9468,-2.9251,-2.9089,-2.8952,-2.8888,-2.8761,-2.8644,-2.8556,-2.8505,-2.8484,-2.8458,-2.8432,-2.8367,-2.8191,-2.8021,-2.7818,-2.7642,-2.7415,-2.7135,-2.7023,-2.6958,-2.6909,-2.6809,-2.6792,-2.6792,-2.6775,-2.6775,-2.6775,-2.6775,-2.6758,-2.6691,-2.664,-2.6589,-2.652,-2.6451,-2.6364,-2.6259,-2.5913,-2.5742,-2.5694,-2.5619,-2.5505,-2.5407,-2.5352,-2.5352,-2.5371,-2.5391,-2.5259,-2.5166,-2.5084,-2.4926,-2.4706,-2.4462,-2.4193,-2.4003,-2.3882,-2.3717,-2.3616,-2.3595,-2.3595,-2.3595,-2.3595,-2.3595,-2.3573,-2.353,-2.348,-2.3348,-2.3187,-2.2828,-2.2523,-4.5181,-4.5151,-4.4981,-4.4877,-4.4865,-4.4787,-4.4687,-4.4528,-4.4611,-4.4554,-4.4383,-4.3891,-4.3019,-4.2249,-4.1435,-4.0734,-3.9919,-3.99,-3.99,-3.99,-3.99,-3.9911,-3.9911,-3.9911,-3.9911,-3.9911,-3.99,-3.99,-3.9889,-3.9859,-3.9878,-3.9775,-3.9207,-3.83,-3.7363,-3.6462,-3.5684,-3.502,-3.4858,-3.4429,-3.3773,-3.3156,-3.2458,-3.1175,-3.0628,-3.0232,-2.9475,-2.9272,-2.9127,-2.9067,-2.8952,-2.8846,-2.8749,-2.87,-2.8662,-2.8637,-2.8612,-2.8562,-2.844,-2.8259,-2.8035,-2.7777,-2.7509,-2.7261,-2.7182,-2.7072,-2.7007,-2.6991,-2.6974,-2.6957,-2.6957,-2.6975,-2.6925,-2.6892,-2.6859,-2.6792,-2.6725,-2.6623,-2.6589,-2.6555,-2.6486,-2.6365,-2.6241,-2.599,-2.5807,-2.5715,-2.5616,-2.5483,-2.5502,-2.5521,-2.554,-2.5521,-2.5371,-2.5275,-2.5236,-2.5005,-2.467,-2.4446,-2.4234,-2.4088,-2.3961,-2.3818,-2.3595,-2.3595,-2.3595,-2.3595,-2.3595,-2.3595,-2.3573,-2.3545,-2.3458,-2.3304,-2.3142,-2.2865,-2.2523,-4.5311,-4.5301,-4.5267,-4.517,-4.5049,-4.5045,-4.4991,-4.4955,-4.4955,-4.4931,-4.4819,-4.4061,-4.3227,-4.2356,-4.1548,-4.0734,-3.9995,-3.99,-3.99,-3.9911,-3.9933,-3.9954,-3.9965,-3.9965,-3.9965,-3.9954,-3.9922,-3.99,-3.99,-3.99,-3.99,-3.9748,-3.9502,-3.8584,-3.7542,-3.6206,-3.5334,-3.5069,-3.4907,-3.4621,-3.4393,-3.3692,-3.3125,-3.2558,-3.1098,-3.0778,-3.028,-2.9626,-2.9365,-2.9225,-2.9145,-2.9044,-2.8952,-2.8917,-2.887,-2.8852,-2.881,-2.8773,-2.8687,-2.8484,-2.8205,-2.7954,-2.7689,-2.7494,-2.7402,-2.7294,-2.72,-2.7168,-2.7135,-2.7152,-2.7153,-2.7104,-2.7022,-2.7006,-2.7026,-2.7045,-2.6911,-2.6877,-2.6674,-2.6657,-2.6537,-2.6434,-2.6293,-2.6134,-2.5972,-2.5828,-2.5712,-2.5597,-2.5616,-2.5597,-2.5597,-2.5559,-2.541,-2.5314,-2.5275,-2.4966,-2.463,-2.4446,-2.4281,-2.413,-2.3961,-2.376,-2.3595,-2.3595,-2.3595,-2.3595,-2.3595,-2.3595,-2.3573,-2.3551,-2.3414,-2.3209,-2.3031,-2.2843,-2.2592,-4.5456,-4.5447,-4.5438,-4.5338,-4.517,-4.5136,-4.5072,-4.5045,-4.5045,-4.482,-4.4557,-4.3938,-4.308,-4.2151,-4.1503,-4.0715,-4.0089,-3.99,-3.99,-3.9922,-3.9954,-4.0005,-4.0015,-4.0007,-4.0007,-3.9996,-3.9965,-3.9933,-3.99,-3.99,-3.99,-3.99,-3.9786,-3.8869,-3.739,-3.5846,-3.4927,-3.4917,-3.4917,-3.4926,-3.4736,-3.4329,-3.3675,-3.3392,-3.2315,-3.1675,-3.1185,-3.0506,-2.9958,-2.9737,-2.9514,-2.9262,-2.9178,-2.9123,-2.9089,-2.9085,-2.9051,-2.8998,-2.887,-2.8637,-2.8327,-2.8081,-2.7911,-2.7733,-2.7615,-2.7542,-2.743,-2.7402,-2.7386,-2.744,-2.7563,-2.7739,-2.7938,-2.8078,-2.8065,-2.8015,-2.7505,-2.7284,-2.6945,-2.6742,-2.6623,-2.6486,-2.6346,-2.6205,-2.6045,-2.5883,-2.5735,-2.5659,-2.564,-2.5637,-2.5597,-2.5559,-2.5448,-2.5371,-2.5275,-2.4966,-2.467,-2.4487,-2.4302,-2.4109,-2.3925,-2.3717,-2.3595,-2.3595,-2.3595,-2.3595,-2.3595,-2.3595,-2.3595,-2.3595,-2.3414,-2.3231,-2.2986,-2.282,-2.2743,-4.5596,-4.5588,-4.5521,-4.5419,-4.5298,-4.5224,-4.5151,-4.5125,-4.5095,-4.4722,-4.4121,-4.381,-4.2902,-4.1713,-4.1282,-4.0596,-4.0084,-3.9922,-3.9922,-3.9943,-3.9996,-4.0026,-4.0046,-4.0067,-4.0077,-4.0036,-3.9986,-3.9954,-3.99,-3.99,-3.99,-3.9748,-3.954,-3.885,-3.7363,-3.5742,-3.4946,-3.4908,-3.4908,-3.4917,-3.4869,-3.4727,-3.4282,-3.3799,-3.3279,-3.2704,-3.2166,-3.1355,-3.0855,-3.0692,-2.9976,-2.9653,-2.9535,-2.9357,-2.9289,-2.9272,-2.9262,-2.9175,-2.8994,-2.8687,-2.8458,-2.8264,-2.8109,-2.7968,-2.7836,-2.7745,-2.7821,-2.7929,-2.7879,-2.8165,-2.845,-2.8755,-2.896,-2.9003,-2.8972,-2.875,-2.8203,-2.7623,-2.7335,-2.7012,-2.6758,-2.6555,-2.6399,-2.6258,-2.6081,-2.5919,-2.5775,-2.5719,-2.5717,-2.5661,-2.5637,-2.5562,-2.547,-2.5391,-2.5275,-2.5001,-2.4746,-2.4549,-2.4343,-2.4114,-2.3925,-2.3782,-2.3674,-2.3616,-2.3653,-2.3717,-2.3653,-2.3595,-2.3595,-2.3573,-2.3436,-2.3253,-2.3008,-2.2888,-2.2865,-4.573,-4.5742,-4.5708,-4.5643,-4.5538,-4.539,-4.531,-4.5277,-4.5246,-4.5031,-4.4522,-4.3681,-4.2849,-4.1998,-4.1007,-4.0416,-4.015,-4.0036,-4.0036,-4.0036,-4.0087,-4.0118,-4.0128,-4.0138,-4.0138,-4.0127,-4.0067,-3.9996,-3.9965,-3.9933,-3.99,-3.9767,-3.8934,-3.7997,-3.7087,-3.5855,-3.4908,-3.4908,-3.4908,-3.4917,-3.4917,-3.4879,-3.4718,-3.4339,-3.3885,-3.3459,-3.3119,-3.2289,-3.1836,-3.1637,-3.0874,-3.0431,-3.0203,-3.0025,-2.9575,-2.9495,-2.9417,-2.9203,-2.9055,-2.8864,-2.8724,-2.8577,-2.8358,-2.825,-2.815,-2.8077,-2.8298,-2.8692,-2.8755,-2.9151,-2.9652,-2.9662,-2.9731,-2.9601,-2.9469,-2.9231,-2.8784,-2.8168,-2.7725,-2.7402,-2.7112,-2.6841,-2.6669,-2.685,-2.674,-2.6515,-2.6422,-2.6014,-2.5893,-2.5754,-2.568,-2.5605,-2.553,-2.5413,-2.524,-2.508,-2.4846,-2.4609,-2.4385,-2.4114,-2.3967,-2.3839,-2.3782,-2.3739,-2.3797,-2.3855,-2.3754,-2.3674,-2.3595,-2.3551,-2.3458,-2.3385,-2.3209,-2.3142,-2.3142,-4.5841,-4.5841,-4.5845,-4.5798,-4.5746,-4.5545,-4.5476,-4.5467,-4.5409,-4.5207,-4.465,-4.3635,-4.2975,-4.2352,-4.133,-4.0586,-4.0567,-4.0242,-4.0137,-4.0147,-4.0176,-4.0186,-4.0196,-4.0234,-4.0206,-4.0186,-4.0118,-4.0048,-4.0017,-3.9965,-3.9922,-3.9483,-3.8281,-3.7656,-3.6879,-3.5912,-3.4908,-3.4908,-3.4908,-3.4908,-3.4908,-3.4908,-3.4908,-3.4709,-3.4406,-3.4046,-3.3819,-3.3337,-3.2732,-3.2468,-3.2005,-3.145,-3.1157,-3.0884,-3.0461,-3.0393,-3.0269,-3.0149,-3.0109,-3.0,-2.996,-2.9757,-2.9011,-2.8665,-2.8756,-2.8847,-2.9268,-2.9635,-2.9812,-3.024,-3.065,-3.0625,-3.0592,-3.0463,-3.0403,-3.0179,-2.9572,-2.9004,-2.854,-2.818,-2.7805,-2.7448,-2.7209,-2.7358,-2.7502,-2.7313,-2.7107,-2.6664,-2.6188,-2.6014,-2.5873,-2.5817,-2.5694,-2.5565,-2.5429,-2.5256,-2.4985,-2.471,-2.4446,-2.4177,-2.4051,-2.3982,-2.3925,-2.3882,-2.3919,-2.3919,-2.3818,-2.3739,-2.3674,-2.3616,-2.3551,-2.3458,-2.34,-2.3363,-2.3326,-4.5898,-4.5911,-4.5899,-4.5887,-4.586,-4.57,-4.5624,-4.5612,-4.5603,-4.5126,-4.4285,-4.4268,-4.3694,-4.2842,-4.1944,-4.1581,-4.138,-4.0731,-4.0482,-4.0301,-4.032,-4.0263,-4.0225,-4.0282,-4.0253,-4.0215,-4.0167,-4.0128,-4.0087,-4.0007,-3.9954,-3.9599,-3.8405,-3.7723,-3.6973,-3.6083,-3.5173,-3.4984,-3.4908,-3.4908,-3.4908,-3.4908,-3.4908,-3.4832,-3.4728,-3.469,-3.4463,-3.4046,-3.3743,-3.3356,-3.2845,-3.2506,-3.2307,-3.2289,-3.2203,-3.2028,-3.1739,-3.1589,-3.1422,-3.1209,-3.1163,-3.0736,-2.9807,-2.9524,-2.958,-2.9844,-3.0233,-3.0645,-3.0914,-3.1275,-3.1607,-3.1669,-3.1707,-3.1686,-3.1707,-3.125,-3.0585,-3.0063,-2.9612,-2.9216,-2.8857,-2.8548,-2.8374,-2.8422,-2.8268,-2.8147,-2.7923,-2.7581,-2.7103,-2.6407,-2.6319,-2.6198,-2.6042,-2.5784,-2.56,-2.5375,-2.5143,-2.4831,-2.4544,-2.4297,-2.4193,-2.4103,-2.4046,-2.4003,-2.4003,-2.3982,-2.3882,-2.3818,-2.3739,-2.3674,-2.3573,-2.3566,-2.3494,-2.3429,-2.3392,-4.6056,-4.6032,-4.6046,-4.603,-4.6025,-4.5916,-4.5828,-4.5769,-4.5761,-4.5511,-4.5227,-4.4603,-4.4226,-4.3803,-4.3026,-4.2699,-4.227,-4.1784,-4.1393,-4.106,-4.0528,-4.0366,-4.03,-4.0301,-4.0282,-4.0263,-4.0225,-4.0206,-4.0138,-4.0077,-4.0007,-3.9728,-3.8759,-3.8074,-3.7297,-3.6358,-3.5638,-3.5097,-3.4993,-3.4908,-3.4908,-3.4908,-3.4908,-3.4908,-3.4908,-3.4908,-3.4747,-3.4652,-3.4444,-3.433,-3.3696,-3.3308,-3.3223,-3.2713,-3.2298,-3.2125,-3.2004,-3.1942,-3.1846,-3.1767,-3.176,-3.1751,-3.1059,-3.0833,-3.083,-3.0948,-3.1214,-3.1628,-3.1891,-3.2166,-3.2334,-3.24,-3.2335,-3.221,-3.2161,-3.1756,-3.1124,-3.07,-3.0263,-2.998,-2.9638,-2.9397,-2.9274,-2.9138,-2.9001,-2.8933,-2.8795,-2.8535,-2.8055,-2.7406,-2.68,-2.6679,-2.6405,-2.6165,-2.5745,-2.547,-2.524,-2.4985,-2.4686,-2.4421,-2.4297,-2.4213,-2.4166,-2.4145,-2.4124,-2.4067,-2.3982,-2.3882,-2.3803,-2.3674,-2.3573,-2.3588,-2.3566,-2.3501,-2.348,-4.5393,-4.5136,-4.5103,-4.5118,-4.5094,-4.506,-4.5015,-4.5031,-4.5589,-4.5828,-4.5728,-4.5237,-4.4962,-4.4766,-4.4083,-4.3667,-4.3563,-4.2306,-4.1689,-4.1453,-4.0822,-4.0492,-4.0342,-4.0335,-4.0336,-4.0309,-4.03,-4.03,-4.0234,-4.0148,-4.007,-3.9951,-3.9161,-3.8553,-3.7783,-3.6862,-3.6046,-3.5524,-3.5192,-3.4993,-3.4908,-3.4908,-3.4908,-3.4908,-3.4908,-3.4917,-3.4908,-3.4917,-3.4908,-3.4908,-3.4301,-3.4178,-3.4103,-3.3639,-3.3412,-3.3343,-3.3233,-3.3216,-3.3127,-3.2917,-3.2767,-3.2634,-3.258,-3.2539,-3.2287,-3.2212,-3.2465,-3.2752,-3.2826,-3.2904,-3.3006,-3.3028,-3.2771,-3.2506,-3.2301,-3.2054,-3.1612,-3.1203,-3.0882,-3.0611,-3.0351,-3.0093,-2.9922,-2.9839,-2.9871,-3.0021,-3.007,-2.9964,-2.9347,-2.8561,-2.7766,-2.7244,-2.6886,-2.6526,-2.6073,-2.5602,-2.5378,-2.5143,-2.4846,-2.4605,-2.4441,-2.4297,-2.4234,-2.4229,-2.425,-2.4166,-2.4046,-2.3961,-2.3861,-2.3717,-2.3616,-2.3631,-2.361,-2.3573,-2.3551,-4.4288,-4.3681,-4.3622,-4.3739,-4.3622,-4.372,-4.3715,-4.3774,-4.5075,-4.5781,-4.5729,-4.5879,-4.577,-4.5505,-4.4957,-4.4705,-4.4279,-4.3225,-4.2418,-4.1991,-4.1178,-4.0699,-4.0471,-4.0411,-4.0405,-4.0396,-4.0396,-4.0368,-4.0342,-4.0252,-4.0148,-4.005,-3.9441,-3.888,-3.8442,-3.7252,-3.6435,-3.5989,-3.5372,-3.4936,-3.4917,-3.4917,-3.4917,-3.4917,-3.4927,-3.4927,-3.4927,-3.4917,-3.4917,-3.4898,-3.487,-3.4813,-3.4756,-3.4709,-3.468,-3.4631,-3.4341,-3.4239,-3.4116,-3.3956,-3.4006,-3.4034,-3.4191,-3.3894,-3.3493,-3.3142,-3.3281,-3.338,-3.3401,-3.3247,-3.3262,-3.3091,-3.2836,-3.259,-3.2371,-3.2161,-3.1842,-3.1466,-3.1187,-3.0968,-3.084,-3.0635,-3.0615,-3.0531,-3.0463,-3.0886,-3.0954,-3.0883,-3.0524,-2.9633,-2.8803,-2.7943,-2.7366,-2.6871,-2.6226,-2.5807,-2.5567,-2.5317,-2.5005,-2.4746,-2.4523,-2.4385,-2.4281,-2.4276,-2.4255,-2.4193,-2.4109,-2.4024,-2.394,-2.3782,-2.3696,-2.3674,-2.3638,-2.3674,-2.3638,-4.3782,-4.3607,-4.3607,-4.3607,-4.3607,-4.3607,-4.3587,-4.3626,-4.3969,-4.4513,-4.5104,-4.5677,-4.5972,-4.5764,-4.5681,-4.5545,-4.5243,-4.4284,-4.3679,-4.2841,-4.1896,-4.0983,-4.0634,-4.0512,-4.0492,-4.0484,-4.0476,-4.0449,-4.04,-4.0332,-4.0261,-4.0224,-3.9805,-3.9538,-3.8966,-3.7709,-3.6948,-3.6472,-3.5551,-3.5011,-3.4936,-3.4955,-3.4983,-3.5001,-3.5011,-3.5029,-3.502,-3.5001,-3.4992,-3.4964,-3.4927,-3.4898,-3.4908,-3.4917,-3.4907,-3.4897,-3.4829,-3.4747,-3.4645,-3.4528,-3.4473,-3.4404,-3.4351,-3.4358,-3.4206,-3.3938,-3.3814,-3.386,-3.3793,-3.3591,-3.3375,-3.3135,-3.29,-3.2657,-3.2439,-3.2232,-3.2037,-3.1746,-3.1445,-3.1329,-3.1249,-3.121,-3.121,-3.119,-3.119,-3.1173,-3.114,-3.1106,-3.1089,-3.0487,-2.9652,-2.8789,-2.7878,-2.7266,-2.6569,-2.5972,-2.5698,-2.5435,-2.5127,-2.4871,-2.4609,-2.4503,-2.438,-2.4317,-2.4276,-2.4255,-2.4213,-2.4166,-2.4046,-2.3903,-2.3839,-2.3818,-2.3839,-2.3861,-2.3818,-4.2802,-4.251,-4.2491,-4.2491,-4.2491,-4.2491,-4.2491,-4.2549,-4.2861,-4.3252,-4.3868,-4.4906,-4.5535,-4.5609,-4.5843,-4.6037,-4.5872,-4.5117,-4.415,-4.3316,-4.2458,-4.1499,-4.101,-4.0635,-4.0614,-4.06,-4.0591,-4.0561,-4.0489,-4.0468,-4.0427,-4.0375,-4.0267,-4.0021,-3.9343,-3.8401,-3.7422,-3.6907,-3.5756,-3.5151,-3.5001,-3.5039,-3.5057,-3.5066,-3.5075,-3.5101,-3.5092,-3.5066,-3.5029,-3.5001,-3.4936,-3.4917,-3.4908,-3.4908,-3.4917,-3.4907,-3.4897,-3.4848,-3.4739,-3.4666,-3.4615,-3.4561,-3.4528,-3.4528,-3.4517,-3.4262,-3.4086,-3.4092,-3.3873,-3.3675,-3.3437,-3.3165,-3.2981,-3.2756,-3.2524,-3.2301,-3.2055,-3.1781,-3.1521,-3.1312,-3.1254,-3.1252,-3.1213,-3.119,-3.119,-3.119,-3.119,-3.119,-3.119,-3.1134,-3.0367,-2.9599,-2.8651,-2.7773,-2.7058,-2.6374,-2.5789,-2.5511,-2.5342,-2.4985,-2.4706,-2.4564,-2.4441,-2.4446,-2.4426,-2.4421,-2.4374,-2.4374,-2.4208,-2.4036,-2.3988,-2.3961,-2.404,-2.4149,-2.4097,-4.177,-4.1149,-4.1146,-4.1127,-4.1107,-4.1127,-4.1185,-4.1286,-4.1828,-4.214,-4.2409,-4.3856,-4.4522,-4.5098,-4.5518,-4.5869,-4.5825,-4.5161,-4.4355,-4.3461,-4.2553,-4.1643,-4.1067,-4.0748,-4.0738,-4.0707,-4.0701,-4.0661,-4.0612,-4.0591,-4.0549,-4.0519,-4.0481,-4.0411,-3.9909,-3.8818,-3.7594,-3.7118,-3.6243,-3.5287,-3.5119,-3.5129,-3.5129,-3.511,-3.5119,-3.5119,-3.5119,-3.511,-3.5073,-3.502,-3.4983,-3.4927,-3.4908,-3.4908,-3.4908,-3.4908,-3.4917,-3.4897,-3.4858,-3.4778,-3.4768,-3.4758,-3.4718,-3.4687,-3.4666,-3.4539,-3.4358,-3.4148,-3.3952,-3.3698,-3.3448,-3.3229,-3.3028,-3.2805,-3.2591,-3.2388,-3.2126,-3.1855,-3.1615,-3.1389,-3.1332,-3.1293,-3.1235,-3.1193,-3.119,-3.119,-3.119,-3.119,-3.1151,-3.1041,-3.0625,-3.0029,-2.9314,-2.845,-2.7642,-2.7059,-2.6419,-2.6002,-2.5834,-2.5259,-2.4822,-2.4746,-2.467,-2.465,-2.463,-2.4636,-2.4668,-2.4679,-2.4461,-2.4455,-2.4808,-2.4961,-2.4629,-2.4671,-2.4492,-4.1244,-4.1107,-4.1107,-4.1107,-4.1107,-4.1107,-4.1107,-4.1127,-4.1263,-4.1322,-4.1633,-4.2354,-4.3419,-4.4864,-4.4981,-4.5289,-4.5609,-4.5029,-4.4386,-4.3557,-4.2596,-4.1708,-4.1102,-4.0849,-4.0837,-4.0809,-4.0787,-4.0776,-4.0732,-4.0694,-4.0688,-4.0655,-4.0588,-4.0482,-4.0248,-3.9077,-3.7889,-3.7386,-3.6438,-3.5376,-3.5234,-3.5229,-3.5179,-3.5196,-3.5218,-3.5245,-3.5245,-3.522,-3.5179,-3.5127,-3.5057,-3.4974,-3.4927,-3.4917,-3.4908,-3.4908,-3.4908,-3.4917,-3.4878,-3.4868,-3.4849,-3.4809,-3.4778,-3.4758,-3.4687,-3.4572,-3.4374,-3.4185,-3.3959,-3.3684,-3.3448,-3.3226,-3.3026,-3.2821,-3.2609,-3.2474,-3.2284,-3.2018,-3.1781,-3.1596,-3.1466,-3.137,-3.1274,-3.1232,-3.1171,-3.1171,-3.1171,-3.1151,-3.1092,-3.0962,-3.0851,-3.0369,-2.9822,-2.9182,-2.8408,-2.7957,-2.7399,-2.6899,-2.6318,-2.5773,-2.5298,-2.4985,-2.493,-2.491,-2.4894,-2.4896,-2.4925,-2.5196,-2.5373,-2.5497,-2.6025,-2.6165,-2.5652,-2.5243,-2.5071]},{"header":{"parameterUnit":"m.s-1","parameterCategory":1,"la1":31.0,"la2":29.5877,"lo1":-88.7671,"lo2":-86.6584,"dy":0.0162,"dx":0.0185,"nx":115,"ny":88,"refTime":"2024-04-19T06:00:00:Z","depth":0,"parameterNumber":3,"parameterNumberName":"V-component_of_WINDS"},"data":[0.0,0.0,0.0,0.0,0.0,0.0,0.0,0.0,0.0,0.0,0.0,0.0,0.0,0.0,0.0,0.0,0.0,0.0,0.0,0.0,0.0,0.0,0.0,0.0,0.0,0.0,0.0,0.0,0.0,0.0,0.0,0.0,0.0,0.0,0.0,0.0,0.0,0.0,0.0,0.0,0.0,0.0,0.0,0.0,0.0,0.0,0.0,0.0,0.0,0.0,0.0,0.0,0.0,0.0,0.0,0.0,0.0,0.0,0.0,0.0,0.0,0.0,0.0,0.0,0.0,0.0,0.0,0.0,0.0,0.0,0.0,0.0,0.0,0.0,0.0,0.0,0.0,0.0,0.0,0.0,0.0,0.0,0.0,0.0,0.0,0.0,0.0,0.0,0.0,0.0,0.0,0.0,0.0,0.0,0.0,0.0,0.0,0.0,0.0,0.0,0.0,0.0,0.0,0.0,0.0,0.0,0.0,0.0,0.0,0.0,0.0,0.0,0.0,0.0,0.0,0.0,0.0,0.0,0.0,0.0,0.0,0.0,0.0,0.0,0.0,0.0,0.0,0.0,0.0,0.0,0.0,0.0,0.0,0.0,0.0,0.0,0.0,0.0,0.0,0.0,0.0,0.0,0.0,0.0,0.0,0.0,0.0,0.0,0.0,0.0,0.0,0.0,0.0,0.0,0.0,0.0,0.0,0.0,0.0,0.0,0.0,0.0,0.0,0.0,0.0,0.0,0.0,0.0,0.0,0.0,0.0,0.0,0.0,0.0,0.0,0.0,0.0,0.0,0.0,0.0,0.0,0.0,0.0,0.0,0.0,0.0,0.0,0.0,0.0,0.0,0.0,0.0,0.0,0.0,0.0,0.0,0.0,0.0,0.0,0.0,0.0,0.0,0.0,0.0,0.0,0.0,0.0,0.0,0.0,0.0,0.0,0.0,0.0,0.0,0.0,0.0,0.0,0.0,0.0,0.0,0.0,0.0,0.0,0.0,0.0,0.0,0.0,0.0,0.0,0.0,0.0,0.0,0.0,0.0,0.0,0.0,0.0,0.0,0.0,0.0,0.0,0.0,0.0,0.0,0.0,0.0,0.0,0.0,0.0,0.0,0.0,0.0,0.0,0.0,0.0,0.0,0.0,0.0,0.0,0.0,0.0,0.0,0.0,0.0,0.0,0.0,0.0,0.0,0.0,0.0,0.0,0.0,0.0,0.0,0.0,0.0,0.0,0.0,0.0,0.0,0.0,0.0,0.0,0.0,0.0,0.0,0.0,0.0,0.0,0.0,0.0,0.0,0.0,0.0,0.0,0.0,0.0,0.0,0.0,0.0,0.0,0.0,0.0,0.0,0.0,0.0,0.0,0.0,0.0,0.0,0.0,0.0,0.0,0.0,0.0,0.0,0.0,0.0,0.0,0.0,0.0,0.0,0.0,0.0,0.0,0.0,0.0,0.0,0.0,0.0,0.0,0.0,0.0,0.0,0.0,0.0,0.0,0.0,0.0,0.0,0.0,0.0,0.0,0.0,0.0,0.0,0.0,0.0,0.0,0.0,0.0,0.0,0.0,0.0,0.0,0.0,0.0,0.0,0.0,0.0,0.0,0.0,0.0,0.0,0.0,0.0,0.0,0.0,0.0,0.0,0.0,0.0,0.0,0.0,0.0,0.0,0.0,0.0,0.0,0.0,0.0,0.0,0.0,0.0,0.0,0.0,0.0,0.0,0.0,0.0,0.0,0.0,0.0,0.0,0.0,0.0,0.0,0.0,0.0,0.0,0.0,0.0,0.0,0.0,0.0,0.0,0.0,0.0,0.0,0.0,0.0,0.0,0.0,0.0,0.0,0.0,0.0,0.0,0.0,0.0,0.0,0.0,0.0,0.0,0.0,0.0,0.0,0.0,0.0,0.0,0.0,0.0,0.0,0.0,0.0,0.0,0.0,0.0,0.0,0.0,0.0,0.0,0.0,0.0,0.0,0.0,0.0,0.0,0.0,0.0,0.0,0.0,0.0,0.0,0.0,0.0,0.0,0.0,0.0,0.0,0.0,0.0,0.0,0.0,0.0,0.0,0.0,0.0,0.0,0.0,0.0,0.0,0.0,0.0,0.0,0.0,0.0,0.0,0.0,0.0,0.0,0.0,0.0,0.0,0.0,0.0,0.0,0.0,0.0,0.0,0.0,0.0,0.0,0.0,0.0,0.0,0.0,0.0,0.0,0.0,0.0,0.0,0.0,0.0,0.0,0.0,0.0,0.0,0.0,0.0,0.0,0.0,0.0,0.0,0.0,0.0,0.0,0.0,0.0,0.0,0.0,0.0,0.0,0.0,0.0,0.0,0.0,0.0,0.0,0.0,0.0,0.0,0.0,0.0,0.0,0.0,0.0,0.0,0.0,0.0,0.0,0.0,0.0,0.0,0.0,0.0,0.0,0.0,0.0,0.0,0.0,0.0,0.0,0.0,0.0,0.0,0.0,0.0,0.0,0.0,0.0,0.0,0.0,0.0,0.0,0.0,0.0,0.0,0.0,0.0,0.0,0.0,0.0,0.0,0.0,0.0,0.0,0.0,0.0,0.0,0.0,0.0,0.0,0.0,0.0,0.0,0.0,0.0,0.0,0.0,0.0,0.0,0.0,0.0,0.0,0.0,0.0,0.0,0.0,0.0,0.0,0.0,0.0,0.0,0.0,0.0,0.0,0.0,0.0,0.0,0.0,0.0,0.0,0.0,0.0,0.0,0.0,0.0,0.0,0.0,0.0,0.0,0.0,0.0,0.0,0.0,0.0,0.0,0.0,0.0,0.0,0.0,0.0,0.0,0.0,0.0,0.0,0.0,0.0,0.0,0.0,0.0,0.0,0.0,0.0,0.0,0.0,0.0,0.0,0.0,0.0,0.0,0.0,0.0,0.0,0.0,0.0,0.0,0.0,0.0,0.0,0.0,0.0,0.0,0.0,0.0,0.0,0.0,0.0,0.0,0.0,0.0,0.0,0.0,0.0,0.0,0.0,0.0,0.0,0.0,0.0,0.0,0.0,0.0,0.0,0.0,0.0,0.0,0.0,0.0,0.0,0.0,0.0,0.0,0.0,0.0,0.0,0.0,0.0,0.0,0.0,0.0,0.0,0.0,0.0,0.0,0.0,0.0,0.0,0.0,0.0,0.0,0.0,0.0,0.0,0.0,0.0,0.0,0.0,0.0,0.0,0.0,0.0,0.0,0.0,0.0,0.0,0.0,0.0,0.0,0.0,0.0,0.0,0.0,0.0,0.0,0.0,0.0,0.0,0.0,0.0,0.0,0.0,0.0,0.0,0.0,0.0,0.0,0.0,0.0,0.0,0.0,0.0,0.0,0.0,0.0,0.0,0.0,0.0,0.0,0.0,0.0,0.0,0.0,0.0,0.0,0.0,0.0,0.0,0.0,0.0,0.0,0.0,0.0,0.0,0.0,0.0,0.0,0.0,0.0,0.0,0.0,0.0,0.0,0.0,0.0,0.0,0.0,0.0,0.0,0.0,0.0,0.0,0.0,0.0,0.0,0.0,0.0,0.0,0.0,0.0,0.0,0.0,0.0,0.0,0.0,0.0,0.0,0.0,0.0,0.0,0.0,0.0,0.0,0.0,0.0,0.0,0.0,0.0,0.0,0.0,0.0,0.0,0.0,0.0,0.0,0.0,0.0,0.0,0.0,0.0,0.0,0.0,0.0,0.0,0.0,0.0,0.0,0.0,0.0,0.0,0.0,0.0,0.0,0.0,0.0,0.0,0.0,0.0,0.0,0.0,0.0,0.0,0.0,0.0,0.0,0.0,0.0,0.0,0.0,0.0,0.0,0.0,0.0,0.0,0.0,0.0,0.0,0.0,0.0,0.0,0.0,0.0,0.0,0.0,0.0,0.0,0.0,0.0,0.0,0.0,0.0,0.0,0.0,0.0,0.0,0.0,0.0,0.0,0.0,0.0,0.0,0.0,0.0,0.0,0.0,0.0,0.0,0.0,0.0,0.0,0.0,0.0,0.0,0.0,0.0,0.0,0.0,0.0,0.0,0.0,0.0,0.0,0.0,0.0,0.0,0.0,0.0,0.0,0.0,0.0,0.0,0.0,0.0,0.0,0.0,0.0,0.0,0.0,0.0,0.0,0.0,0.0,0.0,0.0,0.0,0.0,0.0,0.0,0.0,0.0,0.0,0.0,0.0,0.0,0.0,0.0,0.0,0.0,0.0,0.0,0.0,0.0,0.0,0.0,0.0,0.0,0.0,0.0,0.0,0.0,0.0,0.0,0.0,0.0,0.0,-0.8725,0.0,0.0,0.0,0.0,0.0,0.0,0.0,0.0,0.0,0.0,0.0,0.0,0.0,0.0,0.0,0.0,0.0,0.0,0.0,0.0,0.0,0.0,0.0,0.0,0.0,0.0,0.0,0.0,0.0,0.0,0.0,0.0,0.0,0.0,0.0,0.0,0.0,0.0,0.0,0.0,0.0,0.0,0.0,0.0,0.0,0.0,0.0,0.0,0.0,0.0,0.0,0.0,0.0,0.0,0.0,0.0,0.0,0.0,0.0,0.0,0.0,0.0,0.0,0.0,0.0,0.0,0.0,0.0,0.0,0.0,0.0,0.0,0.0,0.0,0.0,0.0,0.0,0.0,0.0,0.0,0.0,0.0,0.0,0.0,0.0,0.0,0.0,0.0,0.0,0.0,0.0,0.0,0.0,0.0,0.0,0.0,0.0,0.0,0.0,0.0,0.0,0.0,0.0,0.0,0.0,0.0,0.0,0.0,0.0,0.0,-0.9712,-0.9475,-0.9408,-0.9303,-0.9195,0.0,0.0,0.0,0.0,0.0,0.0,0.0,0.0,0.0,0.0,0.0,0.0,0.0,0.0,0.0,0.0,0.0,0.0,0.0,0.0,0.0,0.0,0.0,0.0,0.0,0.0,0.0,0.0,0.0,0.0,0.0,0.0,0.0,0.0,0.0,0.0,0.0,0.0,0.0,0.0,0.0,0.0,0.0,0.0,0.0,0.0,0.0,0.0,0.0,0.0,0.0,0.0,0.0,0.0,0.0,0.0,0.0,0.0,0.0,0.0,0.0,0.0,0.0,0.0,0.0,0.0,0.0,0.0,0.0,0.0,0.0,0.0,0.0,0.0,0.0,0.0,0.0,0.0,0.0,0.0,0.0,0.0,0.0,0.0,0.0,0.0,0.0,0.0,0.0,0.0,0.0,0.0,0.0,0.0,0.0,0.0,0.0,0.0,0.0,0.0,0.0,0.0,0.0,0.0,0.0,0.0,0.0,0.0,0.0,0.0,0.0,0.0,-0.9844,-0.9744,-0.9654,0.0,0.0,0.0,0.0,0.0,0.0,0.0,0.0,0.0,0.0,0.0,0.0,0.0,0.0,0.0,0.0,0.0,0.0,0.0,0.0,0.0,0.0,0.0,0.0,0.0,0.0,0.0,0.0,0.0,0.0,0.0,0.0,0.0,0.0,0.0,0.0,0.0,0.0,0.0,0.0,0.0,0.0,0.0,0.0,0.0,0.0,0.0,0.0,0.0,0.0,0.0,0.0,0.0,0.0,0.0,0.0,0.0,0.0,0.0,0.0,0.0,0.0,0.0,0.0,0.0,0.0,0.0,0.0,0.0,0.0,0.0,0.0,0.0,0.0,0.0,0.0,0.0,0.0,0.0,0.0,0.0,0.0,0.0,0.0,0.0,0.0,0.0,0.0,0.0,0.0,0.0,0.0,0.0,0.0,0.0,0.0,0.0,0.0,0.0,0.0,0.0,0.0,0.0,0.0,0.0,0.0,0.0,0.0,0.0,0.0,-1.0707,-1.0452,-1.0421,0.0,-1.0321,0.0,0.0,0.0,0.0,0.0,0.0,0.0,0.0,0.0,0.0,0.0,0.0,0.0,0.0,0.0,0.0,0.0,0.0,0.0,0.0,0.0,0.0,0.0,0.0,0.0,0.0,0.0,0.0,0.0,0.0,0.0,0.0,0.0,0.0,0.0,0.0,0.0,0.0,0.0,0.0,0.0,0.0,0.0,0.0,0.0,0.0,0.0,0.0,0.0,0.0,0.0,0.0,0.0,0.0,0.0,0.0,0.0,0.0,0.0,0.0,0.0,0.0,0.0,0.0,0.0,0.0,0.0,0.0,0.0,0.0,0.0,0.0,0.0,0.0,0.0,0.0,0.0,0.0,0.0,0.0,0.0,0.0,0.0,0.0,0.0,0.0,0.0,0.0,0.0,0.0,0.0,0.0,0.0,0.0,0.0,0.0,0.0,0.0,0.0,0.0,0.0,0.0,0.0,0.0,0.0,0.0,0.0,0.0,0.0,0.0,-1.0798,-1.0855,-1.0584,-1.0605,0.0,0.0,0.0,0.0,0.0,0.0,0.0,0.0,0.0,0.0,0.0,0.0,0.0,0.0,0.0,0.0,0.0,0.0,0.0,0.0,0.0,0.0,0.0,0.0,0.0,0.0,0.0,0.0,0.0,0.0,0.0,0.0,0.0,0.0,0.0,0.0,0.0,0.0,0.0,0.0,0.0,0.0,0.0,0.0,0.0,0.0,0.0,0.0,0.0,0.0,0.0,0.0,0.0,0.0,0.0,0.0,0.0,0.0,0.0,0.0,0.0,0.0,0.0,0.0,0.0,0.0,0.0,0.0,0.0,0.0,0.0,0.0,0.0,0.0,0.0,0.0,0.0,0.0,0.0,0.0,0.0,0.0,0.0,0.0,0.0,0.0,0.0,0.0,0.0,0.0,0.0,0.0,0.0,0.0,0.0,0.0,0.0,0.0,0.0,0.0,0.0,0.0,0.0,0.0,0.0,0.0,0.0,0.0,0.0,0.0,-1.0554,-1.0769,-1.1071,-1.0769,-1.0788,-1.1171,0.0,0.0,0.0,0.0,0.0,0.0,0.0,0.0,0.0,0.0,0.0,0.0,0.0,0.0,0.0,0.0,0.0,0.0,0.0,0.0,0.0,0.0,0.0,0.0,0.0,0.0,0.0,0.0,0.0,0.0,0.0,0.0,0.0,0.0,0.0,0.0,0.0,0.0,0.0,0.0,0.0,0.0,0.0,0.0,0.0,0.0,0.0,0.0,0.0,0.0,0.0,0.0,0.0,0.0,0.0,0.0,0.0,0.0,0.0,0.0,0.0,0.0,0.0,0.0,0.0,0.0,0.0,0.0,0.0,0.0,0.0,0.0,0.0,0.0,0.0,0.0,0.0,0.0,0.0,0.0,0.0,0.0,0.0,0.0,0.0,0.0,0.0,0.0,0.0,0.0,0.0,0.0,0.0,0.0,0.0,0.0,0.0,0.0,0.0,0.0,0.0,0.0,0.0,0.0,0.0,0.0,0.0,0.0,-1.0137,-1.0264,-1.0559,-1.1087,-1.1086,-1.1022,0.0,0.0,0.0,0.0,0.0,0.0,0.0,0.0,0.0,0.0,0.0,0.0,0.0,0.0,0.0,0.0,0.0,0.0,0.0,0.0,0.0,0.0,0.0,0.0,0.0,0.0,0.0,0.0,0.0,0.0,0.0,0.0,0.0,0.0,0.0,0.0,0.0,0.0,0.0,0.0,0.0,0.0,0.0,0.0,0.0,0.0,0.0,0.0,0.0,0.0,0.0,0.0,0.0,0.0,0.0,0.0,0.0,0.0,0.0,0.0,0.0,0.0,0.0,0.0,0.0,0.0,0.0,0.0,0.0,0.0,0.0,0.0,0.0,0.0,0.0,0.0,0.0,0.0,0.0,0.0,0.0,0.0,0.0,0.0,0.0,0.0,0.0,0.0,0.0,0.0,0.0,0.0,0.0,0.0,0.0,0.0,0.0,0.0,0.0,0.0,0.0,0.0,0.0,0.0,0.0,0.0,0.0,0.0,0.0,-1.0122,-1.0445,-1.0773,-1.109,-1.1053,-1.0927,0.0,0.0,0.0,0.0,0.0,0.0,0.0,0.0,0.0,0.0,0.0,0.0,0.0,0.0,0.0,0.0,0.0,0.0,0.0,0.0,0.0,0.0,0.0,0.0,0.0,0.0,0.0,0.0,0.0,0.0,0.0,0.0,0.0,0.0,0.0,0.0,0.0,0.0,0.0,0.0,0.0,0.0,0.0,0.0,0.0,0.0,0.0,0.0,0.0,0.0,0.0,0.0,0.0,0.0,0.0,0.0,0.0,0.0,0.0,0.0,0.0,0.0,0.0,0.0,0.0,0.0,0.0,0.0,0.0,0.0,0.0,0.0,0.0,0.0,0.0,0.0,0.0,0.0,0.0,0.0,0.0,0.0,0.0,0.0,0.0,0.0,0.0,0.0,0.0,0.0,0.0,0.0,0.0,0.0,0.0,0.0,0.0,0.0,0.0,0.0,0.0,0.0,0.0,0.0,0.0,0.0,0.0,0.0,0.0,-1.0015,0.0,-1.087,-1.1089,-1.1147,-1.0965,0.0,0.0,0.0,0.0,0.0,0.0,0.0,0.0,0.0,0.0,0.0,0.0,0.0,0.0,0.0,0.0,0.0,0.0,0.0,0.0,0.0,0.0,0.0,0.0,0.0,0.0,0.0,0.0,0.0,0.0,0.0,0.0,0.0,0.0,0.0,0.0,0.0,0.0,0.0,0.0,0.0,0.0,0.0,0.0,0.0,0.0,0.0,0.0,0.0,0.0,0.0,0.0,0.0,0.0,0.0,0.0,0.0,0.0,0.0,0.0,0.0,0.0,0.0,0.0,0.0,0.0,0.0,0.0,0.0,0.0,0.0,0.0,0.0,0.0,0.0,0.0,0.0,0.0,0.0,0.0,0.0,0.0,0.0,0.0,0.0,0.0,0.0,0.0,0.0,0.0,0.0,0.0,0.0,0.0,0.0,0.0,0.0,0.0,0.0,0.0,0.0,0.0,0.0,0.0,0.0,0.0,0.0,0.0,-1.0029,-0.9851,-1.0408,-1.0866,-1.1103,-1.1369,-1.1187,0.0,0.0,0.0,0.0,0.0,0.0,0.0,0.0,0.0,0.0,0.0,0.0,0.0,0.0,0.0,0.0,0.0,0.0,0.0,0.0,0.0,0.0,0.0,0.0,0.0,0.0,0.0,0.0,0.0,0.0,0.0,0.0,0.0,0.0,0.0,0.0,0.0,0.0,0.0,0.0,0.0,0.0,0.0,0.0,0.0,0.0,0.0,0.0,0.0,0.0,0.0,0.0,0.0,0.0,0.0,0.0,0.0,0.0,0.0,0.0,0.0,0.0,0.0,0.0,0.0,0.0,0.0,0.0,0.0,0.0,0.0,0.0,0.0,0.0,0.0,0.0,0.0,0.0,0.0,0.0,0.0,0.0,0.0,0.0,0.0,0.0,0.0,0.0,0.0,0.0,0.0,0.0,0.0,0.0,0.0,0.0,0.0,0.0,0.0,0.0,0.0,0.0,0.0,0.0,0.0,0.0,0.0,0.0,0.0,-1.0844,-1.1146,-1.1399,-1.1571,-1.1803,-1.1544,0.0,0.0,0.0,0.0,0.0,0.0,0.0,0.0,0.0,0.0,0.0,0.0,0.0,0.0,0.0,0.0,0.0,0.0,0.0,0.0,0.0,0.0,0.0,0.0,0.0,0.0,0.0,0.0,0.0,0.0,0.0,0.0,0.0,0.0,0.0,0.0,0.0,0.0,0.0,0.0,0.0,0.0,0.0,0.0,0.0,0.0,0.0,0.0,0.0,0.0,0.0,0.0,0.0,0.0,0.0,0.0,0.0,0.0,0.0,0.0,0.0,0.0,0.0,0.0,0.0,0.0,0.0,0.0,0.0,0.0,0.0,0.0,0.0,0.0,0.0,0.0,0.0,0.0,0.0,0.0,0.0,0.0,0.0,0.0,0.0,0.0,0.0,0.0,0.0,0.0,0.0,0.0,0.0,0.0,0.0,0.0,0.0,0.0,0.0,0.0,0.0,0.0,0.0,0.0,0.0,0.0,0.0,0.0,0.0,-1.211,-1.2017,-1.2036,-1.2169,-1.2149,-1.1831,-1.1193,0.0,0.0,0.0,0.0,0.0,0.0,0.0,0.0,0.0,0.0,0.0,0.0,0.0,0.0,0.0,0.0,0.0,0.0,0.0,0.0,0.0,0.0,0.0,0.0,0.0,0.0,0.0,0.0,0.0,0.0,0.0,0.0,0.0,0.0,0.0,0.0,0.0,0.0,0.0,0.0,0.0,0.0,0.0,0.0,0.0,0.0,0.0,0.0,0.0,0.0,0.0,0.0,0.0,0.0,0.0,0.0,0.0,0.0,0.0,0.0,0.0,0.0,0.0,0.0,0.0,0.0,0.0,0.0,0.0,0.0,0.0,0.0,0.0,0.0,0.0,0.0,0.0,0.0,0.0,0.0,0.0,0.0,0.0,0.0,0.0,0.0,0.0,0.0,0.0,0.0,0.0,0.0,0.0,0.0,0.0,0.0,0.0,0.0,0.0,0.0,0.0,0.0,0.0,0.0,0.0,0.0,0.0,0.0,-1.3529,-1.3022,-1.2808,-1.2903,-1.2542,-1.2157,0.0,0.0,0.0,0.0,0.0,0.0,0.0,0.0,0.0,0.0,0.0,0.0,0.0,0.0,0.0,0.0,0.0,0.0,0.0,0.0,0.0,0.0,0.0,0.0,0.0,0.0,0.0,0.0,0.0,0.0,0.0,0.0,0.0,0.0,0.0,0.0,0.0,0.0,0.0,0.0,0.0,0.0,0.0,0.0,0.0,0.0,0.0,0.0,0.0,0.0,0.0,0.0,0.0,0.0,0.0,0.0,0.0,0.0,0.0,0.0,0.0,0.0,0.0,0.0,0.0,0.0,0.0,0.0,0.0,0.0,0.0,0.0,0.0,0.0,0.0,0.0,0.0,0.0,0.0,0.0,0.0,0.0,0.0,0.0,0.0,0.0,0.0,0.0,0.0,0.0,0.0,0.0,0.0,0.0,0.0,0.0,0.0,0.0,0.0,0.0,0.0,0.0,0.0,0.0,0.0,0.0,0.0,0.0,0.0,-1.4109,-1.4347,-1.4292,-1.4001,-1.3881,-1.3334,0.0,0.0,0.0,0.0,0.0,0.0,0.0,0.0,0.0,0.0,0.0,0.0,0.0,0.0,0.0,0.0,0.0,0.0,0.0,0.0,0.0,0.0,0.0,0.0,0.0,0.0,0.0,0.0,0.0,0.0,0.0,0.0,0.0,0.0,0.0,0.0,0.0,0.0,0.0,0.0,0.0,0.0,0.0,0.0,0.0,0.0,0.0,0.0,0.0,0.0,0.0,0.0,0.0,0.0,0.0,0.0,0.0,0.0,0.0,0.0,0.0,0.0,0.0,0.0,0.0,0.0,0.0,0.0,0.0,0.0,0.0,0.0,0.0,0.0,0.0,0.0,0.0,0.0,0.0,0.0,0.0,0.0,0.0,0.0,0.0,0.0,0.0,0.0,0.0,0.0,0.0,0.0,0.0,0.0,0.0,0.0,0.0,0.0,0.0,0.0,0.0,0.0,0.0,0.0,0.0,0.0,0.0,0.0,-1.3477,-1.4692,-1.5159,-1.5367,-1.5304,-1.4713,-1.4005,0.0,0.0,0.0,0.0,0.0,0.0,0.0,0.0,0.0,0.0,0.0,0.0,0.0,0.0,0.0,0.0,0.0,0.0,0.0,0.0,0.0,0.0,0.0,0.0,0.0,0.0,0.0,0.0,0.0,0.0,0.0,0.0,0.0,0.0,0.0,0.0,0.0,0.0,0.0,0.0,0.0,0.0,0.0,0.0,0.0,0.0,0.0,0.0,0.0,0.0,0.0,0.0,0.0,0.0,0.0,0.0,0.0,0.0,0.0,0.0,0.0,0.0,0.0,0.0,0.0,0.0,0.0,0.0,0.0,0.0,0.0,0.0,0.0,0.0,0.0,0.0,0.0,0.0,0.0,0.0,0.0,0.0,0.0,0.0,0.0,0.0,0.0,0.0,0.0,0.0,0.0,0.0,0.0,0.0,0.0,0.0,0.0,0.0,0.0,0.0,0.0,0.0,0.0,0.0,0.0,0.0,0.0,0.0,-1.3641,-1.5137,-1.5582,-1.6029,-1.6459,-1.5249,-1.4379,0.0,0.0,0.0,0.0,0.0,0.0,0.0,0.0,0.0,0.0,0.0,0.0,0.0,0.0,0.0,0.0,0.0,0.0,0.0,0.0,0.0,0.0,0.0,0.0,0.0,0.0,0.0,0.0,0.0,0.0,0.0,0.0,0.0,0.0,0.0,0.0,0.0,0.0,0.0,0.0,0.0,0.0,0.0,0.0,0.0,0.0,0.0,0.0,0.0,0.0,0.0,0.0,0.0,0.0,0.0,0.0,0.0,0.0,0.0,0.0,0.0,0.0,0.0,0.0,0.0,0.0,0.0,0.0,0.0,0.0,0.0,0.0,0.0,0.0,0.0,0.0,0.0,0.0,0.0,0.0,0.0,0.0,0.0,0.0,0.0,0.0,0.0,0.0,0.0,0.0,0.0,0.0,0.0,0.0,0.0,0.0,0.0,0.0,0.0,0.0,0.0,0.0,0.0,0.0,0.0,0.0,0.0,0.0,-1.3805,-1.5604,-1.5756,-1.6029,-1.6487,-1.5854,-1.5024,0.0,0.0,0.0,0.0,0.0,0.0,0.0,0.0,0.0,0.0,0.0,0.0,0.0,0.0,0.0,0.0,0.0,0.0,0.0,0.0,0.0,0.0,0.0,0.0,0.0,0.0,0.0,0.0,0.0,0.0,0.0,0.0,0.0,0.0,0.0,0.0,0.0,0.0,0.0,0.0,0.0,0.0,0.0,0.0,0.0,0.0,0.0,0.0,-1.3799,0.0,0.0,0.0,0.0,0.0,0.0,0.0,0.0,0.0,0.0,0.0,0.0,0.0,0.0,0.0,0.0,0.0,0.0,0.0,0.0,0.0,0.0,0.0,0.0,0.0,0.0,0.0,0.0,0.0,0.0,0.0,0.0,0.0,0.0,0.0,0.0,0.0,0.0,0.0,0.0,0.0,0.0,0.0,0.0,0.0,0.0,0.0,0.0,0.0,0.0,0.0,0.0,0.0,0.0,0.0,0.0,0.0,0.0,0.0,-1.3859,-1.5698,-1.5582,-1.58,-1.6421,-1.5833,-1.5002,0.0,0.0,0.0,0.0,0.0,0.0,0.0,0.0,0.0,0.0,0.0,0.0,0.0,0.0,0.0,0.0,0.0,0.0,0.0,0.0,0.0,0.0,0.0,0.0,0.0,0.0,0.0,0.0,0.0,0.0,0.0,0.0,0.0,0.0,0.0,0.0,0.0,0.0,0.0,0.0,0.0,0.0,0.0,0.0,0.0,0.0,0.0,0.0,0.0,0.0,0.0,0.0,0.0,0.0,0.0,0.0,0.0,0.0,0.0,0.0,0.0,0.0,0.0,0.0,0.0,0.0,0.0,0.0,0.0,0.0,0.0,0.0,0.0,0.0,0.0,0.0,0.0,0.0,0.0,0.0,0.0,0.0,0.0,0.0,0.0,0.0,0.0,0.0,0.0,0.0,0.0,0.0,0.0,0.0,0.0,0.0,0.0,0.0,0.0,0.0,0.0,0.0,0.0,0.0,0.0,0.0,0.0,-1.291,-1.3793,-1.5593,-1.5323,-1.5498,-1.6236,-1.5454,-1.4654,-1.3915,0.0,0.0,0.0,0.0,0.0,0.0,0.0,0.0,0.0,0.0,0.0,0.0,0.0,0.0,0.0,0.0,0.0,0.0,0.0,0.0,0.0,0.0,0.0,0.0,0.0,0.0,0.0,0.0,0.0,0.0,0.0,0.0,0.0,0.0,0.0,0.0,0.0,0.0,-1.0955,-1.2534,0.0,0.0,0.0,0.0,0.0,0.0,0.0,0.0,-1.496,0.0,0.0,0.0,0.0,0.0,0.0,0.0,0.0,0.0,0.0,0.0,0.0,0.0,0.0,0.0,0.0,0.0,0.0,0.0,0.0,0.0,0.0,0.0,0.0,0.0,0.0,0.0,0.0,0.0,0.0,0.0,0.0,0.0,0.0,0.0,0.0,0.0,0.0,0.0,0.0,0.0,0.0,0.0,0.0,0.0,0.0,0.0,0.0,0.0,0.0,0.0,0.0,0.0,0.0,0.0,0.0,-1.2899,-1.291,-1.3652,-1.5146,-1.5148,-1.5181,-1.5323,-1.486,-1.4249,-1.3506,0.0,0.0,0.0,0.0,0.0,0.0,0.0,0.0,0.0,0.0,0.0,0.0,0.0,0.0,0.0,0.0,0.0,0.0,0.0,0.0,0.0,0.0,0.0,0.0,0.0,0.0,0.0,0.0,0.0,0.0,0.0,0.0,0.0,0.0,0.0,0.0,0.0,0.0,0.0,-1.3683,-1.4413,0.0,0.0,0.0,0.0,0.0,0.0,0.0,0.0,-1.6764,0.0,0.0,0.0,0.0,0.0,0.0,0.0,0.0,0.0,0.0,0.0,0.0,0.0,0.0,0.0,0.0,0.0,0.0,0.0,0.0,0.0,0.0,0.0,0.0,0.0,0.0,0.0,0.0,0.0,0.0,0.0,0.0,0.0,0.0,0.0,0.0,0.0,0.0,0.0,0.0,0.0,0.0,0.0,0.0,0.0,0.0,0.0,0.0,0.0,0.0,0.0,0.0,0.0,0.0,0.0,-1.2867,-1.291,-1.3619,-1.5039,-1.4864,-1.4733,-1.4722,-1.4356,-1.3805,0.0,0.0,0.0,0.0,0.0,0.0,0.0,0.0,0.0,0.0,0.0,0.0,0.0,0.0,0.0,0.0,0.0,0.0,0.0,0.0,0.0,0.0,0.0,0.0,0.0,0.0,0.0,0.0,0.0,0.0,0.0,0.0,0.0,0.0,0.0,0.0,0.0,0.0,0.0,0.0,-1.4178,-1.4645,-1.5538,0.0,0.0,0.0,0.0,0.0,0.0,-1.7315,-1.7368,0.0,0.0,0.0,0.0,0.0,0.0,0.0,0.0,0.0,0.0,0.0,0.0,0.0,0.0,0.0,0.0,0.0,0.0,0.0,0.0,0.0,0.0,0.0,0.0,0.0,0.0,0.0,0.0,0.0,0.0,0.0,0.0,0.0,0.0,0.0,0.0,0.0,0.0,0.0,0.0,0.0,0.0,0.0,0.0,0.0,0.0,0.0,0.0,0.0,0.0,0.0,0.0,0.0,0.0,0.0,-1.2878,-1.291,-1.3565,-1.4875,-1.4593,-1.4363,-1.4288,-1.3883,-1.3391,0.0,0.0,0.0,0.0,0.0,0.0,0.0,0.0,0.0,0.0,0.0,0.0,0.0,0.0,0.0,0.0,0.0,0.0,0.0,0.0,0.0,0.0,0.0,0.0,0.0,0.0,0.0,0.0,0.0,0.0,0.0,0.0,0.0,0.0,0.0,0.0,0.0,0.0,0.0,0.0,0.0,-1.5079,-1.611,-1.6251,0.0,0.0,0.0,0.0,-1.7778,-1.7863,0.0,0.0,0.0,0.0,0.0,0.0,0.0,0.0,0.0,0.0,0.0,0.0,0.0,0.0,0.0,0.0,0.0,0.0,0.0,0.0,0.0,0.0,0.0,0.0,0.0,0.0,0.0,0.0,0.0,0.0,0.0,0.0,0.0,0.0,0.0,0.0,0.0,0.0,0.0,0.0,0.0,0.0,0.0,0.0,0.0,0.0,0.0,0.0,0.0,0.0,0.0,0.0,0.0,0.0,0.0,0.0,-1.2878,-1.291,-1.3412,-1.4395,-1.4429,-1.4222,-1.3883,-1.3473,-1.3168,0.0,0.0,0.0,0.0,0.0,0.0,0.0,0.0,0.0,0.0,0.0,0.0,0.0,0.0,0.0,0.0,0.0,0.0,0.0,0.0,0.0,0.0,0.0,0.0,0.0,0.0,0.0,0.0,0.0,0.0,0.0,0.0,0.0,0.0,0.0,0.0,0.0,0.0,0.0,0.0,0.0,-1.6301,-1.6761,-1.7337,-1.7774,0.0,0.0,-1.9049,-1.9068,-1.9228,0.0,0.0,0.0,0.0,0.0,0.0,0.0,0.0,0.0,0.0,0.0,0.0,0.0,0.0,0.0,0.0,0.0,0.0,0.0,0.0,0.0,0.0,0.0,0.0,0.0,0.0,0.0,0.0,0.0,0.0,0.0,0.0,0.0,0.0,0.0,0.0,0.0,0.0,0.0,0.0,0.0,0.0,0.0,0.0,0.0,0.0,0.0,0.0,0.0,0.0,0.0,0.0,0.0,0.0,0.0,-1.1973,-1.2857,-1.291,-1.3379,-1.4342,-1.4145,-1.3806,-1.3398,-1.3005,-1.2712,0.0,0.0,0.0,0.0,0.0,0.0,0.0,0.0,0.0,0.0,0.0,0.0,0.0,0.0,0.0,0.0,0.0,0.0,0.0,0.0,0.0,0.0,0.0,0.0,0.0,0.0,0.0,0.0,0.0,0.0,0.0,0.0,0.0,0.0,0.0,0.0,0.0,0.0,0.0,0.0,0.0,0.0,-1.7432,-1.7774,0.0,0.0,0.0,-1.9354,-1.9465,0.0,0.0,0.0,0.0,0.0,0.0,0.0,0.0,0.0,0.0,0.0,0.0,0.0,0.0,0.0,0.0,0.0,0.0,0.0,0.0,0.0,0.0,0.0,0.0,0.0,0.0,0.0,0.0,0.0,0.0,0.0,0.0,0.0,0.0,0.0,0.0,0.0,0.0,0.0,0.0,0.0,0.0,0.0,0.0,0.0,0.0,0.0,0.0,0.0,0.0,0.0,0.0,0.0,0.0,0.0,0.0,0.0,-1.2693,-1.2835,-1.3336,-1.4177,-1.3871,-1.351,-1.311,-1.2714,0.0,0.0,0.0,0.0,0.0,0.0,0.0,0.0,0.0,0.0,0.0,0.0,0.0,0.0,0.0,0.0,0.0,0.0,0.0,0.0,0.0,0.0,0.0,0.0,0.0,0.0,0.0,-0.9484,0.0,0.0,0.0,0.0,0.0,0.0,0.0,0.0,0.0,0.0,0.0,0.0,0.0,0.0,-1.7209,-1.8119,-1.8245,-1.8458,0.0,0.0,-1.9413,-1.9574,-1.965,-1.9708,0.0,0.0,0.0,0.0,0.0,0.0,0.0,0.0,0.0,0.0,0.0,0.0,0.0,0.0,0.0,0.0,0.0,0.0,0.0,0.0,0.0,0.0,0.0,0.0,0.0,0.0,0.0,0.0,0.0,0.0,0.0,0.0,0.0,0.0,0.0,0.0,0.0,0.0,0.0,0.0,0.0,0.0,0.0,0.0,0.0,0.0,0.0,0.0,0.0,0.0,0.0,0.0,0.0,0.0,0.0,-1.2243,-1.2661,-1.3172,-1.3718,-1.3718,-1.3521,-1.311,-1.2714,-1.2366,0.0,0.0,0.0,0.0,0.0,0.0,0.0,0.0,0.0,0.0,0.0,0.0,0.0,0.0,0.0,0.0,0.0,0.0,0.0,0.0,0.0,0.0,0.0,0.0,0.0,0.0,0.0,0.0,0.0,0.0,0.0,0.0,0.0,0.0,0.0,0.0,0.0,0.0,0.0,0.0,0.0,-1.8342,-1.8858,-1.9076,-1.9169,0.0,0.0,-1.9593,-1.9593,-1.965,-1.9726,-1.978,0.0,0.0,0.0,0.0,0.0,0.0,0.0,0.0,0.0,0.0,0.0,0.0,0.0,0.0,0.0,0.0,0.0,0.0,0.0,0.0,0.0,0.0,0.0,0.0,0.0,0.0,0.0,0.0,0.0,0.0,0.0,0.0,0.0,0.0,0.0,0.0,0.0,0.0,0.0,0.0,0.0,0.0,0.0,0.0,0.0,0.0,0.0,0.0,0.0,0.0,0.0,0.0,0.0,-1.1733,-1.221,-1.265,-1.3161,-1.3652,-1.339,-1.3181,-1.3099,-1.2377,-1.1998,0.0,0.0,0.0,0.0,0.0,0.0,0.0,0.0,0.0,0.0,0.0,0.0,0.0,0.0,0.0,0.0,0.0,0.0,0.0,0.0,0.0,0.0,0.0,0.0,0.0,0.0,0.0,0.0,-1.1308,-1.2013,-1.2611,0.0,0.0,0.0,0.0,0.0,0.0,0.0,0.0,0.0,0.0,-1.853,-1.9084,-1.9564,0.0,0.0,-2.0404,-2.0648,-2.0318,-2.0314,-2.0202,-1.9855,-1.994,0.0,0.0,0.0,0.0,0.0,0.0,0.0,0.0,0.0,0.0,0.0,0.0,0.0,0.0,0.0,0.0,0.0,0.0,0.0,0.0,0.0,0.0,0.0,0.0,0.0,0.0,0.0,0.0,0.0,0.0,0.0,0.0,0.0,0.0,0.0,0.0,0.0,0.0,0.0,0.0,0.0,0.0,0.0,0.0,0.0,0.0,0.0,0.0,0.0,0.0,0.0,0.0,-1.1667,-1.1984,-1.2594,-1.3009,-1.3227,-1.3019,-1.2866,-1.2815,-1.2083,-1.166,0.0,0.0,0.0,0.0,0.0,0.0,0.0,0.0,0.0,0.0,0.0,0.0,0.0,0.0,0.0,0.0,0.0,0.0,0.0,0.0,0.0,0.0,0.0,0.0,0.0,0.0,0.0,0.0,-1.1937,-1.2624,-1.3505,0.0,0.0,0.0,0.0,0.0,0.0,0.0,0.0,0.0,0.0,-1.8717,-1.9225,-1.9845,-2.0333,-2.0476,-2.1094,-2.1431,-2.1062,-2.1011,-2.0899,-2.0511,0.0,0.0,0.0,0.0,0.0,0.0,0.0,0.0,0.0,0.0,0.0,0.0,0.0,0.0,0.0,0.0,0.0,0.0,0.0,0.0,0.0,0.0,0.0,0.0,0.0,0.0,0.0,0.0,0.0,0.0,-0.8214,0.0,0.0,0.0,0.0,0.0,0.0,0.0,0.0,0.0,0.0,0.0,0.0,0.0,0.0,0.0,0.0,0.0,0.0,0.0,0.0,0.0,0.0,-1.1515,-1.1536,-1.2421,-1.2692,-1.2287,-1.267,-1.2681,-1.2243,-1.1888,-1.145,-1.0946,0.0,0.0,0.0,0.0,0.0,0.0,0.0,0.0,0.0,0.0,0.0,0.0,0.0,0.0,0.0,0.0,0.0,0.0,0.0,0.0,0.0,0.0,0.0,0.0,0.0,0.0,-1.2566,-1.2747,-1.3206,0.0,0.0,0.0,0.0,0.0,0.0,0.0,0.0,0.0,0.0,-1.875,-1.9128,-1.9284,-1.9935,-2.0454,-2.0506,-2.1202,-2.171,-2.168,-2.1744,-2.1812,0.0,0.0,0.0,0.0,0.0,0.0,0.0,0.0,0.0,0.0,0.0,0.0,0.0,0.0,0.0,0.0,0.0,0.0,0.0,0.0,0.0,0.0,0.0,0.0,0.0,0.0,0.0,-0.9034,-0.9012,0.0,0.0,0.0,0.0,0.0,0.0,0.0,0.0,0.0,0.0,0.0,-0.9997,-1.0427,0.0,0.0,0.0,0.0,0.0,0.0,0.0,0.0,0.0,0.0,0.0,0.0,-1.1504,-1.1547,-1.2421,-1.267,-1.2232,-1.266,-1.2681,-1.2221,-1.1812,-1.1366,-1.0912,0.0,0.0,0.0,0.0,0.0,0.0,0.0,0.0,0.0,0.0,0.0,0.0,0.0,0.0,0.0,0.0,0.0,0.0,0.0,0.0,0.0,0.0,0.0,0.0,0.0,-1.3164,0.0,0.0,0.0,0.0,0.0,0.0,0.0,0.0,0.0,0.0,0.0,-1.8263,-1.8712,-1.8966,-1.9157,-1.9339,-2.038,-2.1159,0.0,0.0,0.0,0.0,0.0,0.0,0.0,0.0,0.0,0.0,0.0,0.0,0.0,0.0,-2.2044,-2.16,-2.1573,-2.1482,-2.0989,0.0,0.0,0.0,0.0,0.0,0.0,0.0,0.0,0.0,0.0,0.0,0.0,0.0,0.0,-0.939,0.0,-0.939,0.0,0.0,0.0,0.0,0.0,0.0,0.0,0.0,-1.0034,-1.017,-1.0197,-1.0624,-1.0987,0.0,-1.1391,-1.1572,0.0,0.0,0.0,0.0,0.0,0.0,0.0,0.0,-1.158,-1.1755,-1.2343,-1.2507,-1.2232,-1.2496,-1.2431,-1.1981,-1.1493,-1.1213,-1.1113,-1.0966,-1.0887,0.0,0.0,0.0,0.0,0.0,0.0,0.0,0.0,0.0,0.0,0.0,0.0,0.0,0.0,0.0,0.0,0.0,0.0,0.0,0.0,0.0,0.0,0.0,-1.3464,0.0,0.0,0.0,0.0,0.0,0.0,0.0,0.0,0.0,-1.7942,-1.8147,-1.8452,-1.8936,-1.9111,-1.9213,-1.9391,0.0,0.0,0.0,0.0,0.0,0.0,0.0,-2.308,-2.2753,-2.3009,-2.3203,-2.3052,-2.3135,-2.3228,-2.3243,0.0,0.0,-2.2406,-2.2304,-2.2197,-2.172,-2.1724,-2.1967,-2.2466,-2.2244,-2.2117,0.0,0.0,0.0,0.0,0.0,0.0,0.0,0.0,-0.9438,-0.9477,0.0,-0.9453,0.0,0.0,0.0,0.0,0.0,-0.9739,0.0,0.0,-1.0131,-1.0311,-1.036,-1.0972,-1.1418,-1.1676,-1.1744,-1.2004,-1.2345,-1.1739,0.0,0.0,0.0,0.0,0.0,0.0,-1.1765,-1.221,-1.2254,-1.2232,-1.221,-1.221,-1.1973,-1.1507,-1.1046,-1.102,-1.1427,-1.1031,-1.1062,-1.1616,-1.1384,0.0,0.0,0.0,0.0,0.0,0.0,0.0,0.0,0.0,0.0,0.0,0.0,0.0,0.0,0.0,0.0,0.0,0.0,0.0,0.0,-1.3509,0.0,0.0,0.0,0.0,0.0,0.0,0.0,0.0,0.0,0.0,-1.7919,-1.8427,-1.8836,-1.8979,0.0,0.0,0.0,0.0,-2.157,-2.1675,-2.2757,-2.355,-2.355,-2.3743,-2.3876,-2.3897,0.0,0.0,-2.3989,-2.3916,-2.3916,-2.3935,-2.4441,-2.4559,-2.3212,-2.3,-2.3008,-2.2945,-2.2964,-2.308,-2.3129,-2.3138,-2.3211,-1.0239,0.0,0.0,0.0,0.0,-1.0074,-1.0185,-1.0185,-1.0185,-1.0185,-1.0185,-1.0185,0.0,0.0,0.0,0.0,0.0,0.0,-1.0367,-1.0268,-1.0397,-1.0504,-1.0597,-1.088,-1.115,-1.141,-1.1735,-1.2072,-1.245,-1.2253,-1.216,-1.2257,0.0,0.0,0.0,0.0,-1.2563,-1.2692,-1.2714,-1.2519,-1.2122,-1.2142,-1.1906,-1.1451,-1.0917,-1.0751,-1.0998,-1.0867,-1.0909,-1.1129,-1.1404,0.0,0.0,0.0,0.0,0.0,0.0,0.0,0.0,0.0,0.0,0.0,0.0,0.0,0.0,0.0,0.0,0.0,0.0,0.0,-1.4177,-1.3878,-1.3779,0.0,0.0,0.0,0.0,0.0,0.0,0.0,0.0,0.0,-1.8442,-1.8617,-1.8769,0.0,0.0,-1.9768,-1.945,-2.103,-2.2096,-2.1749,-2.2418,0.0,-2.2957,-2.2671,-2.246,-2.2555,-2.3266,-2.3927,-2.4326,-2.4409,-2.4393,-2.4378,-2.455,-2.457,-2.4225,-2.3843,-2.3483,-2.3061,-2.2952,-2.3163,-2.3663,-2.3478,-2.3293,-1.0589,-1.0254,-1.0394,-1.0454,-1.0478,-1.0788,-1.083,-1.0703,-1.0703,-1.0623,-1.0496,-1.0496,-1.0547,-1.0616,-1.0624,0.0,0.0,0.0,-1.0807,-1.0763,-1.0737,-1.0755,-1.0904,-1.0894,-1.1023,-1.1226,-1.1694,-1.2101,-1.2505,-1.2569,-1.2623,-1.2727,0.0,0.0,-1.2722,-1.2774,-1.2861,-1.3033,-1.2882,-1.2623,-1.2302,-1.1937,-1.1606,-1.1309,-1.1019,-1.0906,-1.1043,-1.1032,-1.1068,-1.1128,-1.1534,-1.1721,0.0,0.0,0.0,0.0,0.0,0.0,0.0,0.0,0.0,0.0,0.0,-1.2653,-1.3032,0.0,0.0,0.0,-1.3974,-1.3962,-1.39,-1.4012,0.0,0.0,0.0,0.0,0.0,0.0,0.0,-1.7819,-1.8226,-1.8503,-1.86,-1.8745,-1.8932,-1.9204,-1.9768,-2.0041,-1.9761,0.0,-2.1882,-2.1322,-2.1839,-2.2313,-2.2313,-2.2014,-2.1862,-2.2067,-2.2601,-2.3161,-2.3662,-2.3779,-2.3819,-2.383,-2.4017,-2.4111,-2.3861,-2.3775,-2.3789,-2.3601,-2.3569,-2.3746,-2.4213,-2.4021,-2.396,-1.0653,-1.0862,-1.1178,-1.129,-1.13,-1.141,-1.1293,-1.1042,-1.1042,-1.0878,-1.0576,-1.0544,-1.0536,-1.0536,-1.0568,0.0,-1.0591,-1.0918,-1.1115,-1.1258,-1.1123,-1.1126,-1.1193,-1.1025,-1.0997,-1.1091,-1.1628,-1.2076,-1.2455,-1.2749,-1.2983,-1.3164,-1.2695,-1.253,-1.2658,-1.2669,-1.2881,-1.3295,-1.2849,-1.2595,-1.2542,-1.1716,-1.1242,-1.1229,-1.1219,-1.1284,-1.1365,-1.1384,-1.1421,-1.1504,-1.1701,-1.1892,-1.2084,0.0,0.0,0.0,0.0,0.0,0.0,0.0,0.0,0.0,0.0,0.0,0.0,0.0,0.0,0.0,-1.3909,0.0,-1.3319,-1.4229,0.0,0.0,0.0,-1.6615,-1.7404,-1.7422,-1.7638,-1.8249,0.0,0.0,-1.8556,-1.8827,-1.9248,-1.9854,-2.0079,-2.0182,-2.0143,-2.0887,-2.1263,-2.0644,-2.1123,-2.157,-2.1565,-2.1544,-2.162,-2.1904,-2.2148,-2.2274,-2.2477,-2.2552,-2.258,-2.2608,-2.306,-2.3309,-2.2674,-2.3075,-2.3651,-2.416,-2.4324,-2.436,-2.4318,-2.443,-2.4539,-1.0965,-1.1027,-1.1211,-1.1204,-1.1102,-1.1272,-1.1302,-1.124,-1.1328,-1.1348,-1.126,-1.1014,-1.0902,-1.0883,-1.113,-1.1276,-1.1276,-1.1511,-1.1634,-1.1654,-1.1709,-1.1579,-1.1202,-1.1351,-1.1273,-1.1015,-1.1469,-1.1893,-1.22,-1.2554,-1.2871,-1.3104,-1.304,-1.307,-1.322,-1.3313,-1.3421,-1.3525,-1.3068,-1.2606,-1.2146,-1.1868,-1.1613,-1.1347,-1.1417,-1.1339,-1.1185,-1.1327,-1.1421,-1.1504,-1.1645,-1.1826,-1.2077,-1.2088,0.0,0.0,0.0,0.0,0.0,0.0,0.0,0.0,0.0,-1.3439,-1.3728,0.0,-1.4156,0.0,-1.5394,-1.5757,-1.582,-1.6059,0.0,0.0,-1.6628,-1.712,-1.7315,-1.7725,-1.8154,-1.8567,-1.8702,-1.8817,-1.8946,-1.9116,-1.9443,-2.0036,-2.0113,-1.9992,-1.9616,-2.0612,-2.1193,-2.0592,-2.0625,-2.0767,-2.0709,-2.0426,-2.0404,-2.096,-2.1201,-2.1496,-2.2018,-2.2144,-2.2148,-2.2133,-2.2255,-2.2301,-2.2152,-2.2286,-2.2408,-2.2611,-2.286,-2.307,-2.3104,-2.3158,-2.3199,-1.0782,-1.0877,-1.0965,-1.0948,-1.0937,-1.1368,-1.1424,-1.1308,-1.1437,-1.1438,-1.1269,-1.109,-1.0977,-1.102,-1.1283,-1.1418,-1.1434,-1.1833,-1.2049,-1.2106,-1.2192,-1.2112,-1.1894,-1.1699,-1.1467,-1.1214,-1.1531,-1.1803,-1.2017,-1.2357,-1.2618,-1.2822,-1.2852,-1.2963,-1.3084,-1.33,-1.3409,-1.3409,-1.2991,-1.2609,-1.2264,-1.2019,-1.182,-1.163,-1.1673,-1.1562,-1.1278,-1.1443,-1.1523,-1.1507,-1.1678,-1.1888,-1.215,-1.2541,-1.2788,0.0,0.0,0.0,0.0,0.0,0.0,0.0,0.0,0.0,0.0,0.0,-1.5028,-1.5624,-1.6111,-1.6465,-1.6628,-1.6866,-1.6976,-1.6862,-1.7313,-1.7658,-1.7735,-1.8001,-1.8341,-1.8667,-1.8774,-1.8874,-1.904,-1.9134,-1.9326,-1.9671,-1.9691,-1.9677,-1.972,-2.0367,-2.0651,-2.0004,-1.9963,-1.9986,-1.9958,-1.9723,-1.9664,-2.0042,-2.0299,-2.0563,-2.091,-2.1042,-2.1132,-2.1147,-2.1356,-2.1432,-2.1174,-2.1371,-2.1478,-2.1227,-2.1299,-2.1679,-2.2291,-2.2452,-2.2512,-1.0371,-1.053,-1.053,-1.0618,-1.0807,-1.1373,-1.1515,-1.1346,-1.1488,-1.1366,-1.1069,-1.1115,-1.1107,-1.1077,-1.1295,-1.1433,-1.1448,-1.2052,-1.2424,-1.2571,-1.2563,-1.2634,-1.2743,-1.2074,-1.172,-1.1653,-1.173,-1.1824,-1.1975,-1.2203,-1.2372,-1.2505,-1.2505,-1.2554,-1.2676,-1.2997,-1.3146,-1.317,-1.2806,-1.2649,-1.2626,-1.2245,-1.1993,-1.1943,-1.1965,-1.1852,-1.1573,-1.1726,-1.1769,-1.1692,-1.1957,-1.2194,-1.2438,-1.315,-1.3658,0.0,-1.4372,0.0,0.0,0.0,0.0,0.0,0.0,0.0,0.0,-1.5613,-1.6181,-1.6481,-1.6568,-1.665,-1.6753,-1.7204,-1.7482,-1.7472,-1.7779,-1.8048,-1.824,-1.8228,-1.8321,-1.8634,-1.876,-1.8874,-1.8998,-1.9078,-1.9139,-1.9182,-1.9178,-1.9319,-1.9793,-1.9987,-1.9875,-1.9338,-1.9302,-1.9357,-1.9342,-1.9298,-1.9298,-1.9391,-1.9568,-1.9639,-1.9713,-1.9855,-1.9932,-1.9992,-2.0412,-2.06,-2.0043,-2.0452,-2.0622,-2.0149,-2.0076,-2.0466,-2.1506,-2.186,-2.2058,-1.0079,-1.0117,-1.0117,-1.0206,-1.0428,-1.0713,-1.1094,-1.1565,-1.1681,-1.1616,-1.1411,-1.1745,-1.1714,-1.1448,-1.1775,-1.2027,-1.2118,-1.2402,-1.267,-1.2912,-1.2912,-1.2786,-1.2564,-1.2501,-1.2275,-1.1956,-1.2043,-1.2174,-1.2329,-1.2316,-1.2372,-1.2505,-1.2505,-1.2505,-1.2544,0.0,0.0,0.0,-1.289,-1.2836,-1.285,-1.2757,-1.2541,-1.2175,-1.236,0.0,-1.1874,-1.2215,-1.2487,-1.2628,-1.2984,0.0,0.0,0.0,0.0,0.0,0.0,0.0,0.0,0.0,0.0,0.0,-1.5692,-1.5884,-1.566,-1.6327,-1.6829,-1.6967,-1.7405,-1.7699,-1.7738,-1.782,-1.7857,-1.7805,-1.7874,-1.7955,-1.8062,-1.8149,-1.8282,-1.8517,-1.8788,-1.8998,-1.9059,-1.9213,-1.9302,-1.9246,-1.9157,-1.9107,-1.919,-1.9295,-1.9261,-1.9088,-1.9003,-1.8931,-1.8898,-1.8984,-1.9074,-1.9153,-1.9284,-1.938,-1.945,-1.9487,-1.9523,-1.9538,-1.9627,-1.9738,-1.968,-1.9803,-1.9899,-1.9774,-1.9762,-1.9906,-2.0324,-2.0492,-2.0569,-0.9866,0.0,-0.9809,-0.9919,0.0,-1.0371,-1.0744,-1.1216,-1.1459,-1.1496,-1.141,-1.1611,-1.1558,-1.1342,-1.1704,-1.191,-1.1965,-1.2406,-1.2683,-1.2805,-1.292,-1.2921,-1.2731,-1.2638,-1.2522,-1.2351,-1.2314,-1.235,-1.2475,-1.2554,-1.2594,-1.2628,-1.2505,-1.248,-1.2556,-1.2624,-1.2759,-1.2915,-1.2915,-1.2915,-1.2915,-1.2915,-1.2798,-1.2568,-1.2748,0.0,0.0,0.0,0.0,0.0,0.0,0.0,0.0,0.0,0.0,-1.4703,-1.5061,-1.5314,-1.5344,-1.5529,-1.5713,-1.5848,-1.6347,-1.665,-1.6644,-1.7015,-1.7302,-1.7401,-1.7678,-1.7868,-1.7855,-1.7855,-1.7794,-1.7713,-1.7693,-1.7774,-1.7915,-1.8009,-1.8183,-1.8459,-1.8648,-1.8807,-1.8936,-1.9045,-1.9082,-1.9049,-1.8993,-1.8931,-1.8908,-1.8931,-1.8931,-1.8865,-1.875,-1.8664,-1.8736,-1.8736,-1.8807,-1.8946,-1.9082,-1.9195,-1.9246,-1.9339,-1.9409,-1.9409,-1.9409,-1.9446,-1.9556,-1.9593,-1.9629,-1.9672,-1.9723,-1.9726,-1.9833,-1.9904,-2.001,-0.971,-0.9854,-0.9661,-0.9799,-1.0128,-1.0329,-1.0585,-1.0876,0.0,0.0,0.0,-1.1272,-1.1185,-1.1122,-1.1373,-1.1529,-1.1622,-1.2151,-1.2467,-1.259,-1.2797,-1.2889,-1.2934,-1.2677,-1.2596,-1.2697,-1.2558,-1.2548,-1.2651,-1.2764,-1.2776,-1.2777,-1.2592,-1.2518,-1.2585,-1.2613,-1.271,-1.2832,-1.2881,-1.2915,-1.2915,-1.2915,-1.2915,-1.2915,-1.3041,-1.2992,-1.2735,-1.3072,-1.3211,-1.3194,-1.3573,-1.393,-1.4149,-1.4851,-1.5205,-1.5133,-1.5714,-1.6057,-1.5979,-1.6228,-1.6457,-1.6522,-1.6812,-1.7107,-1.7406,-1.7434,-1.7488,-1.7597,-1.7618,-1.7597,-1.7577,-1.7577,-1.7522,-1.7413,-1.7434,-1.7529,-1.7781,-1.7882,-1.8023,-1.8321,-1.8439,-1.8542,-1.8721,-1.8779,-1.8798,-1.8765,-1.8779,-1.8741,-1.8721,-1.8707,-1.8702,-1.86,-1.8503,-1.8498,-1.8576,-1.8537,-1.8542,-1.8721,-1.8893,-1.9026,-1.9064,-1.9191,-1.9284,-1.9265,-1.9302,-1.9372,-1.9483,-1.9505,-1.9593,-1.9687,-1.969,-1.9723,-1.9723,-1.9759,-1.9851,-0.969,-0.9759,-0.9892,-1.0149,-1.0526,-1.0731,-1.0928,-1.1137,-1.1139,-1.1122,-1.1122,-1.1122,-1.1122,-1.1097,-1.1153,-1.131,-1.1591,-1.1685,-1.2027,-1.259,-1.2459,-1.2552,-1.2805,-1.2779,-1.2763,-1.2791,-1.2831,-1.2848,-1.2843,-1.284,-1.2776,-1.2784,-1.275,-1.2699,-1.2594,-1.2438,-1.2431,-1.2554,-1.2783,-1.2915,-1.2915,-1.2915,-1.2915,-1.2905,-1.3069,-1.3174,-1.3127,-1.3588,-1.3975,-1.4176,-1.4519,-1.4845,-1.5091,-1.5338,-1.544,-1.5418,-1.5545,-1.5647,-1.5836,-1.5979,-1.6241,-1.6633,-1.6812,-1.696,-1.7065,-1.7178,-1.724,-1.7274,-1.7282,-1.722,-1.7107,-1.7107,-1.7128,-1.7107,-1.7191,-1.7316,-1.7466,-1.772,-1.7922,-1.8003,-1.8195,-1.8392,-1.8523,-1.862,-1.8678,-1.8692,-1.8615,-1.8484,-1.8366,-1.8425,-1.8459,-1.8321,-1.8262,-1.8248,-1.8288,-1.8313,-1.8372,-1.8523,-1.8673,-1.8793,-1.8855,-1.8912,-1.895,-1.8898,-1.9021,-1.9111,-1.9191,-1.9306,-1.945,-1.9593,-1.9669,-1.9708,-1.9723,-1.9726,-1.978,-0.9595,-0.9745,-0.9833,-1.009,-1.0471,-1.0742,-1.094,-1.1115,-1.0983,-1.0939,-1.0947,-1.0933,-1.0902,-1.0846,-1.0902,-1.1028,-1.1178,-1.1466,-1.1747,-1.2058,-1.2158,-1.2336,-1.2521,-1.2521,-1.2621,-1.2789,-1.2825,-1.2875,-1.2957,-1.2915,-1.2985,-1.3064,-1.3046,-1.2991,-1.2922,-1.2608,-1.2584,-1.2837,-1.2791,-1.2783,-1.2774,-1.2847,-1.2915,-1.2915,-1.3065,-1.3166,-1.3218,-1.3644,-1.401,-1.4303,-1.4686,-1.496,-1.5085,-1.5278,-1.5368,-1.5289,-1.5345,-1.5446,-1.5637,-1.5935,-1.6231,-1.6513,-1.6641,-1.6693,-1.6748,-1.6926,-1.7031,-1.7031,-1.7044,-1.7023,-1.696,-1.6939,-1.696,-1.6939,-1.7002,-1.7107,-1.7267,-1.7419,-1.7625,-1.7828,-1.8009,-1.8149,-1.8321,-1.84,-1.842,-1.842,-1.8361,-1.8268,-1.8129,-1.8175,-1.8208,-1.8101,-1.8095,-1.8082,-1.8082,-1.8121,-1.8201,-1.8372,-1.8503,-1.8634,-1.8716,-1.8779,-1.8803,-1.8803,-1.8908,-1.9017,-1.9097,-1.9265,-1.9446,-1.9556,-1.965,-1.9705,-1.9708,-1.9726,-1.9812,-0.9579,-0.9887,-0.992,-1.019,-1.0572,-1.082,-1.1004,-1.1136,-1.0893,-1.08,-1.0807,-1.0777,-1.075,-1.0687,-1.0746,-1.0776,-1.087,-1.1216,-1.1498,-1.1622,-1.1872,-1.2089,-1.2243,-1.2274,-1.2406,-1.2683,-1.2744,-1.2844,-1.2928,-1.2989,-1.308,-1.3268,-1.3168,-1.3132,-1.3185,-1.2824,-1.272,-1.287,-1.2723,-1.2624,-1.2652,-1.2783,-1.2856,-1.2856,-1.3002,-1.3123,-1.318,-1.3549,-1.3881,-1.4163,-1.4547,-1.4823,-1.4869,-1.5074,-1.5154,-1.5062,-1.5131,-1.5323,-1.5536,-1.5925,-1.6231,-1.6392,-1.6457,-1.6479,-1.6522,-1.6693,-1.6812,-1.6812,-1.6812,-1.6799,-1.6778,-1.6812,-1.6812,-1.6812,-1.6833,-1.6918,-1.7052,-1.7149,-1.7323,-1.7686,-1.7808,-1.7942,-1.8083,-1.8163,-1.8169,-1.8169,-1.8129,-1.8089,-1.8016,-1.7982,-1.7982,-1.7982,-1.7982,-1.7962,-1.7982,-1.7988,-1.8068,-1.8206,-1.8333,-1.8445,-1.8542,-1.8625,-1.8669,-1.8688,-1.8836,-1.8946,-1.9026,-1.9228,-1.9376,-1.9487,-1.956,-1.9632,-1.9669,-1.9744,-1.9848,-0.9814,-1.0147,-1.0327,-1.0779,-1.1249,-1.1249,-1.1255,-1.1223,-1.0918,-1.082,-1.0812,-1.073,-1.0791,-1.0915,-1.0752,-1.0708,-1.0821,-1.087,-1.1136,-1.1575,-1.1622,-1.1817,-1.2127,-1.2143,-1.2189,-1.239,-1.256,-1.2716,-1.287,-1.2952,-1.3089,-1.326,-1.3042,-1.305,-1.3144,-1.2898,-1.2618,-1.2298,-1.2384,-1.2452,-1.2533,-1.2652,-1.2735,-1.2735,-1.2964,-1.3099,-1.3099,-1.344,-1.3739,-1.401,-1.428,-1.4546,-1.4776,-1.4834,-1.488,-1.4915,-1.4937,-1.5142,-1.5649,-1.5891,-1.6132,-1.6349,-1.6392,-1.6448,-1.6479,-1.6522,-1.6543,-1.6543,-1.6556,-1.6565,-1.6543,-1.6556,-1.6577,-1.6586,-1.6641,-1.6718,-1.6782,-1.7023,-1.7233,-1.7253,-1.7543,-1.7781,-1.7889,-1.7975,-1.8022,-1.8022,-1.7989,-1.7963,-1.7942,-1.7942,-1.7942,-1.7922,-1.7922,-1.7922,-1.7942,-1.7975,-1.7988,-1.8042,-1.8135,-1.8248,-1.8307,-1.8333,-1.8358,-1.8475,-1.8611,-1.8784,-1.8879,-1.9064,-1.9302,-1.9325,-1.9395,-1.9483,-1.9593,-1.9705,-1.983,-0.9733,-1.0218,-1.04,-1.0775,-1.1168,-1.1064,-1.0985,-1.0973,-1.084,-1.0858,-1.0965,-1.1035,-1.1073,-1.1074,-1.1056,-1.1008,-1.0926,-1.1219,-1.1336,-1.1417,-1.1638,-1.1952,-1.2294,-1.236,-1.2458,-1.2685,-1.2783,-1.2913,-1.3083,-1.3163,-1.3215,-1.3268,-1.307,-1.3058,-1.3195,-1.292,-1.2768,-1.2751,-1.2368,-1.2209,-1.2331,-1.2429,-1.2505,-1.2588,-1.2686,-1.2832,-1.2968,-1.3166,-1.3396,-1.375,-1.401,-1.4244,-1.443,-1.4523,-1.4616,-1.472,-1.4926,-1.5198,-1.557,-1.578,-1.5957,-1.6141,-1.6219,-1.6297,-1.6318,-1.634,-1.6318,-1.634,-1.6448,-1.6513,-1.6513,-1.6513,-1.6513,-1.65,-1.6543,-1.662,-1.6697,-1.6825,-1.6973,-1.7157,-1.7337,-1.7468,-1.7632,-1.7754,-1.7835,-1.7909,-1.7922,-1.7902,-1.7902,-1.7902,-1.7902,-1.7902,-1.7902,-1.7902,-1.7902,-1.7909,-1.7955,-1.7988,-1.8042,-1.8095,-1.8169,-1.8208,-1.8254,-1.8299,-1.8509,-1.8644,-1.8721,-1.895,-1.9176,-1.9195,-1.9321,-1.9428,-1.945,-1.9593,-1.9705,-0.9715,-1.0186,-1.0406,-1.0663,-1.0925,-1.0775,-1.07,-1.0738,-1.0775,-1.0887,-1.1013,-1.1308,-1.1371,-1.1278,-1.1365,-1.1269,-1.1156,-1.1465,-1.1519,-1.1376,-1.1702,-1.1996,-1.2316,-1.2383,-1.2586,-1.283,-1.2916,-1.3016,-1.321,-1.3239,-1.3227,-1.3276,-1.309,-1.3098,-1.3233,-1.2947,-1.2861,-1.2937,-1.2406,-1.2145,-1.2105,-1.2142,-1.2245,-1.2391,-1.2455,-1.2603,-1.2783,-1.2876,-1.3084,-1.342,-1.3692,-1.3905,-1.4082,-1.4257,-1.443,-1.4604,-1.4903,-1.5176,-1.5379,-1.558,-1.577,-1.5891,-1.6035,-1.6113,-1.6169,-1.6313,-1.6409,-1.6468,-1.6665,-1.6803,-1.6439,-1.6573,-1.6632,-1.6516,-1.6479,-1.6543,-1.662,-1.6663,-1.6803,-1.701,-1.7136,-1.7282,-1.7455,-1.7591,-1.7686,-1.7801,-1.7842,-1.7882,-1.7902,-1.7902,-1.7902,-1.7902,-1.7902,-1.7902,-1.7902,-1.7922,-1.7929,-1.7935,-1.7975,-1.8016,-1.8109,-1.8129,-1.8169,-1.8234,-1.84,-1.8556,-1.8678,-1.8874,-1.9026,-1.9064,-1.9172,-1.9302,-1.9302,-1.9446,-1.9574,-0.9818,-1.0191,-1.04,-1.0519,-1.0556,-1.0519,-1.0519,-1.0481,-1.0706,-1.0775,-1.0887,-1.1422,-1.1675,-1.1641,-1.1528,-1.1395,-1.141,-1.1456,-1.1559,-1.1655,-1.1717,-1.1819,-1.1935,-1.2112,-1.2337,-1.2606,-1.2791,-1.2938,-1.3051,-1.3057,-1.3117,-1.3294,-1.3097,-1.3084,-1.3211,-1.3036,-1.2852,-1.2613,-1.2481,-1.2287,-1.1899,-1.1841,-1.1929,-1.2124,-1.2357,-1.2471,-1.2529,-1.2652,-1.2813,-1.3016,-1.329,-1.3539,-1.381,-1.4059,-1.4326,-1.4569,-1.4914,-1.5108,-1.5153,-1.5356,-1.557,-1.5693,-1.5748,-1.5893,-1.6054,-1.6508,-1.6809,-1.6952,-1.7381,-1.7283,-1.652,-1.6853,-1.6968,-1.6551,-1.6495,-1.6559,-1.6522,-1.662,-1.6697,-1.6769,-1.6989,-1.724,-1.7434,-1.7516,-1.757,-1.7666,-1.7699,-1.774,-1.7862,-1.7882,-1.7902,-1.7902,-1.7902,-1.7902,-1.7902,-1.7902,-1.7902,-1.7922,-1.7929,-1.7909,-1.7929,-1.7975,-1.8089,-1.8189,-1.8307,-1.8464,-1.862,-1.8736,-1.8798,-1.8874,-1.9007,-1.9116,-1.9153,-1.9302,-1.9413,-0.9818,-1.0218,-1.0406,-1.0368,-1.0143,-1.0255,-1.018,-0.9997,-1.04,-1.0588,-1.0738,-1.1372,-1.1706,-1.1731,-1.1903,-1.1884,-1.173,-1.1904,-1.1926,-1.1856,-1.2004,-1.217,-1.2349,-1.2414,-1.2564,-1.2742,-1.297,-1.3219,-1.3479,-1.3396,-1.3359,-1.3366,-1.315,-1.2979,-1.2971,-1.2925,-1.2812,-1.2679,-1.2443,-1.227,-1.2217,-1.1881,-1.1711,-1.1766,-1.1928,-1.2026,-1.2135,-1.2258,-1.2446,-1.2691,-1.2924,-1.3224,-1.3515,-1.3881,-1.4197,-1.4454,-1.4581,-1.4743,-1.496,-1.5051,-1.5221,-1.5413,-1.5458,-1.569,-1.6076,-1.636,-1.661,-1.7039,-1.7567,-1.7531,-1.7183,-1.7382,-1.7492,-1.7043,-1.6995,-1.6898,-1.6622,-1.6543,-1.6599,-1.6697,-1.6876,-1.7086,-1.7227,-1.7289,-1.7372,-1.7529,-1.7584,-1.7625,-1.772,-1.776,-1.7801,-1.7882,-1.7902,-1.7902,-1.7902,-1.7902,-1.7902,-1.7902,-1.7922,-1.7922,-1.7909,-1.7929,-1.8023,-1.8075,-1.8195,-1.8268,-1.8406,-1.8542,-1.8606,-1.8721,-1.8851,-1.8969,-1.9003,-1.9172,-1.9284,-0.9645,-0.9889,-1.0067,-0.9954,-0.9738,-0.9841,-0.9803,-0.9663,-1.018,-1.0443,-1.0625,-1.1335,-1.1706,-1.1744,-1.2114,-1.2204,-1.2074,-1.2218,-1.2234,-1.2037,-1.2211,-1.2425,-1.2641,-1.261,-1.2728,-1.2901,-1.3052,-1.3273,-1.3477,-1.338,-1.3347,-1.336,-1.3117,-1.2957,-1.2866,-1.2817,-1.2782,-1.2699,-1.2456,-1.2354,-1.2339,-1.2026,-1.1693,-1.1584,-1.1584,-1.1641,-1.1762,-1.1852,-1.2051,-1.2357,-1.2627,-1.2968,-1.3372,-1.3634,-1.3939,-1.4174,-1.4244,-1.4373,-1.464,-1.4754,-1.4891,-1.5074,-1.5292,-1.5603,-1.5985,-1.6382,-1.6816,-1.7215,-1.7788,-1.8007,-1.7897,-1.8128,-1.8054,-1.7384,-1.7297,-1.7149,-1.6588,-1.6513,-1.6565,-1.6675,-1.6782,-1.6918,-1.7052,-1.7094,-1.7199,-1.7385,-1.7393,-1.7468,-1.7604,-1.7645,-1.7679,-1.7788,-1.7821,-1.7842,-1.7882,-1.7902,-1.7902,-1.7902,-1.7902,-1.7902,-1.7902,-1.7902,-1.7929,-1.7996,-1.8022,-1.8075,-1.8175,-1.8327,-1.8445,-1.8562,-1.8721,-1.886,-1.895,-1.904,-1.9172,-0.9309,-0.94,-0.9332,-0.941,-0.9382,-0.94,-0.9451,-0.9646,-1.0035,-1.0293,-1.0594,-1.1335,-1.1632,-1.1744,-1.2077,-1.2254,-1.2234,-1.2254,-1.2311,-1.2311,-1.2325,-1.2492,-1.2802,-1.2706,-1.2767,-1.2982,-1.2936,-1.2907,-1.2966,-1.2974,-1.304,-1.3157,-1.3084,-1.3021,-1.3005,-1.2899,-1.275,-1.2663,-1.2605,-1.246,-1.2236,-1.2169,-1.1902,-1.1518,-1.1424,-1.1435,-1.1521,-1.1511,-1.1703,-1.2085,-1.2357,-1.2788,-1.3252,-1.3396,-1.3539,-1.3763,-1.3915,-1.4057,-1.4222,-1.4454,-1.4581,-1.4694,-1.5203,-1.5533,-1.5845,-1.6713,-1.7419,-1.7621,-1.8102,-1.8543,-1.8679,-1.8883,-1.8532,-1.7331,-1.7339,-1.7237,-1.6676,-1.65,-1.6543,-1.6641,-1.6697,-1.6761,-1.6867,-1.6918,-1.7002,-1.7136,-1.7186,-1.7282,-1.7447,-1.7488,-1.755,-1.7679,-1.774,-1.7781,-1.7842,-1.7902,-1.7902,-1.7902,-1.7902,-1.7902,-1.7902,-1.7902,-1.7909,-1.7955,-1.7975,-1.8016,-1.8069,-1.8208,-1.8293,-1.8397,-1.8592,-1.8784,-1.886,-1.8969,-1.9101,-0.9582,-0.9702,-0.9702,-0.9622,-0.9523,-0.9497,-0.9544,-0.9596,-0.9883,-1.0175,-1.055,-1.1037,-1.1372,-1.1558,-1.1929,-1.212,-1.2114,-1.2238,-1.2412,-1.2616,-1.2643,-1.2804,-1.3038,-1.3012,-1.3013,-1.3013,-1.3,-1.2947,-1.2898,-1.2907,-1.301,-1.3171,-1.3172,-1.3241,-1.329,-1.3073,-1.2908,-1.2909,-1.2718,-1.2527,-1.246,-1.2198,-1.1958,-1.1792,-1.1394,-1.1172,-1.1303,-1.1336,-1.1502,-1.1828,-1.2076,-1.2471,-1.2924,-1.3104,-1.3228,-1.3501,-1.3634,-1.3773,-1.3939,-1.408,-1.4221,-1.439,-1.4821,-1.5348,-1.585,-1.6554,-1.7239,-1.7672,-1.8112,-1.8356,-1.8652,-1.8919,-1.8574,-1.7651,-1.7776,-1.7526,-1.6676,-1.6513,-1.6522,-1.6543,-1.6556,-1.662,-1.674,-1.6761,-1.6833,-1.6973,-1.7002,-1.7086,-1.724,-1.7303,-1.744,-1.7638,-1.7679,-1.772,-1.7821,-1.7882,-1.7902,-1.7902,-1.7902,-1.7902,-1.7902,-1.7902,-1.7909,-1.7915,-1.7935,-1.7969,-1.8043,-1.8109,-1.8195,-1.8333,-1.8528,-1.8683,-1.8798,-1.8931,-1.9082,-0.9536,-0.9658,-0.9658,-0.9622,-0.9486,-0.9507,-0.9528,-0.9617,-0.98,-1.0089,-1.0422,-1.0816,-1.1117,-1.1335,-1.1639,-1.1818,-1.1905,-1.2107,-1.2405,-1.2698,-1.2779,-1.3005,-1.3313,-1.3373,-1.3253,-1.3115,-1.3067,-1.3026,-1.2852,-1.2875,-1.2901,-1.2994,-1.3046,-1.3143,-1.3304,-1.3183,-1.3083,-1.297,-1.2775,-1.2632,-1.2544,-1.2337,-1.2154,-1.198,-1.1598,-1.1312,-1.1234,-1.1297,-1.1388,-1.1613,-1.1902,-1.2308,-1.271,-1.2798,-1.2934,-1.3176,-1.3286,-1.3392,-1.3573,-1.3692,-1.3928,-1.4251,-1.474,-1.5311,-1.5966,-1.6525,-1.718,-1.7567,-1.792,-1.8154,-1.8491,-1.8786,-1.8616,-1.8093,-1.8053,-1.7633,-1.6776,-1.6513,-1.6513,-1.6534,-1.6513,-1.6556,-1.6599,-1.662,-1.6684,-1.6803,-1.6825,-1.6876,-1.7044,-1.7094,-1.7295,-1.7461,-1.7563,-1.7645,-1.7781,-1.7862,-1.7902,-1.7902,-1.7902,-1.7902,-1.7902,-1.7902,-1.7922,-1.7922,-1.7909,-1.7929,-1.7983,-1.8123,-1.8228,-1.8366,-1.8484,-1.8716,-1.8874,-1.8984,-1.9097,-0.936,-0.9315,-0.936,-0.9389,-0.9389,-0.9351,-0.9474,-0.9644,-0.9801,-1.0019,-1.0295,-1.0648,-1.0883,-1.1116,-1.1334,-1.1521,-1.1702,-1.1955,-1.2285,-1.2569,-1.2752,-1.3081,-1.3567,-1.3626,-1.3507,-1.3267,-1.3233,-1.3085,-1.282,-1.2813,-1.275,-1.2663,-1.2813,-1.2919,-1.3076,-1.3206,-1.3127,-1.2929,-1.2834,-1.2735,-1.2631,-1.2582,-1.2431,-1.2091,-1.1942,-1.1743,-1.1406,-1.1368,-1.1375,-1.1403,-1.1803,-1.215,-1.2406,-1.248,-1.2603,-1.2847,-1.2881,-1.3031,-1.318,-1.3463,-1.3723,-1.4221,-1.481,-1.5437,-1.5993,-1.6628,-1.7135,-1.734,-1.7645,-1.8002,-1.8313,-1.8583,-1.8527,-1.8332,-1.797,-1.7428,-1.6645,-1.6479,-1.6491,-1.6479,-1.65,-1.6513,-1.6522,-1.6522,-1.6565,-1.6654,-1.6684,-1.6761,-1.6867,-1.696,-1.7031,-1.7199,-1.7385,-1.7529,-1.7666,-1.7727,-1.7821,-1.8097,-1.8051,-1.799,-1.7889,-1.7869,-1.7808,-1.7828,-1.7862,-1.7882,-1.7942,-1.8049,-1.8169,-1.8274,-1.8489,-1.8774,-1.8908,-1.8965,-1.9021,-0.9828,-0.9828,-0.9828,-0.9828,-0.9809,-0.963,-0.9642,-0.9785,-0.9709,-1.0019,-1.0439,-1.0601,-1.0757,-1.0931,-1.115,-1.1266,-1.1411,-1.1703,-1.2149,-1.2557,-1.2847,-1.3321,-1.3866,-1.3961,-1.3808,-1.352,-1.348,-1.3253,-1.2817,-1.2811,-1.2725,-1.2606,-1.2636,-1.2828,-1.31,-1.3098,-1.3125,-1.3119,-1.2914,-1.2771,-1.2735,-1.2656,-1.2551,-1.2455,-1.2162,-1.1948,-1.1751,-1.1524,-1.1408,-1.1445,-1.1653,-1.1877,-1.2051,-1.215,-1.2308,-1.2455,-1.2725,-1.2905,-1.3061,-1.3461,-1.3816,-1.4038,-1.4749,-1.5372,-1.5752,-1.6301,-1.6814,-1.7166,-1.7434,-1.7656,-1.8057,-1.8247,-1.8078,-1.7598,-1.7399,-1.7022,-1.6495,-1.6383,-1.6448,-1.6436,-1.6479,-1.65,-1.6513,-1.65,-1.6488,-1.6543,-1.6556,-1.6599,-1.6718,-1.6782,-1.6854,-1.7094,-1.7282,-1.7385,-1.7488,-1.757,-1.7765,-1.8198,-1.8246,-1.8133,-1.794,-1.7746,-1.7651,-1.7578,-1.7699,-1.7733,-1.7842,-1.7969,-1.8075,-1.8214,-1.8484,-1.8716,-1.8755,-1.8812,-1.8855,-0.9994,-0.9994,-0.9994,-0.9994,-0.998,-0.9823,-0.9819,-0.9899,-0.9809,-0.9919,-1.0269,-1.031,-1.0402,-1.0597,-1.0824,-1.1022,-1.1112,-1.1528,-1.1867,-1.2182,-1.2629,-1.3239,-1.3795,-1.4039,-1.3953,-1.3682,-1.3745,-1.3492,-1.3061,-1.2889,-1.2734,-1.2556,-1.2432,-1.2496,-1.2769,-1.2847,-1.2913,-1.3007,-1.2912,-1.2808,-1.2561,-1.2632,-1.2601,-1.2522,-1.2299,-1.2232,-1.206,-1.1796,-1.162,-1.154,-1.1569,-1.1669,-1.1794,-1.1902,-1.2026,-1.22,-1.2431,-1.2685,-1.307,-1.3464,-1.3862,-1.4314,-1.4872,-1.529,-1.5736,-1.6164,-1.6602,-1.6857,-1.711,-1.7462,-1.7767,-1.8002,-1.7698,-1.7118,-1.6871,-1.663,-1.6176,-1.6253,-1.6352,-1.6405,-1.6457,-1.6513,-1.6513,-1.6479,-1.6457,-1.6436,-1.6392,-1.647,-1.6547,-1.6611,-1.6697,-1.6897,-1.7185,-1.7356,-1.7644,-1.7808,-1.815,-1.8561,-1.8688,-1.8522,-1.8163,-1.7866,-1.7654,-1.7614,-1.7602,-1.761,-1.772,-1.7848,-1.8043,-1.8208,-1.8445,-1.8595,-1.8653,-1.88,-1.8835,-0.9994,-0.9994,-0.9994,-0.9994,-0.9994,-0.999,-0.9971,-0.9995,-0.9923,-0.9926,-1.0018,-0.998,-1.0126,-1.0223,-1.0508,-1.067,-1.0843,-1.1243,-1.1491,-1.1842,-1.2349,-1.2991,-1.3428,-1.3822,-1.3808,-1.3691,-1.3906,-1.3666,-1.3215,-1.2941,-1.272,-1.2407,-1.2096,-1.2053,-1.2261,-1.2388,-1.2551,-1.2692,-1.2797,-1.2662,-1.2449,-1.2521,-1.2514,-1.2398,-1.2474,-1.2382,-1.2212,-1.2028,-1.1877,-1.1566,-1.1574,-1.172,-1.1821,-1.1794,-1.1939,-1.2186,-1.2367,-1.2681,-1.3182,-1.3474,-1.3886,-1.4708,-1.497,-1.5264,-1.5783,-1.6095,-1.6327,-1.6498,-1.6913,-1.7183,-1.744,-1.7772,-1.7432,-1.6737,-1.6514,-1.6347,-1.6035,-1.6035,-1.6188,-1.6349,-1.6426,-1.6491,-1.6491,-1.6485,-1.647,-1.6399,-1.6371,-1.6492,-1.6483,-1.6426,-1.6513,-1.6641,-1.6974,-1.7351,-1.7718,-1.8087,-1.8569,-1.8999,-1.9165,-1.905,-1.8603,-1.8267,-1.7903,-1.7713,-1.7513,-1.7457,-1.7543,-1.7706,-1.7936,-1.8083,-1.8228,-1.842,-1.8584,-1.881,-1.892,-0.9994,-0.9994,-0.9994,-0.9994,-0.9994,-0.9994,-0.9994,-0.9985,-0.9986,-1.0038,-1.0163,-1.021,-1.0224,-1.0288,-1.033,-1.0408,-1.0491,-1.0779,-1.1111,-1.1727,-1.2194,-1.2491,-1.2839,-1.3222,-1.3483,-1.3476,-1.3525,-1.3377,-1.3073,-1.2798,-1.251,-1.2158,-1.1759,-1.1626,-1.1781,-1.1848,-1.2063,-1.2324,-1.2499,-1.2479,-1.2385,-1.2364,-1.2353,-1.2321,-1.249,-1.2437,-1.2276,-1.2182,-1.2045,-1.1928,-1.2049,-1.2195,-1.2162,-1.227,-1.2368,-1.2467,-1.2779,-1.3092,-1.3491,-1.3952,-1.4441,-1.4813,-1.5135,-1.5428,-1.5661,-1.5798,-1.6058,-1.6288,-1.6516,-1.679,-1.7078,-1.7262,-1.6949,-1.6328,-1.6084,-1.5879,-1.5395,-1.549,-1.5834,-1.6066,-1.6284,-1.6414,-1.6451,-1.6796,-1.6715,-1.6426,-1.6443,-1.6591,-1.6539,-1.6426,-1.6576,-1.6801,-1.7096,-1.7517,-1.7983,-1.8431,-1.8986,-1.9341,-1.952,-1.9576,-1.9117,-1.8546,-1.8144,-1.7717,-1.7316,-1.7366,-1.7587,-1.7574,-1.7779,-1.7896,-1.801,-1.8233,-1.8477,-1.8752,-1.9112,-0.9994,-0.9994,-0.9994,-0.9994,-0.9994,-0.9994,-0.9994,-0.9994,-0.9994,-1.0038,-1.012,-1.0164,-1.0149,-1.017,-1.0256,-1.0298,-1.0384,-1.0554,-1.0952,-1.1483,-1.18,-1.1977,-1.2246,-1.2546,-1.2845,-1.3009,-1.3228,-1.317,-1.2945,-1.2585,-1.2224,-1.2004,-1.1354,-1.1092,-1.126,-1.1254,-1.1484,-1.1829,-1.2005,-1.2102,-1.2117,-1.2222,-1.2226,-1.2313,-1.2428,-1.2418,-1.2426,-1.2454,-1.2416,-1.2404,-1.2535,-1.2503,-1.2254,-1.2314,-1.2425,-1.2564,-1.2812,-1.3259,-1.3682,-1.4185,-1.4638,-1.4964,-1.5245,-1.54,-1.5546,-1.5614,-1.5798,-1.6058,-1.6259,-1.6506,-1.6768,-1.6853,-1.6502,-1.6036,-1.5713,-1.5448,-1.5163,-1.5326,-1.5635,-1.5891,-1.6144,-1.6426,-1.667,-1.6948,-1.7123,-1.6909,-1.6845,-1.6965,-1.7142,-1.7055,-1.7076,-1.7242,-1.7433,-1.7773,-1.8229,-1.8776,-1.9367,-1.9671,-1.9799,-1.9838,-1.962,-1.8996,-1.8363,-1.8015,-1.7747,-1.7652,-1.7791,-1.7746,-1.7676,-1.7723,-1.786,-1.8105,-1.8501,-1.9022,-1.9354,-0.9994,-0.9994,-0.9994,-0.9994,-0.9994,-0.9994,-0.9994,-0.9994,-0.9994,-0.9994,-0.9994,-0.9994,-1.0024,-1.0067,-1.0193,-1.0246,-1.0328,-1.0496,-1.0847,-1.1063,-1.1198,-1.1419,-1.1688,-1.1817,-1.2032,-1.2485,-1.2753,-1.2826,-1.2698,-1.234,-1.1952,-1.1728,-1.0981,-1.0668,-1.0723,-1.0706,-1.085,-1.1217,-1.149,-1.1638,-1.1717,-1.1909,-1.2036,-1.2117,-1.2243,-1.2336,-1.2451,-1.2543,-1.2673,-1.2713,-1.2867,-1.2592,-1.2266,-1.2211,-1.24,-1.2566,-1.2861,-1.3285,-1.3833,-1.4259,-1.4629,-1.5137,-1.5284,-1.5381,-1.5439,-1.5536,-1.5672,-1.5827,-1.6029,-1.6316,-1.6467,-1.6467,-1.6248,-1.5842,-1.5414,-1.5236,-1.518,-1.5356,-1.5672,-1.5705,-1.6049,-1.6414,-1.6718,-1.7023,-1.723,-1.7388,-1.735,-1.7335,-1.7459,-1.7496,-1.7376,-1.7436,-1.7557,-1.8081,-1.8586,-1.8772,-1.9446,-1.9699,-1.9901,-1.9927,-1.9902,-1.9484,-1.8903,-1.8584,-1.8338,-1.8175,-1.8061,-1.8022,-1.793,-1.7742,-1.794,-1.837,-1.8842,-1.9327,-1.9605,-0.9994,-0.9994,-0.9994,-0.9994,-0.9994,-0.9994,-0.9994,-0.9994,-0.9994,-0.9994,-0.9994,-0.9994,-0.9994,-1.0038,-1.0038,-1.0038,-1.012,-1.0294,-1.0424,-1.0593,-1.0722,-1.0944,-1.1035,-1.1122,-1.1246,-1.1548,-1.194,-1.216,-1.2188,-1.1866,-1.1601,-1.1307,-1.0695,-1.039,-1.0247,-1.018,-1.0293,-1.0669,-1.0993,-1.1157,-1.1367,-1.1529,-1.1642,-1.1766,-1.1965,-1.2127,-1.2189,-1.2305,-1.2398,-1.2406,-1.256,-1.258,-1.2496,-1.2666,-1.2846,-1.3008,-1.322,-1.352,-1.3971,-1.435,-1.47,-1.504,-1.5235,-1.5313,-1.5352,-1.5439,-1.5546,-1.5701,-1.5856,-1.6011,-1.6,-1.6048,-1.5816,-1.551,-1.5413,-1.5365,-1.5289,-1.5473,-1.5681,-1.5568,-1.595,-1.6454,-1.6812,-1.7158,-1.742,-1.7633,-1.7662,-1.7553,-1.7547,-1.7452,-1.7297,-1.7405,-1.7609,-1.8291,-1.8969,-1.9033,-1.9322,-1.9517,-1.9708,-1.9798,-1.9786,-1.9799,-1.951,-1.9106,-1.8715,-1.8447,-1.8353,-1.8369,-1.8259,-1.8138,-1.841,-1.8734,-1.915,-1.9594,-2.0049,-1.0312,-1.0308,-1.0208,-1.0165,-1.0142,-1.0037,-0.9994,-0.9994,-0.9994,-0.9994,-0.9994,-0.9994,-0.9994,-0.9994,-0.9994,-0.9994,-1.0038,-1.0081,-1.0207,-1.0294,-1.0424,-1.0598,-1.0684,-1.0684,-1.0814,-1.0987,-1.1251,-1.1602,-1.1923,-1.1643,-1.1344,-1.1048,-1.0466,-1.0091,-0.9902,-0.9715,-0.9819,-1.0143,-1.0395,-1.0754,-1.1125,-1.1313,-1.1369,-1.1425,-1.1654,-1.1879,-1.1965,-1.212,-1.2243,-1.2305,-1.2398,-1.2498,-1.259,-1.2713,-1.2875,-1.305,-1.3307,-1.3571,-1.3881,-1.4201,-1.4627,-1.4804,-1.5029,-1.5205,-1.5284,-1.5362,-1.5478,-1.5643,-1.574,-1.5798,-1.5827,-1.5798,-1.5678,-1.5499,-1.5391,-1.5331,-1.5359,-1.5484,-1.5495,-1.5545,-1.6055,-1.6576,-1.7002,-1.7342,-1.7648,-1.7835,-1.7938,-1.7847,-1.7648,-1.7576,-1.7429,-1.766,-1.7876,-1.8206,-1.8835,-1.8965,-1.9133,-1.9344,-1.9539,-1.963,-1.9721,-1.976,-1.9736,-1.9522,-1.9158,-1.8818,-1.8754,-1.8774,-1.8683,-1.8616,-1.8909,-1.9203,-1.9467,-1.9843,-2.0308,-1.057,-1.0607,-1.04,-1.0334,-1.0346,-1.0203,-1.0127,-1.0123,-1.0132,-1.0142,-1.0118,-1.0127,-1.0113,-1.0056,-1.0018,-0.9994,-0.9994,-0.9994,-1.0081,-1.0207,-1.0207,-1.0381,-1.0511,-1.0554,-1.0559,-1.0641,-1.0684,-1.0992,-1.1445,-1.1298,-1.1094,-1.0745,-1.0209,-0.9828,-0.9565,-0.9379,-0.9504,-0.962,-0.9879,-1.0308,-1.0827,-1.1102,-1.1142,-1.1009,-1.1247,-1.1466,-1.156,-1.184,-1.1996,-1.212,-1.2205,-1.2336,-1.2498,-1.2537,-1.2621,-1.2805,-1.3155,-1.3359,-1.3631,-1.3902,-1.4291,-1.4558,-1.4843,-1.5029,-1.5235,-1.5332,-1.5468,-1.5614,-1.5643,-1.5633,-1.5633,-1.5633,-1.5623,-1.5593,-1.5383,-1.5239,-1.5494,-1.5645,-1.5726,-1.5927,-1.631,-1.6598,-1.6941,-1.7345,-1.7623,-1.7771,-1.7871,-1.7909,-1.7786,-1.7878,-1.7867,-1.8055,-1.8216,-1.827,-1.8548,-1.875,-1.8922,-1.916,-1.9382,-1.9565,-1.9682,-1.9773,-1.9722,-1.9698,-1.9673,-1.9397,-1.9296,-1.9208,-1.9157,-1.9217,-1.9428,-1.9627,-1.9828,-2.0165,-2.0618,-1.057,-1.0575,-1.0551,-1.0583,-1.0583,-1.0535,-1.0531,-1.0521,-1.0507,-1.0545,-1.0488,-1.0466,-1.0417,-1.026,-1.0075,-1.0009,-0.9994,-0.9994,-1.0038,-1.0081,-1.0077,-1.0077,-1.0125,-1.0077,-1.0255,-1.0342,-1.0337,-1.0511,-1.0852,-1.0854,-1.0665,-1.0391,-1.0054,-0.9606,-0.937,-0.9179,-0.9065,-0.9213,-0.9625,-1.0066,-1.0367,-1.0555,-1.0541,-1.0548,-1.0713,-1.0926,-1.0989,-1.1373,-1.1654,-1.1716,-1.1965,-1.2182,-1.2305,-1.2336,-1.2459,-1.2613,-1.2828,-1.3072,-1.339,-1.3653,-1.3923,-1.4282,-1.4558,-1.4775,-1.5079,-1.5284,-1.5381,-1.542,-1.5449,-1.5478,-1.5478,-1.5449,-1.5449,-1.5497,-1.5477,-1.5514,-1.5676,-1.5721,-1.5832,-1.6029,-1.6336,-1.6499,-1.6768,-1.7201,-1.7578,-1.7705,-1.7794,-1.7838,-1.7865,-1.7931,-1.7931,-1.803,-1.8127,-1.8182,-1.8344,-1.8533,-1.8774,-1.8975,-1.9251,-1.9486,-1.963,-1.9759,-1.9798,-1.9773,-1.9798,-1.9798,-1.9635,-1.956,-1.9635,-1.9674,-1.9724,-1.9901,-2.0105,-2.0498,-2.0896,-1.0685,-1.092,-1.0849,-1.0754,-1.0735,-1.0631,-1.057,-1.057,-1.057,-1.057,-1.057,-1.057,-1.0507,-1.0331,-1.0208,-1.0108,-1.0018,-0.9994,-0.9994,-0.9994,-0.9994,-0.9994,-1.0038,-0.9994,-1.0081,-1.0125,-1.0125,-1.0168,-1.0337,-1.0544,-1.057,-1.0266,-1.0026,-0.969,-0.9332,-0.9105,-0.9034,-0.9181,-0.9566,-0.9855,-0.9937,-1.0073,-1.0112,-0.9948,-1.0239,-1.0321,-1.0491,-1.087,-1.1185,-1.1341,-1.1622,-1.1864,-1.2019,-1.212,-1.2251,-1.2313,-1.2375,-1.2613,-1.3042,-1.3329,-1.3662,-1.3953,-1.4291,-1.4715,-1.5088,-1.5264,-1.5332,-1.542,-1.542,-1.542,-1.5391,-1.542,-1.542,-1.5449,-1.5478,-1.5575,-1.5672,-1.5788,-1.5899,-1.6114,-1.6296,-1.6409,-1.6605,-1.7032,-1.7346,-1.7468,-1.7629,-1.7739,-1.7767,-1.7767,-1.7767,-1.7767,-1.7881,-1.7979,-1.8154,-1.8344,-1.864,-1.8907,-1.9225,-1.9447,-1.9591,-1.9708,-1.9773,-1.9798,-1.9798,-1.9798,-1.9798,-1.9773,-1.971,-1.9825,-1.9952,-2.0067,-2.0233,-2.0636,-2.1008,-1.0507,-1.0886,-1.0888,-1.0875,-1.0861,-1.0749,-1.0787,-1.0735,-1.0745,-1.0735,-1.0712,-1.0683,-1.0546,-1.0412,-1.0327,-1.0189,-0.9999,-0.9994,-0.9994,-0.9994,-0.9994,-0.9994,-0.9994,-0.9994,-0.9994,-0.9994,-1.0038,-1.0038,-1.0125,-1.025,-1.0381,-1.0236,-0.9965,-0.9683,-0.9359,-0.9105,-0.8994,-0.9037,-0.9397,-0.9564,-0.9608,-0.9757,-0.9742,-0.9708,-0.9753,-0.986,-0.9894,-1.0301,-1.0681,-1.0909,-1.1185,-1.1428,-1.1646,-1.1771,-1.1872,-1.1934,-1.1996,-1.2151,-1.2552,-1.2881,-1.3268,-1.3631,-1.4082,-1.4656,-1.4902,-1.5059,-1.5186,-1.5284,-1.5274,-1.5274,-1.5303,-1.5303,-1.5303,-1.5303,-1.5332,-1.5449,-1.5575,-1.5701,-1.5817,-1.5933,-1.6077,-1.621,-1.6468,-1.6877,-1.7127,-1.7239,-1.7407,-1.7584,-1.7629,-1.7629,-1.7601,-1.7573,-1.7728,-1.7826,-1.7975,-1.8193,-1.8491,-1.8813,-1.9158,-1.9394,-1.9512,-1.9682,-1.9773,-1.9798,-1.9798,-1.9798,-1.9798,-1.9798,-1.9824,-1.9875,-1.9965,-2.0118,-2.0334,-2.0736,-2.1095,-1.0068,-1.0113,-1.0592,-1.0774,-1.0823,-1.1063,-1.1142,-1.1051,-1.1123,-1.1109,-1.1066,-1.0943,-1.0726,-1.0583,-1.0379,-1.0203,-0.9999,-0.9994,-0.9994,-0.9994,-0.9994,-0.9951,-0.9951,-0.9951,-0.9951,-0.9951,-0.9994,-0.9994,-1.0038,-1.0077,-1.0081,-1.0009,-0.9866,-0.9549,-0.9272,-0.9091,-0.898,-0.8975,-0.9137,-0.9306,-0.9406,-0.9507,-0.9461,-0.9457,-0.951,-0.9532,-0.94,-0.983,-1.0136,-1.0364,-1.0681,-1.0965,-1.1216,-1.1341,-1.1435,-1.1498,-1.156,-1.1685,-1.1926,-1.2398,-1.285,-1.3398,-1.3941,-1.4419,-1.4567,-1.4852,-1.497,-1.5,-1.499,-1.502,-1.502,-1.5029,-1.5079,-1.5137,-1.5196,-1.5313,-1.5469,-1.5604,-1.5701,-1.5759,-1.5875,-1.6038,-1.6239,-1.6637,-1.692,-1.706,-1.7278,-1.7473,-1.7445,-1.7418,-1.739,-1.7418,-1.7601,-1.7739,-1.7794,-1.8084,-1.8506,-1.8801,-1.9105,-1.9289,-1.9447,-1.9591,-1.9798,-1.9798,-1.9798,-1.9798,-1.9798,-1.9798,-1.9824,-1.9888,-1.9991,-2.0169,-2.0385,-2.0724,-2.1095,-0.927,-0.932,-0.9673,-1.0117,-1.0556,-1.0659,-1.0801,-1.0949,-1.0949,-1.1047,-1.1175,-1.0986,-1.0778,-1.056,-1.0407,-1.0203,-1.0018,-0.9994,-0.9994,-0.9951,-0.9864,-0.9777,-0.9733,-0.9733,-0.9733,-0.9777,-0.9907,-0.9994,-0.9994,-0.9994,-0.9994,-0.9956,-0.9895,-0.962,-0.936,-0.8985,-0.8851,-0.8866,-0.8946,-0.9115,-0.9135,-0.9186,-0.9186,-0.9182,-0.9101,-0.908,-0.9041,-0.9376,-0.9612,-0.9849,-1.0142,-1.0428,-1.0681,-1.0776,-1.0902,-1.1003,-1.1059,-1.1153,-1.1373,-1.1872,-1.2521,-1.3072,-1.358,-1.3971,-1.4151,-1.4398,-1.4577,-1.4636,-1.4656,-1.4666,-1.4704,-1.4754,-1.4863,-1.4931,-1.5097,-1.5263,-1.5381,-1.5557,-1.5556,-1.5624,-1.5788,-1.5961,-1.6192,-1.641,-1.6666,-1.6853,-1.7099,-1.7306,-1.7278,-1.7306,-1.7306,-1.7362,-1.7545,-1.7684,-1.7739,-1.8139,-1.856,-1.8801,-1.9013,-1.9237,-1.9447,-1.963,-1.9798,-1.9798,-1.9798,-1.9798,-1.9798,-1.9798,-1.9824,-1.985,-2.0042,-2.0309,-2.0511,-2.0749,-2.1021,-0.8425,-0.8474,-0.8832,-0.943,-1.0117,-1.0265,-1.0458,-1.0659,-1.0659,-1.076,-1.0852,-1.0752,-1.0641,-1.0412,-1.0348,-1.0198,-1.0042,-0.9994,-0.9994,-0.9907,-0.9777,-0.965,-0.9607,-0.9559,-0.9559,-0.9602,-0.9733,-0.9864,-0.9994,-0.9994,-0.9994,-0.9994,-0.9966,-0.9691,-0.9322,-0.8896,-0.8708,-0.8746,-0.8827,-0.8951,-0.8983,-0.8998,-0.9023,-0.9025,-0.8962,-0.8859,-0.8869,-0.9036,-0.9231,-0.9412,-0.9661,-0.9862,-1.0047,-1.0206,-1.0301,-1.0371,-1.0466,-1.0555,-1.0902,-1.1498,-1.2243,-1.2797,-1.3164,-1.3489,-1.3731,-1.392,-1.4052,-1.4151,-1.4181,-1.4246,-1.4348,-1.4517,-1.4894,-1.5087,-1.5397,-1.5569,-1.5561,-1.5673,-1.5557,-1.5478,-1.5682,-1.5875,-1.6105,-1.6335,-1.6552,-1.6768,-1.6994,-1.7145,-1.7172,-1.7211,-1.7306,-1.7362,-1.749,-1.7601,-1.7739,-1.8139,-1.8506,-1.8747,-1.8987,-1.9263,-1.946,-1.9682,-1.9798,-1.9798,-1.9798,-1.9798,-1.9798,-1.9798,-1.9798,-1.9798,-2.0042,-2.0283,-2.0561,-2.0774,-2.0886,-0.763,-0.768,-0.818,-0.8829,-0.9525,-0.9871,-1.0113,-1.0314,-1.0359,-1.0325,-1.0237,-1.0366,-1.03,-1.0063,-1.0102,-1.0028,-0.9901,-0.9907,-0.9907,-0.982,-0.9602,-0.9563,-0.9476,-0.9388,-0.9345,-0.9519,-0.9646,-0.9777,-0.9994,-0.9994,-0.9994,-0.9956,-0.9904,-0.9686,-0.9272,-0.8911,-0.8713,-0.8703,-0.8703,-0.8827,-0.8937,-0.8941,-0.8946,-0.8938,-0.8917,-0.8801,-0.8769,-0.8769,-0.8957,-0.9164,-0.9236,-0.9421,-0.9596,-0.9574,-0.9658,-0.983,-0.9862,-1.0117,-1.0624,-1.1373,-1.1934,-1.2436,-1.2736,-1.3042,-1.3277,-1.342,-1.3532,-1.3622,-1.3635,-1.3851,-1.4068,-1.4376,-1.4836,-1.5219,-1.5486,-1.5773,-1.5794,-1.5748,-1.5623,-1.5596,-1.5644,-1.5759,-1.6019,-1.6249,-1.6495,-1.6712,-1.6899,-1.6983,-1.7022,-1.7106,-1.7211,-1.7323,-1.7423,-1.7573,-1.7739,-1.8123,-1.8437,-1.8667,-1.8934,-1.9225,-1.946,-1.9604,-1.9734,-1.9773,-1.9759,-1.9682,-1.9759,-1.9798,-1.9798,-1.9824,-2.0016,-2.0258,-2.0536,-2.0699,-2.0724,-0.6783,-0.6836,-0.7188,-0.7587,-0.8081,-0.8874,-0.9373,-0.9624,-0.9772,-0.9932,-0.9972,-0.9884,-0.9843,-0.9793,-0.9656,-0.961,-0.9547,-0.9519,-0.9519,-0.9519,-0.9301,-0.917,-0.9126,-0.9082,-0.9082,-0.9218,-0.9388,-0.9602,-0.9733,-0.9864,-0.9994,-0.9961,-0.9752,-0.9474,-0.9247,-0.894,-0.8703,-0.8703,-0.8703,-0.8746,-0.8827,-0.8818,-0.8817,-0.8801,-0.8842,-0.877,-0.8681,-0.8689,-0.8791,-0.8923,-0.8962,-0.9014,-0.9162,-0.9144,-0.9148,-0.9335,-0.9452,-0.9913,-1.0396,-1.0972,-1.1279,-1.1801,-1.222,-1.2467,-1.2644,-1.2758,-1.2933,-1.3151,-1.3294,-1.3555,-1.3866,-1.4347,-1.4783,-1.5042,-1.5382,-1.5789,-1.5914,-1.5856,-1.5766,-1.582,-1.5891,-1.5889,-1.6024,-1.6293,-1.6547,-1.6649,-1.6833,-1.6853,-1.6896,-1.6965,-1.7078,-1.719,-1.7301,-1.7507,-1.7755,-1.8014,-1.8302,-1.8587,-1.8881,-1.9225,-1.9408,-1.9565,-1.9604,-1.9656,-1.9617,-1.9577,-1.9668,-1.9734,-1.9798,-1.985,-1.9991,-2.0105,-2.0309,-2.0385,-2.0385,-0.6137,-0.6137,-0.6392,-0.6589,-0.6939,-0.7928,-0.8531,-0.8786,-0.8981,-0.9197,-0.9287,-0.9176,-0.9184,-0.9292,-0.921,-0.9137,-0.9133,-0.9152,-0.9174,-0.913,-0.8999,-0.8955,-0.8911,-0.8828,-0.8867,-0.8955,-0.917,-0.9384,-0.9515,-0.9733,-0.9907,-0.989,-0.9545,-0.9389,-0.9195,-0.8954,-0.8703,-0.8703,-0.8703,-0.8703,-0.8703,-0.8703,-0.8703,-0.8694,-0.8698,-0.8686,-0.8707,-0.8699,-0.8694,-0.8776,-0.8763,-0.8722,-0.8824,-0.8856,-0.8843,-0.9075,-0.9544,-0.9978,-1.0404,-1.0771,-1.1164,-1.1534,-1.1721,-1.1947,-1.2132,-1.2319,-1.2575,-1.2809,-1.304,-1.3424,-1.3847,-1.4322,-1.4756,-1.5064,-1.5617,-1.6088,-1.6266,-1.6202,-1.623,-1.6229,-1.6175,-1.6168,-1.6188,-1.6357,-1.6648,-1.6696,-1.6733,-1.6742,-1.6764,-1.6853,-1.6963,-1.7047,-1.7127,-1.7284,-1.7518,-1.7767,-1.8111,-1.8452,-1.8801,-1.9146,-1.9303,-1.942,-1.946,-1.9512,-1.9499,-1.9499,-1.9591,-1.9656,-1.9734,-1.9773,-1.985,-1.9991,-2.0118,-2.0131,-2.0144,-0.5534,-0.5586,-0.5839,-0.5939,-0.6139,-0.6983,-0.7584,-0.7889,-0.7939,-0.8058,-0.8208,-0.8404,-0.8493,-0.857,-0.8677,-0.8696,-0.8701,-0.875,-0.879,-0.8796,-0.8708,-0.8788,-0.878,-0.87,-0.874,-0.8823,-0.8951,-0.9126,-0.9301,-0.9559,-0.9777,-0.9827,-0.9531,-0.9362,-0.9219,-0.8996,-0.877,-0.8722,-0.8703,-0.8703,-0.8703,-0.8703,-0.8703,-0.8685,-0.8699,-0.8689,-0.8712,-0.8686,-0.8687,-0.8704,-0.8647,-0.8634,-0.8619,-0.8614,-0.8855,-0.926,-0.9817,-1.0036,-1.0361,-1.0746,-1.0997,-1.1263,-1.1293,-1.1593,-1.1876,-1.2058,-1.2292,-1.2576,-1.2845,-1.3396,-1.3907,-1.4391,-1.4912,-1.5454,-1.6156,-1.6485,-1.6693,-1.675,-1.6754,-1.674,-1.6619,-1.6607,-1.6672,-1.6784,-1.6776,-1.6788,-1.6819,-1.6819,-1.6813,-1.6783,-1.6848,-1.6892,-1.6953,-1.7026,-1.7267,-1.7562,-1.7893,-1.829,-1.8706,-1.9025,-1.9158,-1.9302,-1.9342,-1.9394,-1.9394,-1.942,-1.9512,-1.9591,-1.9656,-1.9734,-1.9824,-1.9862,-1.9978,-2.0054,-2.0067,-0.4435,-0.4483,-0.4738,-0.4889,-0.4939,-0.5384,-0.6084,-0.6789,-0.6839,-0.7056,-0.7467,-0.7414,-0.7649,-0.802,-0.7926,-0.7866,-0.793,-0.798,-0.8046,-0.8121,-0.8291,-0.8396,-0.8428,-0.852,-0.8608,-0.8696,-0.878,-0.8867,-0.9082,-0.9345,-0.9559,-0.963,-0.9484,-0.9405,-0.9213,-0.9023,-0.8844,-0.8751,-0.8684,-0.8703,-0.8703,-0.8703,-0.8703,-0.8703,-0.8703,-0.8703,-0.8704,-0.868,-0.8708,-0.8679,-0.8558,-0.8498,-0.867,-0.8536,-0.8579,-0.9136,-0.948,-0.9689,-1.0194,-1.0437,-1.0704,-1.0972,-1.0999,-1.1337,-1.1681,-1.1919,-1.2099,-1.2379,-1.2723,-1.3242,-1.385,-1.4383,-1.4907,-1.5536,-1.6123,-1.6487,-1.6723,-1.693,-1.6992,-1.7135,-1.7025,-1.6973,-1.7029,-1.6992,-1.6955,-1.6916,-1.692,-1.6976,-1.6941,-1.6918,-1.6746,-1.6792,-1.6822,-1.6871,-1.7121,-1.7423,-1.7755,-1.8111,-1.8518,-1.8866,-1.9025,-1.9131,-1.9223,-1.9249,-1.9275,-1.9316,-1.942,-1.9512,-1.9578,-1.9734,-1.9824,-1.9837,-1.9862,-1.9939,-1.9965,-0.3971,-0.3998,-0.4144,-0.4195,-0.4243,-0.4388,-0.4831,-0.538,-0.5648,-0.6084,-0.6528,-0.6509,-0.677,-0.714,-0.7081,-0.6965,-0.6997,-0.7175,-0.7304,-0.7403,-0.7704,-0.7871,-0.8025,-0.816,-0.8252,-0.8384,-0.8428,-0.8428,-0.8644,-0.8947,-0.9205,-0.9453,-0.9402,-0.9256,-0.9115,-0.8935,-0.882,-0.8734,-0.8693,-0.8684,-0.8703,-0.8703,-0.8703,-0.8703,-0.8703,-0.8665,-0.8703,-0.8665,-0.8703,-0.8703,-0.8552,-0.8561,-0.8701,-0.8621,-0.8641,-0.9129,-0.9451,-0.9721,-1.0088,-1.0497,-1.0647,-1.0801,-1.0901,-1.1204,-1.1394,-1.1605,-1.1937,-1.2286,-1.2642,-1.3086,-1.3714,-1.4361,-1.4892,-1.5461,-1.5929,-1.6421,-1.672,-1.6986,-1.7206,-1.7407,-1.7391,-1.733,-1.7275,-1.7184,-1.7246,-1.7376,-1.7448,-1.7475,-1.733,-1.7161,-1.689,-1.6695,-1.6719,-1.6777,-1.7013,-1.7228,-1.7523,-1.7893,-1.8302,-1.8625,-1.8839,-1.9025,-1.9105,-1.9143,-1.9117,-1.9223,-1.9342,-1.9447,-1.9539,-1.9682,-1.9773,-1.9785,-1.9811,-1.9824,-1.985,-0.3826,-0.3822,-0.3816,-0.3827,-0.3816,-0.3825,-0.3873,-0.3878,-0.4439,-0.5014,-0.5463,-0.5532,-0.5772,-0.6142,-0.6118,-0.6084,-0.6174,-0.6364,-0.6481,-0.6557,-0.7168,-0.7405,-0.7455,-0.7672,-0.7808,-0.7852,-0.7852,-0.7893,-0.8025,-0.8372,-0.8855,-0.92,-0.906,-0.8976,-0.8875,-0.8815,-0.8705,-0.864,-0.8615,-0.8589,-0.8665,-0.8665,-0.8665,-0.8665,-0.8627,-0.8627,-0.8627,-0.8665,-0.8665,-0.8661,-0.8694,-0.868,-0.8746,-0.8775,-0.8888,-0.9077,-0.9403,-0.9697,-0.9984,-1.0381,-1.0681,-1.0853,-1.1068,-1.1095,-1.1126,-1.1371,-1.1745,-1.2108,-1.2447,-1.3013,-1.3608,-1.4217,-1.4748,-1.5284,-1.5788,-1.6211,-1.6576,-1.6952,-1.7421,-1.761,-1.7716,-1.7642,-1.7676,-1.7627,-1.7588,-1.7832,-1.7871,-1.7875,-1.7756,-1.7499,-1.7136,-1.6748,-1.6647,-1.6669,-1.6668,-1.692,-1.7245,-1.7645,-1.8084,-1.8437,-1.8732,-1.8881,-1.9013,-1.9052,-1.9078,-1.9158,-1.9263,-1.9368,-1.9473,-1.9604,-1.9708,-1.9734,-1.9747,-1.9734,-1.9747,-0.3302,-0.3288,-0.3288,-0.3288,-0.3288,-0.3288,-0.3287,-0.329,-0.3412,-0.3943,-0.4542,-0.47,-0.4883,-0.5164,-0.5205,-0.5189,-0.5255,-0.5536,-0.5653,-0.5878,-0.6402,-0.6675,-0.6754,-0.7007,-0.7231,-0.7275,-0.7319,-0.736,-0.7625,-0.7977,-0.8328,-0.8504,-0.8597,-0.872,-0.8594,-0.8576,-0.8573,-0.8462,-0.8371,-0.8446,-0.8589,-0.8513,-0.8479,-0.8403,-0.8365,-0.8289,-0.8327,-0.8403,-0.8441,-0.8475,-0.8627,-0.8661,-0.8703,-0.8746,-0.8865,-0.8984,-0.917,-0.9473,-0.9771,-1.0105,-1.0293,-1.0519,-1.0625,-1.0669,-1.0826,-1.115,-1.152,-1.1866,-1.2342,-1.2936,-1.3484,-1.4065,-1.4605,-1.5141,-1.5647,-1.6026,-1.6412,-1.6968,-1.752,-1.7725,-1.7906,-1.7974,-1.7974,-1.8008,-1.8008,-1.7998,-1.7978,-1.7959,-1.7949,-1.778,-1.7466,-1.7085,-1.6668,-1.6586,-1.6562,-1.6666,-1.705,-1.744,-1.7881,-1.8236,-1.8587,-1.8759,-1.8919,-1.8999,-1.9052,-1.9078,-1.9131,-1.9223,-1.9342,-1.9486,-1.9565,-1.9591,-1.9565,-1.9539,-1.9591,-0.304,-0.3019,-0.3018,-0.3018,-0.3018,-0.3018,-0.3018,-0.3022,-0.3044,-0.3309,-0.3693,-0.3929,-0.4134,-0.4392,-0.4414,-0.4433,-0.4518,-0.4792,-0.4835,-0.5079,-0.5496,-0.574,-0.5992,-0.6254,-0.6387,-0.6476,-0.6656,-0.6833,-0.7139,-0.7363,-0.7584,-0.7757,-0.8101,-0.8233,-0.8139,-0.825,-0.8339,-0.8224,-0.8091,-0.8196,-0.8403,-0.8331,-0.8255,-0.8217,-0.8178,-0.8063,-0.8102,-0.8217,-0.8289,-0.8403,-0.8589,-0.8665,-0.8703,-0.8703,-0.8746,-0.8865,-0.8984,-0.9175,-0.943,-0.9695,-0.9803,-0.9992,-1.0105,-1.0105,-1.0143,-1.0516,-1.1075,-1.149,-1.212,-1.2716,-1.3382,-1.3992,-1.4469,-1.4971,-1.547,-1.5929,-1.6377,-1.6943,-1.7382,-1.7716,-1.7818,-1.7862,-1.793,-1.8008,-1.8008,-1.8008,-1.8008,-1.8008,-1.8008,-1.8066,-1.7754,-1.7479,-1.7088,-1.6729,-1.6663,-1.6762,-1.6948,-1.7329,-1.7745,-1.8111,-1.8491,-1.8679,-1.8839,-1.8801,-1.8827,-1.8866,-1.8958,-1.9086,-1.917,-1.9291,-1.9382,-1.9447,-1.938,-1.9338,-1.934,-0.2967,-0.2877,-0.2922,-0.2921,-0.292,-0.2921,-0.2925,-0.2887,-0.2971,-0.2993,-0.3059,-0.3355,-0.3602,-0.3747,-0.3882,-0.3912,-0.3959,-0.415,-0.4173,-0.4281,-0.4707,-0.4929,-0.5133,-0.5319,-0.5544,-0.5766,-0.5947,-0.6213,-0.6523,-0.6656,-0.6786,-0.6962,-0.7183,-0.7353,-0.7487,-0.7677,-0.782,-0.7805,-0.7786,-0.7863,-0.7987,-0.803,-0.803,-0.8025,-0.7987,-0.7987,-0.7987,-0.8025,-0.8097,-0.8327,-0.8479,-0.8627,-0.8703,-0.8703,-0.8703,-0.8784,-0.8827,-0.8984,-0.9137,-0.9359,-0.9397,-0.9435,-0.9506,-0.962,-0.9695,-1.0067,-1.0669,-1.126,-1.1898,-1.2599,-1.3302,-1.3891,-1.4361,-1.4864,-1.5328,-1.5753,-1.6281,-1.6804,-1.721,-1.7579,-1.7681,-1.775,-1.7852,-1.7964,-1.8008,-1.8008,-1.8008,-1.8008,-1.8076,-1.8148,-1.8085,-1.7865,-1.7614,-1.7307,-1.6981,-1.7032,-1.7198,-1.7333,-1.7755,-1.81,-1.8367,-1.8437,-1.8506,-1.8533,-1.856,-1.8649,-1.88,-1.8979,-1.9068,-1.9235,-1.9513,-1.9634,-1.9329,-1.9275,-1.9092,-0.2929,-0.292,-0.292,-0.292,-0.292,-0.292,-0.292,-0.2921,-0.2931,-0.2935,-0.2957,-0.3008,-0.3179,-0.3236,-0.3244,-0.3316,-0.3489,-0.3643,-0.3591,-0.3667,-0.4102,-0.4154,-0.432,-0.4654,-0.4924,-0.5146,-0.5324,-0.5549,-0.5725,-0.5855,-0.5899,-0.5985,-0.6428,-0.6593,-0.669,-0.6934,-0.7236,-0.7267,-0.7331,-0.7358,-0.7369,-0.7488,-0.7718,-0.7642,-0.7446,-0.7411,-0.7411,-0.7526,-0.7718,-0.7949,-0.8255,-0.8518,-0.8627,-0.8665,-0.8703,-0.8703,-0.8784,-0.8827,-0.898,-0.9099,-0.9094,-0.9246,-0.9359,-0.9435,-0.962,-0.9954,-1.055,-1.1149,-1.1818,-1.2636,-1.3302,-1.3848,-1.4317,-1.4828,-1.5336,-1.562,-1.6008,-1.6491,-1.6943,-1.7245,-1.7442,-1.7613,-1.7784,-1.7896,-1.8042,-1.8042,-1.8042,-1.8076,-1.8178,-1.8283,-1.8355,-1.8248,-1.8096,-1.7795,-1.7451,-1.7512,-1.7624,-1.7677,-1.7669,-1.7879,-1.8045,-1.8111,-1.8154,-1.8182,-1.8336,-1.8464,-1.8655,-1.8944,-1.9163,-1.9388,-1.979,-1.9897,-1.9506,-1.9109,-1.885]}]]